[[{"header":{"parameterUnit":"m.s-1","parameterCategory":1,"la1":30.6,"la2":29.2853,"lo1":-89.7004,"lo2":-87.6739,"dy":0.0162,"dx":0.0183,"nx":112,"ny":82,"refTime":"2023-04-23T18:00:00:Z","depth":0,"parameterNumber":2,"parameterNumberName":"U-component_of_WINDS"},"data":[0.0,0.0,0.0,0.0,0.0,0.0,0.0,0.0,0.0,0.0,0.0,0.0,0.0,0.0,0.0,0.0,0.0,0.0,0.0,0.0,0.0,0.0,0.0,0.0,0.0,0.0,0.0,0.0,0.0,0.0,0.0,0.0,0.0,0.0,0.0,0.0,0.0,0.0,0.0,0.0,0.0,0.0,0.0,0.0,0.0,0.0,0.0,0.0,0.0,0.0,0.0,0.0,0.0,0.0,0.0,0.0,0.0,0.0,0.0,0.0,0.0,0.0,0.0,0.0,0.0,0.0,0.0,0.0,0.0,0.0,0.0,0.0,0.0,0.0,0.0,0.0,0.0,0.0,0.0,0.0,0.0,0.0,0.0,0.0,0.0,0.0,0.0,0.0,0.0,0.0,5.2979,5.5567,5.9211,6.086,5.9333,5.6372,5.2384,4.7139,0.0,0.0,0.0,0.0,0.0,0.0,0.0,0.0,0.0,0.0,0.0,0.0,0.0,0.0,0.0,0.0,0.0,0.0,0.0,0.0,0.0,0.0,0.0,0.0,0.0,0.0,0.0,0.0,0.0,0.0,0.0,0.0,0.0,0.0,0.0,0.0,0.0,0.0,0.0,0.0,0.0,0.0,0.0,0.0,0.0,0.0,0.0,0.0,0.0,0.0,0.0,0.0,0.0,0.0,0.0,0.0,0.0,0.0,0.0,0.0,0.0,0.0,0.0,0.0,0.0,0.0,0.0,0.0,0.0,0.0,0.0,0.0,0.0,0.0,0.0,0.0,0.0,0.0,0.0,0.0,0.0,0.0,0.0,0.0,0.0,0.0,0.0,0.0,0.0,0.0,0.0,0.0,0.0,0.0,0.0,0.0,0.0,0.0,0.0,0.0,0.0,0.0,0.0,0.0,5.2997,5.9752,6.1068,6.086,5.9333,5.6372,5.2384,4.7139,0.0,0.0,0.0,0.0,0.0,0.0,0.0,0.0,0.0,0.0,0.0,0.0,0.0,0.0,0.0,0.0,0.0,0.0,0.0,0.0,0.0,0.0,0.0,0.0,0.0,0.0,0.0,0.0,0.0,0.0,0.0,0.0,0.0,0.0,0.0,0.0,0.0,0.0,0.0,0.0,0.0,0.0,0.0,0.0,0.0,0.0,0.0,0.0,0.0,0.0,0.0,0.0,0.0,0.0,0.0,0.0,0.0,0.0,0.0,0.0,0.0,0.0,0.0,0.0,0.0,0.0,0.0,0.0,0.0,0.0,0.0,0.0,0.0,0.0,0.0,0.0,0.0,0.0,0.0,0.0,0.0,0.0,0.0,0.0,0.0,0.0,0.0,0.0,0.0,0.0,0.0,0.0,0.0,0.0,0.0,0.0,0.0,0.0,0.0,0.0,0.0,0.0,0.0,5.1707,5.4652,6.015,6.0376,5.952,5.8031,5.5111,5.1488,4.7071,4.5751,0.0,0.0,0.0,0.0,0.0,0.0,0.0,0.0,0.0,0.0,0.0,0.0,0.0,0.0,0.0,0.0,0.0,0.0,0.0,0.0,0.0,0.0,0.0,0.0,0.0,0.0,0.0,0.0,0.0,0.0,0.0,0.0,0.0,0.0,0.0,0.0,0.0,0.0,0.0,0.0,0.0,0.0,0.0,0.0,0.0,0.0,0.0,0.0,0.0,0.0,0.0,0.0,0.0,0.0,0.0,0.0,0.0,0.0,0.0,0.0,0.0,0.0,0.0,0.0,0.0,0.0,0.0,0.0,0.0,0.0,0.0,0.0,0.0,0.0,0.0,0.0,0.0,0.0,0.0,0.0,0.0,0.0,0.0,0.0,0.0,0.0,0.0,0.0,0.0,0.0,0.0,0.0,0.0,0.0,0.0,0.0,0.0,0.0,0.0,0.0,0.0,0.0,5.4803,5.6461,6.0013,5.9404,5.8201,5.69,5.389,5.0541,4.7022,4.5244,0.0,0.0,0.0,0.0,0.0,0.0,0.0,0.0,0.0,0.0,0.0,0.0,0.0,0.0,0.0,0.0,0.0,0.0,0.0,0.0,0.0,0.0,0.0,0.0,0.0,0.0,0.0,0.0,0.0,0.0,0.0,0.0,0.0,0.0,0.0,0.0,0.0,0.0,0.0,0.0,0.0,0.0,0.0,0.0,0.0,0.0,0.0,0.0,0.0,0.0,0.0,0.0,0.0,0.0,0.0,0.0,0.0,0.0,0.0,0.0,0.0,0.0,0.0,0.0,0.0,0.0,0.0,0.0,0.0,0.0,0.0,0.0,0.0,0.0,0.0,0.0,0.0,0.0,0.0,0.0,0.0,0.0,0.0,0.0,0.0,0.0,0.0,0.0,0.0,0.0,0.0,0.0,0.0,0.0,0.0,0.0,0.0,0.0,0.0,0.0,0.0,0.0,5.5378,5.7814,6.0892,5.9268,5.7645,5.6867,5.3399,4.9984,4.7003,4.4708,0.0,0.0,0.0,0.0,0.0,0.0,0.0,0.0,0.0,0.0,0.0,0.0,0.0,0.0,0.0,0.0,0.0,0.0,0.0,0.0,0.0,0.0,0.0,0.0,0.0,0.0,0.0,0.0,0.0,0.0,0.0,0.0,0.0,0.0,0.0,0.0,0.0,0.0,0.0,0.0,0.0,0.0,0.0,0.0,0.0,0.0,0.0,0.0,0.0,0.0,0.0,0.0,0.0,0.0,0.0,0.0,0.0,0.0,0.0,0.0,0.0,0.0,0.0,0.0,0.0,0.0,0.0,0.0,0.0,0.0,0.0,0.0,0.0,0.0,0.0,0.0,0.0,0.0,0.0,0.0,0.0,0.0,0.0,0.0,0.0,0.0,0.0,0.0,0.0,0.0,0.0,0.0,0.0,0.0,0.0,0.0,0.0,0.0,0.0,0.0,0.0,0.0,5.504,5.7085,5.9607,5.8287,5.6934,5.6172,5.2672,4.9661,4.7616,0.0,0.0,0.0,0.0,0.0,0.0,0.0,0.0,0.0,0.0,0.0,0.0,0.0,0.0,0.0,0.0,0.0,0.0,0.0,0.0,0.0,0.0,0.0,0.0,0.0,0.0,0.0,0.0,0.0,0.0,0.0,0.0,0.0,0.0,0.0,0.0,0.0,0.0,0.0,0.0,0.0,0.0,0.0,0.0,0.0,0.0,0.0,0.0,0.0,0.0,0.0,0.0,0.0,0.0,0.0,0.0,0.0,0.0,0.0,0.0,0.0,0.0,0.0,0.0,0.0,0.0,0.0,0.0,0.0,0.0,0.0,0.0,0.0,0.0,0.0,0.0,0.0,0.0,0.0,0.0,0.0,0.0,0.0,0.0,0.0,0.0,0.0,0.0,0.0,0.0,0.0,0.0,0.0,0.0,0.0,0.0,0.0,0.0,0.0,0.0,0.0,0.0,5.3044,5.4786,5.6443,5.8457,5.734,5.6037,5.509,5.1352,4.8612,4.7616,0.0,0.0,0.0,0.0,0.0,0.0,0.0,0.0,0.0,0.0,0.0,0.0,0.0,0.0,0.0,0.0,0.0,0.0,0.0,0.0,0.0,0.0,0.0,0.0,0.0,0.0,0.0,0.0,0.0,0.0,0.0,0.0,0.0,0.0,0.0,0.0,0.0,0.0,0.0,0.0,0.0,0.0,0.0,0.0,0.0,0.0,0.0,0.0,0.0,0.0,0.0,0.0,0.0,0.0,0.0,0.0,0.0,0.0,0.0,0.0,0.0,0.0,0.0,0.0,0.0,0.0,0.0,0.0,0.0,0.0,0.0,0.0,0.0,0.0,0.0,0.0,0.0,0.0,0.0,0.0,0.0,0.0,0.0,0.0,0.0,0.0,0.0,0.0,0.0,0.0,0.0,0.0,0.0,0.0,0.0,0.0,0.0,0.0,0.0,0.0,0.0,0.0,5.3112,5.4786,5.6274,5.773,5.6596,5.509,5.3619,4.939,4.6819,0.0,0.0,0.0,0.0,0.0,0.0,0.0,0.0,0.0,0.0,0.0,0.0,0.0,0.0,0.0,0.0,0.0,0.0,0.0,0.0,0.0,0.0,0.0,0.0,0.0,0.0,0.0,0.0,0.0,0.0,0.0,0.0,0.0,0.0,0.0,0.0,0.0,0.0,0.0,0.0,0.0,0.0,0.0,0.0,0.0,0.0,0.0,0.0,0.0,0.0,0.0,0.0,0.0,0.0,0.0,0.0,0.0,0.0,0.0,0.0,0.0,0.0,0.0,0.0,0.0,0.0,0.0,0.0,0.0,0.0,0.0,0.0,0.0,0.0,0.0,0.0,0.0,0.0,0.0,0.0,0.0,0.0,0.0,0.0,0.0,0.0,0.0,0.0,0.0,0.0,0.0,0.0,0.0,0.0,0.0,0.0,0.0,0.0,0.0,0.0,0.0,0.0,0.0,5.3822,5.509,5.6274,5.773,5.6596,5.509,5.3619,4.9848,4.7582,4.7582,0.0,0.0,0.0,0.0,0.0,0.0,0.0,0.0,0.0,0.0,0.0,0.0,0.0,0.0,0.0,0.0,0.0,0.0,0.0,0.0,0.0,0.0,0.0,0.0,0.0,0.0,0.0,0.0,0.0,0.0,0.0,0.0,0.0,0.0,0.0,0.0,0.0,0.0,0.0,0.0,0.0,0.0,0.0,0.0,0.0,0.0,0.0,0.0,0.0,0.0,0.0,0.0,0.0,0.0,0.0,0.0,0.0,0.0,0.0,0.0,0.0,0.0,0.0,0.0,0.0,0.0,0.0,0.0,0.0,0.0,0.0,0.0,0.0,0.0,0.0,0.0,0.0,0.0,0.0,0.0,0.0,0.0,0.0,0.0,0.0,0.0,0.0,0.0,0.0,0.0,0.0,0.0,0.0,0.0,0.0,0.0,0.0,0.0,0.0,0.0,0.0,0.0,5.4194,5.5513,5.6494,5.7374,5.6393,5.4853,5.2757,4.9458,4.7346,4.7041,0.0,0.0,0.0,0.0,0.0,0.0,0.0,0.0,0.0,0.0,0.0,0.0,0.0,0.0,0.0,0.0,0.0,0.0,0.0,0.0,0.0,0.0,0.0,0.0,0.0,0.0,0.0,0.0,0.0,0.0,0.0,0.0,0.0,0.0,0.0,0.0,0.0,0.0,0.0,0.0,0.0,0.0,0.0,0.0,0.0,0.0,0.0,0.0,0.0,0.0,0.0,0.0,0.0,0.0,0.0,0.0,0.0,0.0,0.0,0.0,0.0,0.0,0.0,0.0,0.0,0.0,0.0,0.0,0.0,0.0,0.0,0.0,0.0,0.0,0.0,0.0,0.0,0.0,0.0,0.0,0.0,0.0,0.0,0.0,0.0,0.0,0.0,0.0,0.0,0.0,0.0,0.0,0.0,0.0,0.0,0.0,0.0,0.0,0.0,0.0,0.0,0.0,5.4397,5.5919,5.6833,5.69,5.6172,5.4481,5.1472,4.8545,4.6549,4.5771,0.0,0.0,0.0,0.0,0.0,0.0,0.0,0.0,0.0,0.0,0.0,0.0,0.0,0.0,0.0,0.0,0.0,0.0,0.0,0.0,0.0,0.0,0.0,0.0,0.0,0.0,0.0,0.0,0.0,0.0,0.0,0.0,0.0,0.0,0.0,0.0,0.0,0.0,0.0,0.0,0.0,0.0,0.0,0.0,0.0,0.0,0.0,0.0,0.0,0.0,0.0,0.0,0.0,0.0,0.0,0.0,0.0,0.0,0.0,0.0,4.5969,4.5602,0.0,0.0,0.0,0.0,0.0,0.0,0.0,0.0,0.0,0.0,0.0,0.0,0.0,0.0,0.0,0.0,0.0,0.0,0.0,0.0,0.0,0.0,0.0,0.0,0.0,0.0,0.0,0.0,0.0,0.0,0.0,0.0,0.0,0.0,0.0,0.0,0.0,0.0,0.0,0.0,5.509,5.6258,5.7036,5.7577,5.6494,5.4481,5.1472,4.9037,4.7109,4.579,4.3572,0.0,0.0,0.0,0.0,0.0,0.0,0.0,0.0,0.0,0.0,0.0,0.0,0.0,0.0,0.0,0.0,0.0,0.0,0.0,0.0,0.0,0.0,0.0,0.0,0.0,0.0,0.0,0.0,0.0,0.0,0.0,0.0,0.0,0.0,0.0,0.0,0.0,0.0,0.0,0.0,0.0,0.0,0.0,0.0,0.0,0.0,0.0,0.0,0.0,0.0,0.0,0.0,0.0,0.0,0.0,0.0,0.0,0.0,0.0,4.8443,4.6989,0.0,0.0,0.0,0.0,0.0,0.0,0.0,0.0,0.0,0.0,0.0,0.0,0.0,0.0,0.0,0.0,0.0,0.0,0.0,0.0,0.0,0.0,0.0,0.0,0.0,0.0,0.0,0.0,0.0,0.0,0.0,0.0,0.0,0.0,0.0,0.0,0.0,0.0,0.0,0.0,5.5395,5.6664,5.734,5.7374,5.6393,5.4481,5.1472,4.951,4.765,4.5838,4.4262,0.0,0.0,0.0,0.0,0.0,0.0,0.0,0.0,0.0,0.0,0.0,0.0,0.0,0.0,0.0,0.0,0.0,0.0,0.0,0.0,0.0,0.0,0.0,0.0,0.0,0.0,0.0,0.0,0.0,0.0,0.0,0.0,0.0,0.0,0.0,0.0,0.0,0.0,0.0,0.0,0.0,0.0,0.0,0.0,0.0,0.0,0.0,0.0,0.0,0.0,0.0,0.0,0.0,5.1925,5.2845,5.417,5.4115,5.4243,5.4389,5.2893,5.0624,4.797,4.8056,0.0,0.0,0.0,0.0,0.0,0.0,0.0,0.0,0.0,0.0,0.0,0.0,0.0,0.0,0.0,0.0,0.0,0.0,0.0,0.0,0.0,0.0,4.7857,5.0485,5.0575,4.9701,4.8391,0.0,0.0,0.0,0.0,0.0,0.0,0.0,0.0,0.0,0.0,0.0,5.5361,5.69,5.7611,5.6867,5.6139,5.4515,5.1641,5.0017,4.8308,4.621,4.5014,4.3848,0.0,0.0,0.0,0.0,0.0,0.0,0.0,0.0,0.0,0.0,0.0,0.0,0.0,0.0,0.0,0.0,0.0,0.0,0.0,0.0,0.0,0.0,0.0,0.0,0.0,0.0,0.0,0.0,0.0,0.0,0.0,0.0,4.2331,4.1134,0.0,0.0,0.0,0.0,0.0,0.0,0.0,0.0,0.0,0.0,0.0,0.0,0.0,4.9551,5.1488,5.2975,5.392,5.435,5.5664,5.6103,5.5811,5.8201,5.8992,5.853,6.0111,0.0,5.2435,4.9898,0.0,0.0,0.0,0.0,0.0,0.0,0.0,0.0,0.0,0.0,0.0,0.0,0.0,0.0,0.0,0.0,0.0,0.0,0.0,0.0,0.0,0.0,4.907,5.0435,5.1161,5.1019,4.9236,4.8075,4.7359,4.7305,4.6203,4.5734,0.0,0.0,0.0,0.0,0.0,0.0,5.4702,5.6614,5.7611,5.6867,5.6139,5.4752,5.2367,5.0811,4.9289,4.7718,4.5005,4.3674,4.4078,4.2119,0.0,0.0,0.0,0.0,0.0,0.0,0.0,0.0,0.0,0.0,0.0,0.0,0.0,0.0,0.0,0.0,0.0,0.0,0.0,0.0,0.0,0.0,0.0,0.0,0.0,0.0,0.0,0.0,0.0,4.2192,4.315,4.1085,4.272,4.296,0.0,0.0,0.0,0.0,0.0,0.0,0.0,0.0,0.0,4.8716,5.09,5.2521,5.3486,5.4819,5.6077,5.7272,5.753,5.8233,5.9385,6.1044,6.2246,6.3013,6.3897,6.2361,5.8912,5.4338,5.189,5.0723,0.0,0.0,0.0,0.0,4.5898,4.5963,4.6305,4.6224,4.5865,4.5832,0.0,0.0,0.0,0.0,0.0,0.0,0.0,4.6029,4.638,4.8372,5.0547,5.1855,5.2281,5.2086,5.0839,4.9398,4.8241,4.7749,4.6654,4.6229,4.7479,4.7385,0.0,0.0,0.0,5.4693,5.5714,5.7408,5.7915,5.6341,5.5902,5.4617,5.1911,5.1082,4.9916,4.8022,4.6149,4.4848,4.4253,4.3119,4.2159,0.0,0.0,0.0,0.0,0.0,0.0,0.0,0.0,0.0,0.0,0.0,0.0,0.0,0.0,0.0,0.0,0.0,0.0,0.0,0.0,0.0,0.0,0.0,0.0,0.0,0.0,0.0,0.0,4.3399,4.4655,4.1534,4.4496,4.5394,0.0,0.0,0.0,0.0,0.0,0.0,4.8476,5.105,5.2785,5.3414,5.5269,5.6376,5.6705,5.7693,5.8946,6.0356,5.9697,6.0364,6.2216,6.3115,6.4228,6.5439,6.5689,6.505,6.3397,5.8076,5.4533,5.2089,4.9079,4.8154,4.8427,4.7869,4.7678,4.7723,4.8257,4.799,4.736,4.7048,4.6512,4.5847,4.5182,0.0,0.0,0.0,0.0,4.7266,4.7939,4.9921,5.2047,5.3387,5.3562,5.3192,5.2348,5.1039,4.9664,4.8317,4.7109,4.6715,4.7926,4.7652,0.0,5.1573,5.3518,5.5165,5.6606,5.8066,5.8134,5.5936,5.5699,5.4651,5.2013,5.1438,5.0395,4.8489,4.6994,4.5518,4.4074,4.3278,4.2144,4.0685,0.0,0.0,0.0,0.0,0.0,0.0,0.0,0.0,0.0,0.0,0.0,0.0,0.0,0.0,0.0,0.0,0.0,0.0,0.0,0.0,0.0,0.0,0.0,0.0,0.0,0.0,0.0,0.0,0.0,4.3678,4.7736,0.0,0.0,0.0,0.0,4.9591,5.0428,5.1176,5.1917,5.4486,5.6222,5.6825,5.9997,6.2271,6.3498,6.3558,6.3647,6.3737,6.3168,6.2927,6.3072,6.4411,6.4665,6.4151,6.5491,6.5198,6.3492,5.9642,5.6473,5.384,5.1527,5.0283,4.9816,4.9753,4.9753,4.9733,4.9796,4.9372,4.8904,4.9596,4.9349,4.865,4.7945,4.8186,0.0,0.0,4.8008,4.9935,5.057,5.1894,5.3408,5.4553,5.4807,5.4491,5.3387,5.2564,5.1306,4.8759,4.7224,4.6732,4.8061,0.0,4.9539,5.2097,5.4548,5.6274,5.6741,5.8066,5.8134,5.5936,5.5699,5.5056,5.3518,5.2046,5.0758,4.9787,4.6898,4.4822,4.386,4.1717,4.0812,4.1343,4.0098,0.0,0.0,0.0,0.0,0.0,0.0,0.0,0.0,0.0,0.0,0.0,0.0,0.0,0.0,0.0,0.0,0.0,0.0,0.0,0.0,0.0,0.0,0.0,0.0,0.0,0.0,0.0,0.0,5.0338,5.3084,0.0,5.0331,5.0272,5.093,5.2037,5.3533,5.5448,5.7812,6.0027,6.1912,6.3408,6.4635,6.5473,6.5922,6.5503,6.5293,6.5263,6.4186,6.3677,6.3706,6.4669,6.4959,6.4766,6.5667,6.5294,6.3834,6.2052,5.9694,5.6949,5.4098,5.2864,5.265,5.265,5.265,5.265,5.265,5.2215,5.1505,5.0459,4.9402,4.8435,4.7721,4.8017,4.826,4.6809,4.818,5.0171,5.0371,5.182,5.3391,5.4231,5.4461,5.4461,5.447,5.4281,5.3832,5.2905,5.096,4.974,5.0661,5.0532,5.1458,5.4698,5.5992,5.6963,5.8066,5.9099,5.8693,5.6003,5.5699,5.4627,5.1974,5.0858,4.9669,4.8202,4.6117,4.4609,4.3813,4.2451,4.1403,4.0775,3.984,3.9601,0.0,0.0,0.0,0.0,0.0,0.0,0.0,0.0,0.0,0.0,0.0,0.0,0.0,0.0,0.0,0.0,0.0,0.0,0.0,0.0,0.0,0.0,0.0,0.0,0.0,5.0936,5.4132,5.479,5.7393,5.8198,5.5773,5.5718,5.6226,5.7124,5.862,6.0535,6.2959,6.4515,6.5951,6.7299,6.7537,6.7657,6.7657,6.6999,6.667,6.667,6.5323,6.4665,6.4664,6.4714,6.4738,6.4733,6.4982,6.4563,6.3721,6.2993,6.1622,5.9714,5.6921,5.5598,5.5179,5.5179,5.5179,5.5119,5.47,5.4251,5.3588,5.1798,5.0631,4.9875,4.9434,4.9583,4.9853,4.9434,5.0548,5.1983,5.2432,5.3533,5.4635,5.5059,5.5179,5.5299,5.5748,5.5837,5.5837,5.5837,5.4072,5.2695,5.3144,5.2845,5.3729,5.7233,5.763,5.7902,5.9048,5.95,5.8564,5.5456,5.4935,5.3732,5.1054,5.0109,4.8688,4.6539,4.5385,4.4279,4.3039,4.2383,4.1643,4.0756,3.984,3.9601,4.0068,0.0,0.0,0.0,0.0,0.0,0.0,0.0,0.0,0.0,0.0,0.0,0.0,0.0,0.0,0.0,0.0,0.0,0.0,0.0,0.0,0.0,0.0,0.0,4.8768,5.473,5.853,5.6821,6.0533,6.2479,6.0535,6.212,6.3767,6.5054,6.5742,6.643,6.7119,6.7778,6.8137,6.8167,6.8764,6.9123,6.9093,6.8437,6.8077,6.8047,6.67,6.6071,6.6011,6.4665,6.4036,6.3977,6.3407,6.3138,6.3048,6.2391,6.2121,6.1912,5.9937,5.8381,5.7214,5.7184,5.7154,5.6944,5.5718,5.5239,5.4999,5.3737,5.3318,5.3288,5.3318,5.3318,5.3588,5.488,5.5239,5.5538,5.6765,5.7094,5.7094,5.7094,5.7094,5.7094,5.7124,5.7154,5.7154,5.7154,5.6166,5.5329,5.5299,5.5269,5.6315,5.9405,5.9247,0.0,5.944,5.9168,5.7655,5.4345,5.3381,5.243,5.0966,4.9849,4.7965,4.5036,4.4731,4.3695,4.1471,4.1373,4.1373,4.1343,4.0079,3.9421,3.9391,0.0,0.0,0.0,0.0,0.0,0.0,0.0,0.0,0.0,0.0,0.0,0.0,0.0,0.0,0.0,0.0,0.0,0.0,0.0,0.0,0.0,5.2576,5.709,5.6881,5.9398,6.2331,6.5144,6.5772,6.6071,6.652,6.661,6.7178,6.8464,6.8764,6.9363,7.047,7.0742,7.1038,7.1547,7.1727,7.1607,7.1098,7.044,6.9871,6.9454,6.8107,6.7178,6.67,6.5832,6.4934,6.3977,6.3827,6.3498,6.3108,6.2898,6.254,6.2002,6.0954,6.0326,5.9937,5.9428,5.865,5.7756,5.7397,5.6705,5.5953,5.6013,5.5743,5.5474,5.5923,5.6017,5.6107,5.6466,5.6585,5.6645,5.7004,5.7094,5.7094,5.7094,5.7094,5.7244,5.7696,5.8231,5.856,5.856,5.865,5.8441,5.7457,5.6915,5.7177,5.8909,5.8621,5.8058,5.756,5.7416,5.6387,5.3874,5.3467,5.2288,4.9596,4.8282,4.6462,4.3901,4.2845,4.1855,4.0715,4.0666,4.0457,3.996,4.0068,3.9888,0.0,0.0,0.0,0.0,0.0,0.0,0.0,0.0,0.0,0.0,0.0,0.0,0.0,0.0,0.0,0.0,0.0,0.0,0.0,0.0,0.0,0.0,5.7633,6.2839,6.4755,6.5233,6.658,6.9812,6.9512,6.9453,7.053,7.029,7.035,7.1096,7.1188,7.1547,7.2265,7.2325,7.2505,7.2894,7.2924,7.2714,7.2325,7.1637,7.1128,7.0769,6.9484,6.8646,6.8196,6.6969,6.5981,6.5203,6.4366,6.3797,6.3438,6.3197,6.2868,6.245,0.0,0.0,0.0,0.0,5.9847,5.8919,5.862,5.7842,5.7004,5.7064,5.6855,5.6641,5.6974,5.7094,5.7154,5.7453,5.7513,5.7663,5.8201,5.8141,5.8082,5.865,5.856,5.853,5.9192,5.964,5.9937,5.9937,6.0027,0.0,5.9069,5.8381,5.8286,5.9246,5.8832,5.7889,5.6604,5.6322,5.5261,5.266,5.2124,5.0984,4.8602,4.7323,0.0,0.0,0.0,4.1403,4.0427,4.0666,0.0,0.0,0.0,4.0487,3.981,4.0876,0.0,0.0,4.1014,4.1414,0.0,0.0,0.0,0.0,0.0,0.0,0.0,0.0,0.0,0.0,0.0,0.0,0.0,0.0,0.0,0.0,6.2601,6.7298,7.1607,7.1308,7.1009,7.2029,7.2056,7.2265,7.2954,7.3013,7.3043,7.3133,7.3133,7.3133,7.3133,7.3133,0.0,0.0,0.0,7.3103,7.3013,7.2415,7.2026,7.1876,7.0739,7.0143,6.9963,6.8136,6.7238,6.6999,6.5144,6.4306,6.4156,6.3468,6.3168,6.3048,6.245,6.1792,6.1196,6.1196,6.0805,6.0116,5.9548,0.0,0.0,5.7633,5.7393,5.7334,5.7334,5.7363,5.7543,5.8145,5.8384,5.8713,5.9907,5.9757,5.9638,6.0835,6.0655,6.0386,6.0984,6.1136,6.1194,6.1106,6.0685,6.0294,6.0144,5.9548,5.9258,5.968,5.9159,5.7986,5.6022,5.553,5.4153,5.1067,5.0219,0.0,4.7864,4.6838,4.5194,4.2661,4.2381,4.1733,4.0546,4.1074,4.1134,4.0516,4.1104,4.1104,4.0516,4.1235,4.1912,4.25,4.25,4.2821,0.0,0.0,0.0,0.0,0.0,0.0,0.0,0.0,0.0,0.0,0.0,0.0,0.0,0.0,0.0,6.0745,6.652,7.1427,7.3975,7.4569,7.445,7.3612,7.3043,7.2984,7.3642,7.3702,7.3911,7.445,7.448,7.448,7.448,7.448,7.448,7.448,7.448,7.424,7.3702,7.3582,7.2954,7.1876,7.1637,0.0,6.9993,6.9604,6.8826,6.7748,6.6819,6.6101,6.5533,6.4306,6.3528,6.3108,6.2958,6.248,6.1912,6.1912,6.1493,6.0894,6.0775,6.0266,5.9668,5.9548,5.9129,5.871,5.871,5.9069,0.0,5.9668,6.0116,6.0595,6.0835,6.0835,6.0777,6.1016,6.1014,6.0954,6.1074,6.1523,6.1762,6.1224,6.1433,6.1373,6.0294,5.9548,5.8787,5.7846,5.7544,5.6576,5.4068,5.3687,5.2802,5.0555,5.0208,4.9388,4.7542,4.6727,4.5403,4.325,4.2162,4.1463,4.1224,4.1343,4.1343,4.1224,4.1343,4.1343,4.1224,4.2372,4.301,4.313,4.313,4.3489,0.0,0.0,0.0,0.0,0.0,0.0,0.0,0.0,0.0,0.0,0.0,4.9574,5.3058,0.0,6.2151,6.5503,7.0203,7.3851,7.5198,7.5946,7.6006,7.5018,7.4599,7.442,7.439,7.439,7.4544,7.4873,7.5198,7.5377,7.5377,7.5677,7.5707,7.5407,7.5377,7.5078,7.439,7.4061,7.3552,7.2894,7.2565,7.2056,7.1427,7.0739,7.0081,6.9333,6.7717,6.6819,6.637,6.4695,6.3827,6.3527,6.3227,6.2898,6.26,6.26,6.2181,6.1613,6.1613,6.1164,6.0595,6.0595,6.0386,6.0116,6.0116,6.0326,6.0595,6.0595,6.0835,6.1194,6.1523,6.1373,6.1283,6.1942,6.1852,6.1702,6.2032,6.2361,6.248,6.2151,6.2091,6.1882,6.1224,6.0266,5.9129,5.7812,5.7304,5.6286,5.3982,5.3408,5.2306,5.0002,4.9763,4.9075,4.7459,4.6381,4.5224,4.3878,4.2891,4.2372,4.2372,4.2062,4.2062,4.2391,4.2372,4.2521,4.2851,4.3838,4.4296,4.4296,4.4655,4.4984,0.0,0.0,0.0,0.0,0.0,0.0,0.0,4.4401,4.5831,4.9148,5.158,5.4645,5.9717,6.3199,6.652,7.0141,7.3316,7.5497,7.6185,7.6814,7.6963,7.6335,7.6155,7.5856,7.5318,7.5258,7.5258,7.5258,7.5766,7.6096,7.6096,7.6539,7.6569,7.6096,7.5976,7.5647,7.5113,7.442,7.4031,7.3881,7.3343,7.3043,7.2864,7.1787,7.1218,7.0949,6.8465,6.7238,6.6849,6.5114,6.4246,6.3947,6.3438,6.3197,6.3108,6.3108,6.2778,6.2301,6.2301,6.1852,6.1285,6.1285,6.1224,6.1076,6.1076,6.1194,6.1285,6.1285,6.1403,6.1613,6.2151,6.1882,6.1762,6.2838,6.2689,6.2421,6.2988,6.3108,6.3108,6.3108,6.266,6.2241,6.2121,6.1194,5.9997,5.853,5.7723,5.6585,5.464,5.3803,5.245,4.9935,4.9426,4.8768,4.7429,4.6202,4.5274,4.4715,4.4057,4.3698,4.3698,4.3229,4.3199,4.3748,4.3698,4.3938,4.4496,4.5304,4.5693,4.5693,4.6531,4.6719,3.47,3.5596,3.8041,4.0805,4.2444,4.4581,0.0,5.1284,5.3131,5.582,5.9212,6.2608,6.5562,6.8315,7.0859,7.3103,7.5228,7.6808,7.7502,7.816,7.834,7.7682,7.7048,7.6659,7.6569,7.6569,7.6569,7.6569,7.6659,7.6689,7.6689,7.6749,7.6749,7.6689,7.6185,7.5856,7.5796,7.5108,7.448,7.3881,7.3821,7.3492,7.286,7.2711,7.2355,7.1667,6.9662,6.8106,6.6939,6.6101,6.5084,6.3977,6.3917,6.3558,6.3108,6.3108,6.3048,6.2988,6.2988,6.254,6.2002,6.2002,6.1583,6.1076,6.1076,6.1523,6.2002,6.2002,6.2421,6.2898,6.2988,6.2928,6.2928,6.3078,6.3048,6.3018,6.3078,6.3108,6.3108,6.3108,6.3048,6.2808,6.2181,6.1972,6.1224,5.9279,5.8414,5.7277,5.5329,5.4491,5.3294,5.1206,4.9995,4.8768,4.7429,4.66,4.6151,4.6091,4.5454,4.5065,4.5065,4.5005,4.5005,4.5095,4.5065,4.5095,4.5185,4.6471,4.707,4.71,4.8379,4.8349,3.8241,3.8867,4.0182,4.2735,4.4994,4.722,4.964,5.2638,5.5905,5.9317,6.3619,6.7624,7.0488,7.2535,7.433,7.5916,7.7173,7.822,7.8878,7.9208,7.9148,7.846,7.813,7.7831,7.7407,7.7377,7.7526,7.7951,7.7981,7.7981,7.7981,7.7981,7.7801,7.7377,7.7143,7.6844,7.642,7.5796,7.5347,7.5078,7.4659,7.433,7.4031,7.3672,7.2684,7.1248,7.0081,6.8794,6.7538,6.6849,6.5802,6.4516,6.4156,6.3617,6.3108,6.3108,6.3108,6.3108,6.3108,6.2928,6.266,6.266,6.248,6.2241,6.2241,6.245,6.266,6.266,6.2898,6.3108,6.3108,6.3108,6.3108,6.3108,6.3108,6.3108,6.3108,6.3108,6.3108,6.3108,6.3108,6.3018,6.2748,6.2361,6.1672,6.0446,5.9368,5.7992,5.6042,5.5179,5.3862,5.1445,4.9703,4.8498,4.7908,4.7279,4.6869,4.6869,4.6241,4.6052,4.6441,4.5693,4.5663,4.6441,4.6082,4.6262,4.704,4.7608,4.8087,4.8468,4.9037,4.9187,4.0148,4.1076,4.2248,4.5065,4.7935,5.0341,5.1338,5.4743,5.8827,6.2803,6.7094,7.1103,7.4351,7.5766,7.6844,7.816,7.8908,7.9507,8.0016,8.0105,7.9776,7.8878,7.8639,7.84,7.81,7.825,7.8639,7.9297,7.9357,7.9357,7.9357,7.9357,7.9028,7.837,7.819,7.7771,7.7078,7.6305,7.5916,7.5886,7.5198,7.4903,7.4903,7.418,7.3013,7.1427,7.059,6.9514,6.8227,6.7537,6.649,6.5203,6.4545,6.3887,6.3347,6.3168,6.3108,6.3108,6.3108,6.3108,6.3108,6.3108,6.3108,6.3108,6.3108,6.3108,6.3108,6.3108,6.3108,6.3108,6.3108,6.3108,6.3108,6.3108,6.3108,6.3108,6.3108,6.3108,6.3108,6.3108,6.3108,6.3108,6.3108,6.2718,6.2151,6.1493,6.0386,5.8949,5.7,5.5807,5.4162,5.1475,4.9942,4.8955,4.8618,4.7967,4.7578,4.7578,4.6929,4.6779,4.7279,4.6531,4.6591,4.7549,4.7279,4.7698,4.8835,4.8835,4.9254,5.0085,5.0085,5.0421,3.8366,4.0526,4.3212,4.7568,5.1138,5.4094,5.6305,5.9581,6.3329,6.7221,7.0036,7.3022,7.6938,7.7711,7.819,7.9537,8.0315,8.0734,8.0764,8.0764,8.0285,7.8938,7.822,7.8071,7.8699,7.9357,8.0045,8.0704,8.0734,8.0734,8.0734,8.0734,8.0434,7.974,7.9118,7.846,7.7801,7.6544,7.5916,7.5886,7.5198,7.4903,7.4903,7.418,7.3522,7.2774,7.1457,7.0141,6.8914,6.8257,6.7178,6.5922,6.5233,6.4545,6.3887,6.3317,6.3108,6.3108,6.3108,6.3108,6.3108,6.3108,6.3108,6.3108,6.3108,6.3108,6.3108,6.3108,6.3108,6.3108,6.3108,6.3108,6.3108,6.3108,6.3108,6.3108,6.3108,6.3108,6.3108,6.3108,6.3108,6.3108,6.3108,6.3078,6.2838,6.2181,6.1493,6.0298,5.8294,5.6376,5.4162,5.1475,5.1146,5.0631,4.9366,4.8648,4.8289,4.8289,4.7638,4.7279,4.7309,4.7878,4.8229,4.8289,4.8887,4.9523,5.0136,5.0136,5.0817,5.2097,5.2097,5.2456,4.0577,4.4044,4.7908,5.1222,5.4285,5.6872,5.8328,6.1478,6.487,6.7541,6.9317,7.1167,7.3453,7.424,7.5138,7.6933,7.9238,8.0943,8.1392,8.1878,8.1123,7.846,7.834,7.819,7.7562,7.8489,7.9776,8.1332,8.1033,8.1003,8.1422,8.1033,8.0704,8.0464,7.9806,7.9357,7.9148,7.7377,7.6479,7.6479,7.5407,7.4903,7.4903,7.418,7.3522,7.2864,7.1936,7.0829,6.9602,6.8944,6.7867,6.661,6.5951,6.5233,6.4575,6.3947,6.3677,6.3617,6.3257,6.3108,6.3108,6.3108,6.3108,6.3108,6.3108,6.3108,6.3108,6.3108,6.3108,6.3108,6.3108,6.3108,6.3108,6.3108,6.3108,6.3108,6.3108,6.3108,6.3108,6.3108,6.3108,6.3108,6.3108,6.3108,6.272,6.1613,6.0505,5.9219,5.7633,5.6137,5.4491,5.2725,5.1738,5.0847,4.9949,4.9337,4.8947,4.8947,4.8738,4.8618,4.8618,4.8828,4.9134,4.9561,4.977,5.0428,5.1528,5.1528,5.2007,5.2845,5.1856,5.152,4.4622,4.8215,5.1825,5.4988,5.7575,5.9608,6.0487,6.2692,6.5123,6.7136,6.7387,6.7729,6.9423,7.0094,7.0999,7.3018,7.5751,7.843,8.0764,8.0644,7.9956,7.8998,7.8609,7.819,7.7592,7.828,7.9537,8.1302,8.1482,8.1781,8.2439,8.229,8.1991,8.1512,8.0853,8.0285,7.977,7.8035,7.6928,7.6485,7.5407,7.4903,7.4903,7.442,7.3881,7.3223,7.2535,7.1517,7.0231,6.9363,6.8345,6.7269,6.637,6.5742,6.5263,6.4575,6.4216,6.3917,6.3317,6.3108,6.3108,6.3108,6.3108,6.3108,6.3108,6.3257,6.3407,6.3168,6.3437,6.3707,6.3468,6.3588,6.3767,6.3767,6.3767,6.3707,6.3468,6.3408,6.3377,6.3138,6.3108,6.3108,6.3108,6.3108,6.2748,6.1613,6.0535,5.9249,5.7663,5.6526,5.5359,5.4067,5.2935,5.1983,5.1325,5.069,5.0235,4.9995,4.9995,4.9875,4.9613,5.0085,5.0511,5.0907,5.1385,5.2043,5.2905,5.2905,5.299,5.3111,5.1907,5.1187,4.9974,5.2703,5.4938,5.8679,6.0864,6.222,6.2706,6.3324,6.4285,6.6146,6.4372,6.3078,6.5074,6.5574,6.636,6.8343,7.0748,7.4121,7.9267,7.7921,7.7502,8.0494,7.9208,7.828,7.8849,7.8908,7.9507,8.0853,8.2088,8.3038,8.3718,8.4346,8.4115,8.2896,8.2208,8.1212,7.9829,7.8489,7.7173,7.5886,7.5258,7.4933,7.4903,7.4903,7.451,7.3851,7.3193,7.2176,7.0859,6.9572,6.8675,6.7987,6.664,6.6131,6.6071,6.5323,6.4665,6.4066,6.3437,6.3168,6.3108,6.3108,6.3138,6.3168,6.3168,6.3558,6.3917,6.3377,6.4066,6.4845,6.4216,6.4516,6.4994,6.4994,6.4994,6.4815,6.4186,6.4066,6.3857,6.3287,6.3138,6.3108,6.3108,6.3108,6.2868,6.2181,6.1523,6.0416,5.8414,5.7543,5.6615,5.5354,5.461,5.3922,5.3258,5.2606,5.1977,5.1325,5.1295,5.1026,5.0398,5.1594,5.2306,5.2366,5.3653,5.4261,5.4217,5.4217,5.3802,5.297,5.2234,5.1464,5.2377,5.5792,5.9081,6.0914,6.232,6.3299,6.345,6.3877,6.4057,6.3203,6.1199,5.9507,5.9036,6.1924,6.5109,6.7555,7.3882,7.9357,8.1729,8.2709,8.2798,8.1661,8.1549,8.122,8.0375,8.0734,8.1572,8.285,8.238,8.2739,8.4384,8.4624,8.4325,8.3517,8.2858,8.1908,8.0554,7.8729,7.7173,7.5916,7.5736,7.5377,7.4903,7.4903,7.451,7.3851,7.3193,7.2415,7.1547,7.026,6.9632,6.9365,6.8017,6.7777,6.8046,6.637,6.5951,6.6071,6.4934,6.3887,6.3108,6.3108,6.3378,6.3767,6.3767,6.4246,6.4695,6.4545,6.4755,6.4964,6.4785,6.4874,6.4994,6.4994,6.4994,6.4964,6.4785,6.4725,6.4545,6.3887,6.3407,6.3108,6.3108,6.3108,6.2868,6.2181,6.1523,6.0538,5.9039,5.7812,5.6615,5.5354,5.461,5.3922,5.3258,5.3049,5.2845,5.2695,5.2665,5.2606,5.2426,5.3234,5.3922,5.4431,5.5264,5.5353,5.4628,5.4628,5.393,5.2518,5.1244,5.0549,5.6344,5.9156,6.1692,6.2797,6.3751,6.4002,6.2546,6.2446,6.18,5.8832,5.6477,5.4627,5.3427,5.7259,6.1502,6.4173,7.1258,7.7831,8.1818,8.2769,8.3217,8.3457,8.3854,8.3636,8.2619,8.3098,8.4055,8.5372,8.3995,8.3816,8.5492,8.5581,8.4712,8.2762,8.3026,8.229,8.0375,7.8669,7.6837,7.4987,7.5622,7.5081,7.3638,7.4495,7.4659,7.43,7.3642,7.3133,7.2654,7.1038,7.038,7.026,6.8944,6.8645,6.8824,6.7388,6.6909,6.6849,6.5802,6.4784,6.3947,6.3947,6.4156,6.4455,6.4455,6.4904,6.5383,6.5084,6.5622,6.6191,6.5562,6.5892,6.6251,6.5951,6.5892,6.5802,6.5503,6.5203,6.4725,6.3767,6.3347,6.3108,6.3108,6.3108,6.2988,6.26,6.1972,6.1283,6.0505,5.874,5.7274,5.6555,5.5867,5.5329,5.494,5.4665,5.4396,5.4097,5.4097,5.4097,5.4097,5.47,5.5359,5.6017,5.6675,5.6294,5.478,5.5068,5.3895,5.1404,5.0841,5.0189,6.0688,6.237,6.3475,6.4396,6.4982,6.4505,6.109,6.0211,5.8805,5.421,5.1699,4.9916,4.8617,5.2656,5.7141,6.0186,6.6326,7.3226,8.0507,8.0793,8.1493,8.4753,8.5705,8.5614,8.4398,8.5377,8.648,8.7382,8.5804,8.5357,8.6748,8.645,8.4588,8.1046,8.2054,8.1515,7.9086,7.7842,7.5941,7.351,7.4665,7.3949,7.1682,7.3632,7.4495,7.45,7.4079,7.3881,7.3762,7.1906,7.1188,7.1068,6.9842,6.9393,6.9303,6.8556,6.7898,6.7268,6.652,6.5892,6.5353,6.5084,6.5114,6.5263,6.5263,6.5802,6.6281,6.5682,6.6789,6.7868,6.658,6.7119,6.7838,6.7148,6.6999,6.6819,6.6251,6.5532,6.4635,6.3467,6.3168,6.3108,6.3108,6.3108,6.3108,6.3108,6.251,6.2091,6.2091,5.9847,5.8234,5.8234,5.7543,5.7094,5.7094,5.6611,5.6072,5.5478,5.5448,5.5448,5.5448,5.6102,5.6597,5.6895,5.758,5.6803,5.4514,5.5054,5.3593,5.0354,5.0821,5.0338,6.2847,6.4379,6.5484,6.5208,6.5559,6.4982,6.119,5.9595,5.7437,5.2101,5.0318,4.8987,4.6532,5.0394,5.5525,6.0331,6.5885,7.2,7.9003,8.1576,8.263,8.2216,8.5722,8.6509,8.2374,8.5746,8.765,8.639,8.5438,8.5691,8.7446,8.5146,8.2184,7.8625,7.7718,7.6595,7.5247,7.4479,7.3332,7.1906,7.1704,7.1051,7.0145,7.1725,7.2421,7.2463,7.3472,7.3881,7.3821,7.2924,7.2565,7.2505,7.1697,7.1398,7.1248,7.0021,6.9542,6.9273,6.8077,6.7598,6.7209,6.5532,6.5772,6.664,6.664,6.7508,6.8465,6.8345,6.8555,6.8645,6.7868,6.7838,6.7838,6.7148,6.6999,6.6969,6.6849,6.5862,6.4755,6.4006,6.3467,6.3108,6.3108,6.3108,6.3108,6.3108,6.251,6.2091,6.2091,6.0236,5.8949,5.8949,5.7842,5.7094,5.7094,5.7004,5.6885,5.6765,5.6765,5.6765,5.6765,5.7423,5.7196,5.5974,5.6582,5.5704,5.3132,5.3239,5.2534,5.1097,5.1198,5.1117,6.4731,6.5735,6.6488,6.6237,6.5936,6.4354,5.9332,5.7349,5.4813,4.8661,4.7657,4.7305,4.5397,4.9633,5.4442,5.7658,6.3241,6.9282,7.5333,7.8314,8.0265,8.1323,8.408,8.4844,8.2197,8.4307,8.552,8.468,8.3984,8.4462,8.6296,8.1789,7.8745,7.792,7.5466,7.4214,7.4301,7.3613,7.2184,6.9936,7.0744,7.0063,6.8194,6.9958,7.117,7.1891,7.1467,7.1879,7.273,7.1015,7.0894,7.1693,6.9962,6.977,7.0304,6.9269,6.8057,6.6988,6.7013,6.6982,6.6674,6.4749,6.5651,6.7598,6.7926,6.8495,6.9004,6.9004,6.9243,6.9363,6.8675,6.8495,6.8377,6.7688,6.7238,6.6879,6.655,6.5682,6.4785,6.4126,6.3498,6.3108,6.3108,6.3108,6.3108,6.3108,6.2838,6.26,6.26,6.1463,6.0386,5.9697,5.874,5.8141,5.8141,5.7812,5.7782,5.8112,5.7812,5.7932,5.862,5.813,5.7616,5.7197,5.6614,5.5315,5.3218,5.3218,5.2563,5.1331,5.1574,5.1699,6.6287,6.699,6.7442,6.7216,6.6212,6.3701,5.76,5.5164,5.2427,4.61,4.5522,4.5824,4.479,4.8597,5.2464,5.4229,5.9136,6.476,7.0618,7.3868,7.6762,7.9641,8.1927,8.2731,8.1196,8.2393,8.3078,8.2576,8.1964,8.2163,8.3401,7.8583,7.597,7.6445,7.3734,7.2467,7.2897,7.2368,7.0725,6.8011,6.9455,6.8786,6.6312,6.817,6.9601,7.0529,6.9374,6.9783,7.1076,6.8966,6.9056,7.0263,6.8159,6.7965,6.8758,6.8139,6.6574,6.4878,6.5635,6.5973,6.5788,6.4173,6.5555,6.7929,6.8612,6.8909,6.9092,6.9507,6.9991,7.0201,6.9423,6.9213,6.9004,6.8197,6.7508,6.6819,6.6161,6.5562,6.4964,6.4156,6.3617,6.3257,6.3138,6.3108,6.3108,6.3108,6.3108,6.3108,6.3108,6.251,6.1702,6.0625,5.9937,5.9548,5.9548,5.9042,5.8952,5.9518,5.9012,5.9056,5.9735,5.8492,5.7652,5.7456,5.6154,5.4746,5.327,5.327,5.2689,5.1649,5.2076,5.2277,6.7342,6.8422,6.8929,6.797,6.6488,6.3701,5.76,5.4587,5.159,4.6476,4.5497,4.5372,4.4715,4.5897,4.7991,5.115,5.3418,5.7407,6.4961,6.9866,7.3278,7.4852,7.9914,8.1561,7.713,8.0703,8.2392,8.0219,7.9547,7.8818,7.7885,7.7262,7.5329,7.182,7.1418,7.0286,6.8427,6.8307,6.7638,6.6311,6.5993,6.5437,6.4771,6.6298,6.6765,6.6441,6.817,6.9,6.915,6.8907,6.8917,6.9067,6.8824,6.841,6.8004,6.7949,6.735,6.6513,6.5526,6.5506,6.5822,6.5162,6.5953,6.7309,6.7974,6.8615,6.9452,7.1149,7.17,7.1427,7.0201,6.9901,6.9604,6.8317,6.7508,6.6819,6.6161,6.5951,6.5533,6.4246,6.3947,6.3737,6.3197,6.3108,6.3108,6.3108,6.3108,6.3108,6.3108,6.251,6.2061,6.1912,6.1313,6.0924,6.0924,6.0837,6.0837,6.0896,6.0837,6.0189,5.8696,5.8492,5.7039,5.4092,5.3901,5.3283,5.2237,5.2237,5.2412,5.2744,5.2795,5.282,6.7643,6.9351,7.0079,6.8648,6.6036,6.2395,5.6947,5.3231,4.969,4.5372,4.4744,4.4865,4.464,4.5271,4.6476,4.846,4.959,5.2,5.7123,6.0877,6.4776,6.941,7.3198,7.5627,7.605,7.7837,7.8557,7.762,7.701,7.6344,7.5502,7.5143,7.3775,7.118,7.1083,7.0179,6.8321,6.797,6.7417,6.6614,6.6061,6.5333,6.4538,6.5091,6.5526,6.5765,6.5398,6.5948,6.6945,6.5713,6.5948,6.6906,6.5713,6.5617,6.6135,6.6097,6.4987,6.3526,6.3852,6.4304,6.4482,6.276,6.3575,6.5726,6.839,6.9373,6.9991,7.1945,7.2505,7.2295,7.1368,7.0592,6.9784,6.8824,6.8405,6.8016,6.7328,6.6879,6.6311,6.5383,6.4545,6.3917,6.3677,6.3347,6.3108,6.3108,6.3108,6.3108,6.3108,6.2868,6.2718,6.2718,6.1732,6.1076,6.1076,6.1076,6.0801,6.0179,6.0151,5.9534,5.825,5.7169,5.6028,5.4701,5.3694,5.297,5.2569,5.2569,5.2669,5.2895,5.2895,5.2895,6.699,6.9325,7.0531,6.92,6.5667,6.1316,5.6495,5.2377,4.8485,4.4593,4.4367,4.479,4.4614,4.5221,4.5874,4.6296,4.7224,4.8962,5.2026,5.4928,5.8956,6.4806,6.7361,7.0124,7.4019,7.5426,7.6029,7.5829,7.5603,7.5101,7.4222,7.3971,7.3067,7.1384,7.1158,7.038,6.8829,6.8145,6.7518,6.7009,6.6388,6.5609,6.4748,6.4748,6.4881,6.509,6.3702,6.3777,6.479,6.3382,6.3625,6.4751,6.3367,6.3411,6.4351,6.4312,6.3157,6.1767,6.2587,6.3207,6.3324,6.1399,6.2089,6.427,6.7663,6.9007,6.9749,7.1753,7.2428,7.2445,7.1757,7.0799,6.9903,6.9393,6.9153,6.8824,6.8137,6.7628,6.7029,6.6161,6.5233,6.4485,6.4066,6.3647,6.3317,6.3138,6.3108,6.3108,6.3108,6.3108,6.2904,6.238,6.1493,6.0931,6.0931,6.0931,6.0384,5.9157,5.9064,5.85,5.7277,5.6076,5.5181,5.4675,5.3495,5.2895,5.2895,5.2895,5.2895,5.2895,5.3046,5.3256,6.5233,6.817,7.0175,6.9531,6.5642,6.0839,5.6394,5.2377,4.8485,4.4593,4.4694,4.5296,4.469,4.5547,4.5949,4.479,4.6476,4.8711,5.0971,5.4135,5.7675,6.1592,6.3567,6.6104,6.9999,7.3843,7.5829,7.5227,7.5753,7.5375,7.3694,7.4121,7.3644,7.1937,7.1359,7.0556,6.9406,6.8346,6.7518,6.7009,6.6388,6.5835,6.5283,6.5283,6.4748,6.3717,6.3676,6.335,6.2822,6.2822,6.2822,6.2822,6.2822,6.2822,6.2822,6.2822,6.2822,6.2681,6.2169,6.2345,6.2722,6.2169,6.237,6.3179,6.524,6.686,6.8428,7.0378,7.142,7.1757,7.1068,7.044,7.0023,6.9993,6.9482,6.8824,6.8137,6.7987,6.7598,6.6251,6.6011,6.5562,6.4216,6.4006,6.3767,6.3197,6.3108,6.3108,6.3108,6.3108,6.2438,6.072,6.051,6.051,6.051,6.051,5.9782,5.8103,5.8009,5.7245,5.5518,5.5419,5.4608,5.2964,5.2929,5.2895,5.2895,5.2895,5.2895,5.2895,5.3457,5.4009,5.8554,6.1366,6.2973,6.0914,5.8353,5.5465,5.2176,4.9314,4.6778,4.4769,4.4614,4.497,4.5171,4.5497,4.6125,4.728,4.7707,4.8435,4.9916,5.3632,5.765,6.1542,6.8145,7.2913,7.4144,7.5375,7.6029,7.5804,7.5251,7.4699,7.4197,7.3594,7.2841,7.1937,7.1359,7.0556,6.9406,6.8346,6.7518,6.7009,6.6388,6.5835,6.5283,6.5283,6.4906,6.4245,6.3852,6.3576,6.34,6.2957,6.2781,6.2781,6.2781,6.2781,6.2781,6.2781,6.2781,6.2706,6.2195,6.237,6.2706,6.2195,6.237,6.2904,6.3544,6.6024,6.9319,7.2689,7.344,7.3103,7.2445,7.1787,7.1158,7.0709,7.044,6.9991,6.8914,6.7698,6.6455,6.5078,6.3488,6.2551,6.3372,6.213,6.1351,6.2385,6.1495,6.0574,6.0212,6.0155,5.994,5.9406,5.9343,5.9207,5.8818,5.8762,5.8072,5.631,5.6239,5.5479,5.3776,5.3674,5.3427,5.2929,5.2895,5.2895,5.2895,5.3281,5.3658,5.4094,5.4245,5.4421,5.3507,5.6671,5.8353,5.6646,5.4486,5.2226,5.0092,4.7732,4.5723,4.479,4.4589,4.4765,4.5372,4.5497,4.5954,4.7336,4.7581,4.8159,4.969,5.3356,5.765,6.237,6.9446,7.3994,7.4195,7.5126,7.5653,7.5452,7.4799,7.4222,7.3795,7.3318,7.2791,7.2238,7.1485,7.0757,7.0079,6.8547,6.7618,6.7267,6.6488,6.5936,6.5609,6.5609,6.5308,6.4756,6.4429,6.4053,0.0,6.3299,6.3023,6.2781,6.2781,6.2781,6.2781,6.2781,6.2781,6.2731,6.2446,6.2505,6.2731,6.2421,6.2546,6.3108,6.4617,6.6894,6.9681,7.3447,7.421,7.3762,7.3073,7.2385,7.1787,7.1368,7.1068,7.062,6.9602,6.775,6.5989,6.489,6.2652,6.1259,6.2143,6.1003,6.0245,6.1147,6.032,5.9466,5.9146,5.9118,5.8859,5.8237,5.8172,5.7773,5.6797,5.7087,5.6513,5.4567,5.4467,5.3987,5.2929,5.2895,5.2995,5.3196,5.3196,5.3331,5.3557,5.4084,5.4511,5.4924,5.4924,5.5024,0.0,5.3281,5.5365,5.5239,5.303,5.0594,4.949,4.733,0.0,4.4765,4.4665,4.4844,4.5397,4.5497,4.5522,4.5648,4.6577,4.8052,5.0343,5.3858,5.8403,6.4346,6.8391,7.0853,7.1158,7.3694,7.5027,7.4523,7.4448,7.3971,7.2869,7.3293,7.3293,7.2693,7.1661,7.1058,7.1033,6.8874,6.7769,6.7719,6.6639,6.6112,6.6112,6.6112,6.5835,6.5333,6.5308,6.4731,6.3802,6.3726,6.3375,6.2857,6.2807,6.2781,6.2781,6.2781,6.2781,6.2781,6.2781,6.2781,6.2781,6.2781,6.2781,6.3544,6.7483,6.8775,6.9597,7.3034,7.3971,7.3791,7.3103,7.2445,7.1936,7.1846,7.124,7.0515,6.995,6.7783,6.5736,6.5077,6.2995,6.1197,6.0688,6.045,6.0191,5.9737,5.9501,5.938,5.938,5.938,5.875,5.7217,5.7072,5.6435,5.4839,5.5598,5.5302,5.3124,5.302,5.302,5.302,5.302,5.3281,5.3758,5.3808,5.4135,5.4773,5.5265,5.5541,5.5566,5.5566,5.5817,4.2685,0.0,4.7029,4.5803,4.618,4.6652,0.0,4.5949,4.5949,4.5397,4.5271,4.5321,4.5472,4.5497,4.5899,4.7129,4.8284,4.9941,5.2553,5.9458,6.571,6.9677,7.2888,7.4119,7.2489,7.4473,7.5628,7.5027,7.46,7.4297,7.4046,7.3343,7.2866,7.2693,7.1661,7.0882,7.0501,6.8698,6.7593,6.7166,6.6463,6.6112,6.6112,6.6112,6.6036,6.5886,6.5484,6.5157,6.4856,6.4028,6.3626,6.345,6.2957,6.2781,6.2781,6.2781,6.2781,6.2781,6.2781,6.2781,6.2781,6.2781,6.2781,6.3286,6.5791,6.7637,6.9681,7.3565,7.4663,7.436,7.3223,7.2804,7.2415,7.1368,6.9932,6.858,6.7941,6.5089,6.2426,6.1825,6.0129,5.9154,6.0385,5.9052,5.8429,6.012,5.8442,5.6999,5.6999,5.6999,5.6821,5.6452,5.6787,5.6681,5.5903,5.534,5.4778,5.422,5.422,5.422,5.422,5.422,5.427,5.4396,5.4787,5.5465,5.6433,5.6533,5.6872,5.7298,5.7298,5.7148,3.9747,4.158,4.3291,4.2439,4.3291,4.4317,4.4267,4.4719,4.5146,4.5095,4.4895,4.4869,4.5397,4.5497,4.6024,4.7631,4.9515,5.2251,5.6545,6.1943,6.6965,7.1033,7.2866,7.3795,7.3822,7.4523,7.4799,7.4498,7.3971,7.3644,7.3644,7.3067,7.2693,7.2693,7.1661,7.0932,7.0677,6.8999,6.802,6.7719,6.689,6.6513,6.6488,6.6237,6.6112,6.6086,6.5785,6.5534,6.5233,6.4379,6.3902,6.3626,6.3048,6.2781,6.2781,6.2781,6.2781,6.2781,6.2781,6.2781,6.2781,6.2781,6.2781,6.3164,6.5201,6.6585,6.8132,7.1278,7.2805,7.3117,7.1474,7.0822,7.0331,6.9355,6.8101,6.7036,6.6358,6.3753,6.141,6.1083,5.9322,5.8214,5.9179,5.8271,5.786,5.9164,5.7991,5.6997,5.6997,5.6997,5.6997,5.6997,5.7248,5.7323,5.7022,5.6445,5.5702,5.4672,5.4848,5.4974,5.4974,5.5189,5.544,5.5691,5.6244,5.6821,5.7387,5.7637,5.7813,5.7901,5.8152,5.7976,3.9195,4.0753,4.2361,4.2135,4.2537,4.314,4.3689,4.379,4.394,4.4364,4.4192,4.4267,4.5397,4.5748,4.6426,4.8134,5.1197,5.5365,6.114,6.3676,6.6513,7.0706,7.151,7.2539,7.46,7.4171,7.372,7.372,7.3192,7.2866,7.2866,7.2743,7.2693,7.2693,7.1661,7.1083,7.1083,6.9451,6.8572,6.8497,6.7467,6.694,6.684,6.6338,6.6112,6.6112,6.6112,6.5835,6.5358,6.4773,6.4245,6.3751,6.3099,6.2781,6.2781,6.2781,6.2781,6.2781,6.2781,6.2781,6.2781,6.2781,6.2781,6.3123,6.483,6.5529,6.6117,6.756,6.9635,7.1032,6.9226,6.8325,6.7746,6.7111,6.6395,6.5619,6.5024,6.3024,6.1311,6.1206,5.952,5.8152,5.8152,5.8077,5.8052,5.8127,5.8001,5.7926,5.8001,5.8027,5.8027,5.8027,5.8102,5.8102,5.8027,5.8027,5.7173,5.5225,5.5552,5.5767,5.5767,5.6219,5.6721,5.7236,5.7851,5.8152,5.8152,5.8704,5.8679,5.8152,5.8629,5.8554,3.9772,4.1882,4.3212,4.1779,4.2233,4.314,4.3689,4.379,4.3815,4.3915,4.4242,4.4815,4.5974,4.6928,4.8234,5.0419,5.5476,6.0602,6.4756,6.8396,7.0932,7.1686,7.3443,7.4173,7.317,7.382,7.4297,7.4297,7.377,7.3468,7.3468,7.2991,7.2693,7.2693,7.1661,7.1083,7.1083,6.9451,6.8396,6.7919,6.7292,6.6714,6.6237,6.6162,6.6112,6.6112,6.6112,6.6061,6.5911,6.4923,6.4471,6.4295,6.3224,6.2781,6.2781,6.2781,6.2781,6.2781,6.2781,6.2781,6.2781,6.2781,6.2781,6.2863,6.3164,6.4458,6.5516,6.4123,6.6429,6.9151,6.8262,6.7994,6.7709,6.7065,6.5579,6.4153,6.3606,6.19,6.035,5.9895,5.9513,5.9257,5.9257,5.888,5.8755,5.9182,5.8478,5.8077,5.8529,5.8604,5.8604,5.8604,5.8981,5.9081,5.8629,5.8604,5.8252,5.7449,5.7474,5.7524,5.7524,5.76,5.7901,5.8415,5.8981,5.9257,5.9257,5.9809,5.9784,5.9257,5.9332,5.9106,3.8868,4.0551,4.2208,4.2908,4.4618,4.613,4.6024,4.6024,4.5949,4.5618,4.5995,4.6652,4.7481,4.949,5.2553,5.7223,6.0602,6.3567,6.6212,6.7844,6.9325,7.0832,7.1661,7.2342,7.3117,7.3393,7.3446,7.3446,7.3268,7.3117,7.3117,7.2818,7.259,7.2288,7.151,7.0932,7.0677,6.9602,6.8904,6.8673,6.812,6.7719,6.7442,6.684,6.6589,6.6564,6.6237,6.6112,6.6036,6.4931,6.4496,6.4396,6.3249,6.2781,6.2781,6.2781,6.2781,6.2781,6.2781,6.2781,6.2781,6.2781,6.2781,6.2781,6.2781,6.3423,6.4002,6.3042,6.4949,6.6891,6.5527,6.5135,6.5004,6.4388,6.3545,6.2776,6.2251,6.1407,6.0713,6.0462,6.0412,6.0412,6.0412,6.0211,6.0136,6.0362,5.9985,5.9759,6.001,6.006,6.006,6.006,6.0261,6.0311,6.006,6.006,5.9684,5.8805,5.8755,5.8905,5.9182,5.9508,5.9633,5.9583,6.0136,6.0412,6.0412,6.0663,6.0663,6.0387,6.0085,5.9809,3.8016,3.9253,4.103,4.3187,4.5124,4.6935,4.8372,4.7833,4.7278,4.8265,4.888,4.9389,4.9841,5.2854,5.7123,6.2772,6.4881,6.6456,6.8095,6.817,6.8848,7.0983,7.0757,7.1263,7.3569,7.3142,7.2743,7.2916,7.2768,7.2693,7.2693,7.2693,7.2539,7.2113,7.1435,7.0882,7.0501,6.9777,6.9331,6.9205,6.8779,6.8503,6.8396,6.7417,6.7009,6.6984,6.6363,6.6112,6.6036,6.4931,6.4572,6.4597,6.345,6.3023,6.2982,6.2832,6.2781,6.2781,6.2781,6.2781,6.2781,6.2781,6.2781,6.2781,6.2781,6.2781,6.2781,6.2781,6.3922,6.4751,6.3204,6.2781,6.2681,6.2295,6.2195,6.2044,6.1492,6.1366,6.1341,6.1215,6.119,6.119,6.119,6.119,6.119,6.119,6.119,6.119,6.119,6.119,6.119,6.119,6.119,6.119,6.119,6.119,6.0864,6.0136,5.996,6.0085,6.0512,6.0939,6.0964,6.0537,6.109,6.1316,6.119,6.1316,6.1316,6.1165,6.0738,6.0512,3.8104,3.9404,4.0684,4.1076,4.048,4.1765,4.9324,4.7575,4.592,5.1346,5.2929,5.3306,5.3331,5.6959,6.0753,6.3274,6.721,7.0476,7.2087,7.3192,7.3895,7.4096,7.3619,7.3569,7.4272,7.3368,7.2941,7.3494,7.3042,7.2693,7.2693,7.2693,7.2668,7.2618,7.1636,7.1058,7.1033,6.9933,6.9155,6.8673,6.8648,6.8346,6.7844,6.7241,6.7009,6.6984,6.6363,6.6112,6.6036,6.4931,6.4823,6.5132,6.4053,6.3626,6.3576,6.3023,6.2781,6.2781,6.2781,6.2781,6.2781,6.2781,6.2781,6.2781,6.2781,6.2781,6.2781,6.2781,6.2904,6.2985,6.2822,6.2781,6.2781,6.2731,6.2731,6.2621,6.2069,6.1943,6.1793,6.1291,6.119,6.119,6.119,6.119,6.119,6.119,6.119,6.119,6.119,6.119,6.119,6.119,6.119,6.119,6.119,6.119,6.1366,6.1793,6.1341,6.109,6.1115,6.1205,6.1165,6.1115,6.1667,6.1692,6.119,6.1692,6.1692,6.119,6.114,6.1115,3.6685,3.8807,4.0719,4.0121,4.1371,4.422,5.0011,5.0163,5.0548,5.549,5.7223,5.7926,5.8278,6.114,6.4053,6.5936,6.9677,7.2665,7.3644,7.4146,7.4423,7.4423,7.3619,7.3142,7.3295,7.2944,7.2768,7.3042,7.2841,7.2693,7.2693,7.2693,7.2367,7.1736,7.1309,7.0757,7.0033,6.9607,6.913,6.8578,6.8929,6.8804,6.8296,6.7744,6.7292,6.6984,6.6363,6.5911,6.5534,6.4823,6.4622,6.4773,6.4371,6.3977,6.3676,6.345,6.3149,6.2781,6.2781,6.2781,6.2781,6.2781,6.2781,6.2781,6.2781,6.2781,6.2781,6.2781,6.2781,6.2781,6.2781,6.2781,6.2781,6.2781,6.2781,6.2731,6.2531,6.2521,6.2446,6.2245,6.2195,6.2195,6.2195,6.2195,6.2195,6.2195,6.2195,6.2195,6.2195,6.2195,6.2195,6.2195,6.2195,6.2195,6.2195,6.2195,6.2295,6.2455,6.1994,6.1692,6.1692,6.2019,6.2044,6.1692,6.2245,6.2421,6.2195,6.2421,6.2395,6.2195,6.1843,6.1692,3.5093,3.693,3.883,3.8849,4.112,4.4935,5.0986,5.2428,5.4105,5.9648,6.1115,6.1542,6.2119,6.4053,6.6086,6.7794,7.1334,7.4046,7.4598,7.4523,7.4347,7.4171,7.3318,7.2693,7.2693,7.2693,7.2693,7.2693,7.2693,7.2693,7.2693,7.2517,7.2113,7.1359,7.1008,7.0455,6.9702,6.9306,6.8954,6.8578,6.8779,6.8678,6.8346,6.797,6.7493,6.6984,6.6363,6.581,6.5258,6.4748,6.4421,6.427,6.4446,6.4195,6.3701,6.3701,6.3324,6.2807,6.3048,6.2932,6.2807,6.3007,6.2973,6.2781,6.2781,6.2781,6.2781,6.2781,6.2781,6.2781,6.2781,6.2781,6.2781,6.2781,6.2781,6.2781,6.2781,6.2781,6.2781,6.2781,6.2781,6.2781,6.2781,6.2781,6.2781,6.2781,6.2781,6.2781,6.2781,6.2781,6.2781,6.2781,6.2781,6.2781,6.2781,6.2781,6.2781,6.2781,6.2471,6.227,6.227,6.2581,6.2647,6.227,6.2606,6.2781,6.2781,6.2781,6.2781,6.2781,6.2446,6.227,3.3452,3.3654,3.4826,3.7148,3.8936,4.2716,5.2495,5.3951,5.5532,6.3636,6.4479,6.3902,6.4446,6.5409,6.6689,6.8327,7.1887,7.4598,7.5102,7.47,7.4197,7.3669,7.3092,7.2693,7.2693,7.2693,7.2693,7.2693,7.2693,7.2693,7.2668,7.2213,7.1912,7.1887,7.0832,7.03,7.03,6.9175,6.8578,6.8597,6.8045,6.7794,6.7794,6.7794,6.7493,6.6984,6.6363,6.5785,6.5233,6.4722,6.4195,6.3751,6.432,6.4195,6.3701,6.3701,6.3324,6.2898,6.3475,6.3299,6.2882,6.35,6.3299,6.2781,6.2781,6.2781,6.2781,6.2781,6.2781,6.2781,6.2781,6.2781,6.2781,6.2781,6.2781,6.2781,6.2781,6.2781,6.2781,6.2781,6.2781,6.2781,6.2781,6.2781,6.2781,6.2781,6.2781,6.2781,6.2781,6.2781,6.2781,6.2781,6.2781,6.2781,6.2781,6.2781,6.2781,6.2781,6.2781,6.2781,6.2781,6.2781,6.2781,6.2781,6.2781,6.2781,6.2781,6.2781,6.2781,6.2781,6.2781,6.2781,3.2446,3.5649,3.9148,3.8645,4.5025,5.2296,5.5617,5.6172,5.8148,6.601,6.7693,6.7442,6.6413,6.807,6.9526,6.9205,7.1811,7.4021,7.4573,7.4197,7.377,7.3619,7.3092,7.2693,7.2693,7.2693,7.2693,7.2693,7.2693,7.2565,7.2163,7.1987,7.156,7.0828,7.0476,6.9948,6.9125,6.8798,6.8246,6.7467,6.7693,6.7593,6.7216,6.7216,6.6915,6.6338,6.5785,6.5233,6.4722,6.417,6.3827,6.3776,6.468,6.4479,6.3726,6.4103,6.3626,6.2807,6.2982,6.2932,6.2807,6.3023,6.2973,6.2781,6.2781,6.2781,6.2781,6.2781,6.2781,6.2781,6.2781,6.2781,6.2781,6.2781,6.2781,6.2781,6.2781,6.2781,6.2781,6.2781,6.2781,6.2781,6.2781,6.2781,6.2781,6.2781,6.2781,6.2781,6.2781,6.2781,6.2781,6.2781,6.2781,6.2781,6.2781,6.2781,6.2781,6.2781,6.2781,6.2781,6.2781,6.2781,6.2781,6.2781,6.2781,6.2781,6.2781,6.2781,6.2781,6.2781,6.2781,6.2781,3.382,3.758,4.1597,4.3397,5.0092,5.7065,6.0302,6.1538,6.3464,6.8845,7.0029,6.9853,6.9074,7.028,7.1259,7.0786,7.2539,7.3971,7.4071,7.3795,7.3519,7.3268,7.2941,7.2593,7.2414,7.2542,7.2593,7.2414,7.2568,7.2489,7.1937,7.1711,7.1184,7.0325,6.9828,6.93,6.8622,6.8196,6.7643,6.7009,6.7091,6.6965,6.6639,6.6865,6.6664,6.6061,6.5308,6.4655,6.417,6.3576,6.335,6.345,6.453,6.4454,6.3776,6.453,6.4228,6.35,6.3726,6.3525,6.3199,6.3425,6.3174,6.2781,6.2781,6.2781,6.2781,6.2781,6.2781,6.2781,6.2781,6.2781,6.2781,6.2781,6.2781,6.2781,6.2781,6.2781,6.2781,6.2781,6.2781,6.2781,6.2781,6.2781,6.2781,6.2781,6.2982,6.3174,6.3174,6.3174,6.3174,6.3174,6.2932,6.2781,6.2781,6.2781,6.2781,6.2781,6.2781,6.2781,6.2781,6.2781,6.2781,6.2781,6.2781,6.2781,6.2781,6.2781,6.2781,6.2781,6.2781,6.2781,3.6687,3.9537,4.3049,5.0044,5.4641,5.9162,6.5785,6.8522,7.0058,7.161,7.1636,7.1535,7.2037,7.2213,7.2414,7.2768,7.3795,7.4272,7.3669,7.3594,7.3368,7.2743,7.2643,7.2464,7.2037,7.2339,7.2389,7.1937,7.2339,7.2339,7.1786,7.1284,7.0778,7.0175,6.915,6.8528,6.8472,6.7467,6.694,6.689,6.6363,6.6112,6.6137,6.6664,6.6564,6.5911,6.4906,6.417,6.3576,6.3048,6.2781,6.2907,6.4028,6.4195,6.3827,6.4881,6.4931,6.4572,6.4982,6.4505,6.3751,6.4178,6.3626,6.2781,6.2781,6.2781,6.2781,6.2781,6.2781,6.2781,6.2781,6.2781,6.2781,6.2781,6.2781,6.2781,6.2781,6.2781,6.2781,6.2781,6.2781,6.2781,6.2781,6.2781,6.2807,6.2857,6.34,6.3751,6.3751,6.3726,6.3701,6.3701,6.3174,6.2781,6.2781,6.2781,6.2807,6.2857,6.2857,6.2857,6.2857,6.2857,6.2832,6.2781,6.2832,6.2832,6.2781,6.2832,6.2857,6.2857,6.2907,6.2932,3.771,4.2113,4.7288,5.375,6.0719,6.6598,6.9029,7.0506,7.1485,7.1836,7.2866,7.3745,7.3845,7.4573,7.4925,7.4171,7.4575,7.4675,7.372,7.3594,7.3368,7.2743,7.2339,7.2213,7.2467,7.1887,7.156,7.1887,7.161,7.1209,7.0702,7.0551,6.9978,6.8999,6.8748,6.8196,6.7342,6.7134,6.6739,6.6287,6.6162,6.6112,6.6112,6.6237,6.576,6.4848,6.4622,6.3927,6.2957,6.2832,6.2781,6.2907,6.4028,6.4195,6.3827,6.4881,6.4931,6.4471,6.4128,6.3877,6.3626,6.3299,6.3023,6.2781,6.2781,6.2781,6.2781,6.2781,6.2781,6.2781,6.2781,6.2781,6.2781,6.2781,6.2781,6.2781,6.2781,6.2781,6.2781,6.2781,6.2781,6.2781,6.2781,6.2781,6.2932,6.345,6.3952,6.4346,6.4346,6.3952,6.3701,6.3701,6.3174,6.2781,6.2781,6.2781,6.3023,6.3475,6.35,6.35,6.35,6.35,6.3299,6.2807,6.3274,6.3274,6.2781,6.3299,6.35,6.3525,6.3927,6.4103,4.0769,4.5325,5.0439,5.9308,6.5277,6.93,7.0405,7.1309,7.2062,7.2615,7.3619,7.4322,7.4071,7.4925,7.5301,7.4197,7.4272,7.4146,7.3293,7.2941,7.2665,7.2364,7.1836,7.151,7.1535,7.1259,7.1083,7.1108,7.1108,7.0903,7.035,7.0003,6.9476,6.8648,6.812,6.7568,6.7034,6.6689,6.6413,6.6112,6.6112,6.6112,6.6112,6.5835,6.5258,6.4496,6.4245,6.3626,6.2781,6.2781,6.2781,6.2907,6.4028,6.4346,6.4153,6.4982,6.5107,6.4823,6.4295,6.3902,6.3651,6.335,6.3048,6.2781,6.2781,6.2781,6.2781,6.2781,6.2781,6.2781,6.2781,6.2781,6.2781,6.2781,6.2781,6.2781,6.2781,6.2781,6.2898,6.3199,6.3249,6.3324,6.3576,6.3601,6.3726,6.4028,6.4572,6.4856,6.4856,6.463,6.4454,6.4454,6.3726,6.3249,6.3249,6.3249,6.3375,6.3676,6.3927,6.4053,6.4053,6.4329,6.4078,6.3249,6.3776,6.3802,6.3249,6.3802,6.3927,6.3701,6.427,6.4496,4.2845,4.8035,5.3653,6.4328,6.8296,6.9853,7.0857,7.151,7.2188,7.3217,7.3895,7.4171,7.3795,7.4473,7.4725,7.377,7.3669,7.3468,7.269,7.2288,7.1987,7.1786,7.1284,7.0853,7.0476,7.0656,7.0606,7.02,7.0455,7.0405,6.9923,6.9401,6.8854,6.8346,6.7442,6.6959,6.684,6.6363,6.6112,6.6112,6.6112,6.6061,6.5936,6.5409,6.4949,6.4471,6.3927,6.3375,6.2781,6.2781,6.2781,6.2907,6.4028,6.4496,6.4572,6.5082,6.5283,6.5208,6.4597,6.4053,6.3676,6.3576,6.3224,6.2781,6.2781,6.2781,6.2781,6.2781,6.2781,6.2781,6.2781,6.2781,6.2781,6.2781,6.2857,6.2907,6.2807,6.2857,6.3124,6.3601,6.3751,6.3952,6.4421,6.4597,6.4647,6.4647,6.5082,6.5434,6.5434,6.5358,6.5283,6.5283,6.4329,6.3726,6.3827,6.3751,6.3776,6.3952,6.4379,6.4647,6.4647,6.5132,6.4982,6.3977,6.4379,6.4396,6.3827,6.4396,6.4379,6.3977,6.4547,6.4798,3.9223,4.8509,5.8564,6.5325,6.8572,7.035,7.0932,7.151,7.2087,7.2668,7.3293,7.382,7.4222,7.4423,7.4322,7.3694,7.3996,7.377,7.2238,7.2364,7.2263,7.1309,7.0752,7.0577,7.0979,7.0179,6.9582,6.9506,6.9175,6.8698,6.8145,6.807,6.7769,6.7216,6.7041,6.6739,6.6237,6.6137,6.6112,6.6112,6.6112,6.586,6.5383,6.4873,6.4572,6.4471,6.3927,6.3375,6.2781,6.2781,6.2781,6.2907,6.4028,6.4496,6.4572,6.5082,6.5283,6.5157,6.4128,6.3751,6.3601,6.3099,6.2857,6.2781,6.2781,6.2781,6.2781,6.2781,6.2781,6.2781,6.2781,6.2781,6.2781,6.2781,6.3199,6.345,6.2907,6.3224,6.3601,6.3676,6.4094,6.4421,6.4496,6.4898,6.5183,6.5183,6.566,6.6011,6.6011,6.5584,6.5283,6.5283,6.4329,6.3877,6.4371,6.3952,6.4078,6.5032,6.5132,6.5183,6.5183,6.571,6.571,6.5082,6.5157,6.4906,6.4396,6.4906,6.5157,6.5082,6.5634,6.5886,4.3359,5.2311,6.0614,6.6108,6.8893,7.0376,7.0602,7.1535,7.2339,7.2288,7.2464,7.2816,7.3368,7.3745,7.377,7.3192,7.3042,7.274,7.2012,7.1585,7.1158,7.0727,7.0129,6.9777,6.9702,6.9275,6.8804,6.8547,6.8296,6.8045,6.7819,6.7518,6.7216,6.7034,6.6664,6.6363,6.6112,6.6112,6.6112,6.6112,6.581,6.5534,6.5258,6.4429,6.4028,6.4002,6.345,6.3073,6.2781,6.2781,6.2781,6.2857,6.3726,6.4028,6.4145,6.463,6.4873,6.4773,6.3952,6.3701,6.3601,6.3023,6.2781,6.2781,6.2781,6.2781,6.2781,6.2781,6.2781,6.2781,6.2781,6.2781,6.2898,6.3224,6.35,6.3701,6.3726,6.3952,6.4228,6.453,6.5032,6.5383,6.5383,6.5584,6.576,6.576,6.5961,6.6112,6.6112,6.5886,6.576,6.576,6.5057,6.468,6.4906,6.4731,6.4781,6.5258,6.5584,6.576,6.576,6.5986,6.5986,6.576,6.576,6.5484,6.4974,6.5484,6.5584,6.5308,6.586,6.6112,4.5898,5.2923,5.8793,6.4496,6.7467,6.927,7.0124,7.1209,7.2113,7.2113,7.1887,7.1861,7.2414,7.2866,7.2966,7.2414,7.2087,7.1761,7.1334,7.0681,7.0149,6.9722,6.9401,6.8979,6.8472,6.8422,6.8196,6.7643,6.7593,6.7518,6.7392,6.699,6.6764,6.6764,6.6338,6.6112,6.6112,6.6112,6.6112,6.6112,6.5559,6.5208,6.5057,6.4128,6.3626,6.345,6.3023,6.2781,6.2781,6.2781,6.2781,6.2857,6.3475,6.3701,6.3726,6.4128,6.432,6.4245,6.3651,6.3475,6.34,6.2973,6.2781,6.2781,6.2781,6.2781,6.2781,6.2781,6.2882,6.3048,6.3048,6.3149,6.335,6.3776,6.4002,6.4203,6.4647,6.4722,6.4873,6.5383,6.5835,6.6112,6.6112,6.6112,6.6112,6.6112,6.6112,6.6112,6.6112,6.6112,6.6112,6.6112,6.5609,6.5358,6.5484,6.5383,6.5358,6.5484,6.5886,6.6112,6.6112,6.6112,6.6112,6.6112,6.6112,6.5911,6.5509,6.5911,6.5886,6.5509,6.5911,6.6112,4.2341,4.6563,5.1441,5.8835,6.3149,6.6363,6.9597,7.0376,7.0832,7.2364,7.1861,7.1309,7.1836,7.1987,7.1811,7.1259,7.1585,7.1359,6.9757,6.9978,6.9722,6.812,6.8371,6.8447,6.7894,6.7844,6.7618,6.7066,6.7059,6.6764,6.6237,6.6162,6.6162,6.6162,6.6137,6.6112,6.6112,6.6112,6.6112,6.6112,6.5559,6.5007,6.4521,6.3952,6.34,6.2832,6.2807,6.2781,6.2781,6.2781,6.2781,6.2857,6.3475,6.3701,6.3701,6.3726,6.3726,6.3651,6.3073,6.2832,6.2832,6.2807,6.2781,6.2781,6.2781,6.2781,6.2781,6.2781,6.3224,6.3651,6.3651,6.4002,6.4421,6.4446,6.4873,6.5208,6.5233,6.5258,6.5409,6.5961,6.6086,6.6112,6.6112,6.6112,6.6112,6.6112,6.6112,6.6112,6.6112,6.6112,6.6112,6.6112,6.5609,6.5509,6.6036,6.5584,6.5509,6.6036,6.6086,6.6112,6.6112,6.6112,6.6112,6.6112,6.6112,6.6086,6.6061,6.6086,6.6086,6.6061,6.6086,6.6112,4.2514,4.6052,5.0064,5.4805,5.9623,6.3327,6.378,6.721,7.0376,7.0535,7.0581,7.0652,7.0853,7.1133,7.1309,7.1108,7.0656,7.0083,6.9481,6.8999,6.8472,6.7869,6.797,6.7869,6.7317,6.7267,6.7041,6.6463,6.6413,6.6338,6.6112,6.6112,6.6112,6.6112,6.6112,6.6112,6.6112,6.6112,6.5936,6.5584,6.5032,6.4521,6.3952,6.34,6.2982,6.2781,6.2781,6.2781,6.2781,6.2781,6.2781,6.2807,6.3048,6.3149,6.3174,6.355,6.3701,6.3676,6.345,6.3375,6.3324,6.2907,6.2781,6.2781,6.2781,6.2781,6.2857,6.3274,6.3525,6.3776,6.4103,6.4371,6.4597,6.4906,6.5409,6.581,6.581,6.581,6.5886,6.6061,6.6112,6.6112,6.6112,6.6413,6.6538,6.6162,6.6438,6.6538,6.6162,6.6112,6.6112,6.6112,6.5936,6.5886,6.6086,6.5936,6.5911,6.6086,6.6112,6.6112,6.6112,6.6112,6.6112,6.6112,6.6112,6.6112,6.6112,6.6112,6.6112,6.6112,6.6112,6.6112,4.1893,4.4481,4.774,5.1213,5.5118,5.8566,6.0265,6.434,6.8095,6.918,6.9577,6.9873,7.025,7.03,7.033,7.0506,6.9883,6.9255,6.8904,6.8271,6.7668,6.7267,6.7417,6.7292,6.6739,6.6689,6.6538,6.6137,6.6112,6.5742,6.4938,6.487,6.487,6.487,6.535,6.566,6.5835,6.5835,6.515,6.3828,6.3525,6.2633,6.1353,6.0778,6.091,6.1639,6.1639,6.2076,6.2781,6.2781,6.2781,6.2781,6.2781,6.2781,6.2832,6.3249,6.34,6.34,6.34,6.34,6.335,6.2907,6.2781,6.2832,6.3007,6.3124,6.3224,6.3802,6.4078,6.4304,6.4697,6.4923,6.5107,6.5484,6.5835,6.6162,6.6363,6.6237,6.6162,6.6363,6.6413,6.6413,6.6413,6.6714,6.6789,6.6187,6.6438,6.6538,6.6162,6.6112,6.6112,6.6112,6.6112,6.6112,6.6112,6.6112,6.6112,6.6112,6.6112,6.6112,6.6112,6.6112,6.6112,6.6112,6.6112,6.6112,6.6112,6.6112,6.6112,6.6112,6.6312,6.6413,0.0,0.0,0.0,4.7667,4.9461,5.2173,5.9272,6.1774,6.3794,6.8277,6.8779,6.8823,7.0049,6.9325,6.8728,6.928,6.9356,6.8954,6.7919,6.7769,6.7342,6.6237,6.6614,6.6739,6.6076,6.5983,6.5983,6.5896,6.5871,6.487,6.2514,6.2357,6.2357,6.2357,6.3638,6.4537,6.5063,6.5088,6.3657,6.0876,6.09,5.9398,5.6661,5.6124,5.7134,5.9307,5.9307,6.0636,6.2781,6.2781,6.2781,6.2781,6.2781,6.2781,6.2781,6.2781,6.2781,6.2781,6.2781,6.2781,6.2781,6.2807,6.2807,6.2948,6.3525,6.3726,6.3827,6.4396,6.4923,6.5283,6.5308,6.571,6.6112,6.6137,6.6137,6.6287,6.6865,6.6564,6.6338,6.689,6.699,6.699,6.699,6.699,6.6815,6.6237,6.6137,6.6137,6.6112,6.6112,6.6112,6.6112,6.6112,6.6112,6.6112,6.6112,6.6112,6.6112,6.6112,6.6112,6.6112,6.6112,6.6112,6.6112,6.6112,6.6112,6.6112,6.6112,6.6112,6.6137,6.6689,6.694,3.6398,0.0,0.0,0.0,0.0,0.0,4.8789,5.2975,5.7751,6.2977,6.4254,6.5341,6.8497,6.8497,6.8221,6.8703,6.817,6.7543,6.7241,6.684,6.6463,6.6137,6.6262,6.5614,6.3666,6.351,6.2735,6.0947,6.0487,6.0172,5.984,5.9498,5.9315,5.9315,5.9387,5.9505,5.9668,5.9972,5.9364,5.7898,5.8175,5.755,5.6102,5.5924,5.7111,5.9307,5.9307,6.0636,6.2781,6.2781,6.2781,6.2781,6.2781,6.2781,6.2781,6.2781,6.2781,6.2781,6.2781,6.2781,6.2857,6.3324,6.345,6.355,6.4119,6.4295,6.4421,6.4906,6.5183,6.5383,6.5785,6.5986,6.6212,6.6639,6.6739,6.689,6.7442,6.7442,6.7392,6.7543,6.7568,6.7568,6.7568,6.7568,6.7392,6.6815,6.6739,6.6589,6.6162,6.6112,6.6112,6.6112,6.6112,6.6112,6.6112,6.6112,6.6112,6.6112,6.6112,6.6112,6.6112,6.6112,6.6112,6.6112,6.6112,6.6112,6.6112,6.6112,6.6112,6.6112,6.6287,6.6363,0.0,0.0,0.0,3.6897,0.0,0.0,4.5909,4.9636,5.3918,5.9976,6.1514,6.2619,6.5562,6.5636,6.5772,6.7292,6.684,6.6481,6.6915,6.6488,6.5742,6.4696,6.4609,6.3569,6.0914,6.0667,5.9992,5.839,5.7985,5.7535,5.6751,5.6398,5.6223,5.629,5.6621,5.693,5.7176,5.7402,5.6621,5.4915,5.5373,5.4683,5.2992,5.3948,5.5639,5.7883,5.8884,6.0636,6.2781,6.2781,6.2781,6.2781,6.2781,6.2781,6.2781,6.2781,6.2781,6.2781,6.2781,6.2781,6.2882,6.35,6.3701,6.3827,6.458,6.4806,6.4974,6.5484,6.5634,6.571,6.6036,6.6112,6.6187,6.6538,6.6815,6.716,6.7693,6.797,6.8145,6.8145,6.8145,6.8145,6.8145,6.8145,6.7945,6.7392,6.7317,6.7191,6.6865,6.6614,6.6488,6.6488,6.6262,6.6112,6.6112,6.6112,6.6212,6.6463,6.6488,6.6589,6.6815,6.6589,6.6488,6.6488,6.6237,6.6112,6.6112,6.6112,6.6237,6.6463,6.6237,6.6237,0.0,0.0,0.0,0.0,3.6925,0.0,4.6689,4.8764,5.0795,5.7384,5.879,5.9296,6.0952,6.0908,6.1461,6.4034,6.4339,6.4737,6.6273,6.6024,6.4783,6.238,6.2042,6.0871,5.7984,5.7646,5.7355,5.6753,5.6686,5.5673,5.3437,5.3207,5.3207,5.3299,5.4447,5.5269,5.5822,5.5888,5.458,5.2027,5.2531,5.1413,4.8986,5.1326,5.3638,5.5943,5.8266,6.0636,6.2781,6.2781,6.2781,6.2781,6.2781,6.2781,6.2781,6.2781,6.2781,6.2807,6.2857,6.2832,6.2907,6.3651,6.3827,6.3977,6.5057,6.5383,6.5484,6.5986,6.6112,6.6112,6.6112,6.6112,6.6137,6.6187,6.6614,6.7141,6.7769,6.8271,6.8648,6.8653,6.8678,6.8678,6.8678,6.8628,6.8447,6.7869,6.7794,6.7769,6.7719,6.7342,6.7084,6.7034,6.6513,6.6187,6.6112,6.6162,6.6438,6.6984,6.7084,6.7292,6.7769,6.7317,6.7041,6.7009,6.6463,6.6187,6.6112,6.6237,6.6538,6.7009,6.6438,6.6513,0.0,0.0,0.0,0.0,3.5198,0.0,3.9923,4.1742,4.4061,4.8761,4.9719,5.0401,5.2558,5.3082,5.3392,5.4084,5.6056,5.8878,6.2789,6.3274,6.2291,5.9817,5.9204,5.796,5.5444,5.485,5.3789,5.1792,5.1604,5.1276,5.0377,5.0311,5.0311,5.0357,5.0282,5.0297,5.0443,5.0759,5.0443,4.9564,5.002,4.9788,4.8986,5.1326,5.3638,5.5943,5.8266,6.0636,6.2781,6.2781,6.2781,6.2781,6.2781,6.2781,6.2781,6.2781,6.2781,6.2857,6.3375,6.3224,6.3032,6.4505,6.4722,6.4572,6.5609,6.5936,6.5986,6.6086,6.6112,6.6112,6.6112,6.6112,6.6237,6.6689,6.689,6.7241,6.8246,6.8547,6.8703,6.9155,6.923,6.923,6.923,6.8879,6.8447,6.7869,6.7794,6.7643,6.7191,6.7417,6.7467,6.7059,6.6865,6.6614,6.6162,6.6538,6.6865,6.7009,6.7392,6.7693,6.7794,6.7693,6.7417,6.7034,6.6865,6.6589,6.6112,6.7015,6.7292,6.7009,6.6865,6.7116,0.0,0.0,0.0,3.4297,0.0,0.0,0.0,4.1514,4.2647,4.6021,4.6114,4.5897,4.7099,4.7445,4.8184,5.0125,5.2577,5.45,5.5475,5.8325,5.9407,5.6922,5.6256,5.4927,5.2259,5.1802,5.1089,4.9671,4.9726,4.9668,4.9219,4.9414,4.9433,4.9199,4.9031,4.8913,4.8913,4.9082,4.9082,4.8913,4.9082,4.9128,4.9032,5.2545,5.4742,5.5987,5.9499,6.1722,6.2781,6.2781,6.2781,6.2781,6.2781,6.2781,6.2832,6.3149,6.3249,6.335,6.3877,6.3877,6.3827,6.4931,6.5107,6.5032,6.586,6.6112,6.6112,6.6112,6.6112,6.6112,6.6112,6.6112,6.6262,6.684,6.7191,6.7618,6.8447,6.8804,6.9155,6.9752,6.9582,6.9406,6.9406,6.918,6.8804,6.8296,6.8221,6.802,6.7467,6.7392,6.7392,6.7392,6.7141,6.6965,6.6965,6.7216,6.7493,6.7769,6.8045,6.8346,6.8597,6.8346,6.7945,6.7392,6.7668,6.7518,6.6965,6.807,6.7894,6.6564,6.7116,6.7392,0.0,0.0,0.0,0.0,0.0,3.7223,0.0,0.0,0.0,4.3808,4.3198,4.2279,4.201,4.2054,4.3069,4.6106,4.8545,4.9337,4.7157,5.155,5.4426,5.2965,5.2861,5.1888,4.9385,4.8801,4.8711,4.8894,4.873,4.8711,4.8894,4.9199,4.9238,4.8913,4.8913,4.8913,4.8913,4.8913,4.8913,4.8913,4.8913,4.8913,4.9078,5.3792,5.5879,5.6074,6.0785,6.2781,6.2781,6.2781,6.2781,6.2781,6.2781,6.2781,6.2857,6.3475,6.3701,6.3776,6.4446,6.4597,6.4622,6.5233,6.5434,6.5534,6.5986,6.6112,6.6112,6.6112,6.6112,6.6112,6.6112,6.6112,6.6262,6.684,6.7317,6.7819,6.8472,6.8929,6.9431,7.0175,6.9828,6.9431,6.9531,6.9481,6.9205,6.8653,6.8578,6.8447,6.802,6.7568,6.7467,6.7919,6.7568,6.7417,6.7769,6.7894,6.8145,6.8553,6.8678,6.8929,6.9381,6.8879,6.8422,6.797,6.8396,6.8346,6.7794,6.8854,6.8427,6.6614,6.7543,6.7769,0.0,0.0,0.0,0.0,3.8425,3.8769,3.885,0.0,3.8093,3.7159,0.0,3.629,3.4868,0.0,0.0,3.5783,3.8322,4.0233,4.0273,4.2247,4.4414,4.6434,4.8323,4.9039,4.7916,4.6426,4.6465,4.8737,4.6797,4.6504,4.8796,4.8952,4.8952,4.8913,4.8913,4.8913,4.8913,4.8913,4.8913,4.8913,4.8913,4.8913,4.9078,5.3792,5.5879,5.614,6.0785,6.2781,6.2781,6.2781,6.2781,6.2781,6.2781,6.2781,6.2857,6.3475,6.3701,6.3827,6.4856,6.4923,6.4672,6.5685,6.6011,6.6036,6.6086,6.6112,6.6112,6.6112,6.6112,6.6112,6.6112,6.6112,6.6262,6.684,6.7059,6.7367,6.8396,6.8628,6.9024,7.0099,6.9828,6.9556,7.0079,6.9752,6.9205,6.8653,6.8578,6.8597,6.8547,6.8472,6.8447,6.8522,6.8472,6.8271,6.7844,6.8246,6.8547,6.8578,6.9029,6.9331,6.9406,6.8879,6.8597,6.8522,6.8597,6.8346,6.7794,6.8854,6.9029,6.8346,6.8472,6.8703,0.0,0.0,3.9325,3.8062,3.8829,3.9497,3.8231,3.7768,3.7231,3.6053,0.0,0.0,0.0,0.0,0.0,0.0,3.8374,4.0118,3.8588,4.0752,4.2777,4.3698,4.416,4.4886,4.5976,4.5449,4.5879,4.8014,4.6191,4.5937,4.8053,4.864,4.8913,4.8913,4.8913,4.8913,4.8913,4.8913,4.8913,4.8913,4.8913,4.8913,4.9078,5.3726,5.5813,5.6074,6.0785,6.2781,6.2781,6.2781,6.2781,6.2832,6.3199,6.3324,6.3425,6.4304,6.463,6.4731,6.5509,6.5609,6.5484,6.5961,6.6112,6.6112,6.6112,6.6112,6.6112,6.6112,6.6112,6.6112,6.6112,6.6112,6.6338,6.7241,6.7442,6.7769,6.8804,6.9055,6.9325,7.0149,6.9828,6.9582,7.0225,6.9803,6.9205,6.8653,6.8578,6.8497,6.8196,6.8145,6.8271,6.8597,6.8578,6.8603,6.8703,6.8929,6.9055,6.9055,6.9602,6.9777,6.9406,6.9526,6.9426,6.9055,6.9055,6.8929,6.8703,6.918,6.928,6.9055,6.9055,6.9004,3.9434,3.9805,4.0466,3.8442,3.8829,3.9226,3.7615,3.7126,3.6704,3.5573,3.5149,0.0,0.0,0.0,3.5119,3.5736,0.0,3.9028,3.7059,3.8726,4.0258,4.0603,4.0762,4.1699,4.3926,4.3455,4.4043,4.6348,4.459,4.459,4.7266,4.7988,4.8542,4.8894,4.8913,4.8913,4.8913,4.8913,4.8913,4.8913,4.8913,4.8913,4.9078,5.3726,5.5813,5.6074,6.0785,6.2781,6.2807,6.2957,6.3073,6.3149,6.3852,6.4128,6.4228,6.5007,6.5283,6.5383,6.5911,6.6112,6.6112,6.6112,6.6112,6.6112,6.6112,6.6112,6.6112,6.6112,6.6112,6.6112,6.6112,6.6112,6.6388,6.7543,6.7794,6.8095,6.9155,6.9406,6.9556,7.02,6.9828,6.9582,7.0225,6.9803,6.9255,6.8854,6.8678,6.8522,6.8296,6.812,6.8246,6.8753,6.8804,6.8954,6.9356,6.9406,6.9406,6.9406,6.9953,7.0003,6.9406,6.9978,7.0003,6.9406,6.9406,6.9406,6.9406,6.9406,6.9406,6.9406,6.9406,6.918,4.3045,4.291,4.296,4.0303,3.8793,3.7619,3.6195,3.5957,3.5701,3.4426,3.5471,3.6201,3.4863,3.4362,0.0,0.0,3.3897,0.0,0.0,3.3591,3.3892,3.5976,3.8418,4.0449,4.1777,3.9591,3.9726,4.3535,4.1074,4.1601,4.6635,4.6928,4.7558,4.8855,4.8913,4.8913,4.8913,4.8913,4.8913,4.8913,4.8913,4.8913,4.9078,5.3792,5.5879,5.614,6.0785,6.2781,6.2832,6.3425,6.3676,6.3776,6.4831,6.5233,6.5233,6.5283,6.5283,6.5383,6.5911,6.6112,6.6112,6.6112,6.6112,6.6112,6.6112,6.6112,6.6112,6.6112,6.6112,6.6112,6.6112,6.6112,6.6388,6.7543,6.7794,6.8095,6.9155,6.9406,6.9556,7.02,6.9828,6.9582,7.0225,6.9803,6.9381,6.9381,6.8929,6.8753,6.928,6.8879,6.8753,6.9306,6.9381,6.9381,6.9406,6.9406,6.9406,6.9406,6.9953,7.0003,6.9406,6.9978,7.0003,6.9406,6.9406,6.9406,6.9406,6.9406,6.9406,6.9406,6.9406,6.9381,4.4863,4.6035,4.6518,4.2168,4.1204,4.0308,3.6409,3.5771,3.5644,3.4368,3.5502,3.6304,3.4941,3.5461,0.0,0.0,0.0,3.6416,0.0,3.3796,3.3518,3.3858,3.6426,3.834,3.8789,3.9062,4.0234,4.2676,4.166,4.2305,4.5445,4.6738,4.7558,4.8053,4.86,4.8913,4.8913,4.8913,4.8913,4.8913,4.8913,4.9702,5.1326,5.4477,5.6746,5.8332,6.1474,6.2781,6.2832,6.345,6.3701,6.3802,6.4881,6.5283,6.5333,6.571,6.5835,6.586,6.6036,6.6112,6.6112,6.6112,6.6112,6.6112,6.6112,6.6112,6.6112,6.6112,6.6112,6.6112,6.6112,6.6112,6.6312,6.7066,6.7543,6.7995,6.8748,6.8854,6.9029,6.9627,6.923,6.9029,6.9627,6.9531,6.9406,6.9406,6.9255,6.918,6.9381,6.923,6.9205,6.9381,6.9406,6.9406,6.9406,6.9406,6.9406,6.9406,6.9953,7.0003,6.9406,6.9978,7.0003,6.9406,6.9406,6.9406,6.9406,6.9406,6.9406,6.9406,6.9406,6.9406,4.6523,4.7676,4.8086,4.3965,4.3242,4.2402,3.7988,3.7441,3.7402,3.5781,3.6328,3.6953,3.6406,3.6396,0.0,0.0,0.0,0.0,0.0,3.3867,3.3644,3.2715,3.5019,3.6805,3.7062,3.7383,3.8496,4.0626,4.0293,4.1055,4.3516,4.5566,4.6875,4.7324,4.8366,4.8991,4.9101,4.8991,4.8991,4.9148,4.9827,5.1066,5.2798,5.5772,5.8042,5.9719,6.1862,6.2907,6.3174,6.3726,6.4078,6.4354,6.5233,6.5584,6.5634,6.5986,6.6112,6.6112,6.6112,6.6112,6.6112,6.6112,6.6112,6.6112,6.6112,6.6112,6.6187,6.6589,6.6413,6.6212,6.6614,6.6413,6.6262,6.684,6.7392,6.7894,6.8246,6.8648,6.8904,6.908,6.8979,6.8979,6.9331,6.9406,6.9406,6.9406,6.9406,6.9406,6.9406,6.9406,6.9406,6.9406,6.9406,6.9406,6.9406,6.9406,6.9406,6.9406,7.0154,7.0305,6.9752,7.0255,7.048,7.0284,6.9707,6.9582,6.9983,6.9582,6.9406,6.9406,6.9406,6.9406]},{"header":{"parameterUnit":"m.s-1","parameterCategory":1,"la1":30.6,"la2":29.2853,"lo1":-89.7004,"lo2":-87.6739,"dy":0.0162,"dx":0.0183,"nx":112,"ny":82,"refTime":"2023-04-23T18:00:00:Z","depth":0,"parameterNumber":3,"parameterNumberName":"V-component_of_WINDS"},"data":[0.0,0.0,0.0,0.0,0.0,0.0,0.0,0.0,0.0,0.0,0.0,0.0,0.0,0.0,0.0,0.0,0.0,0.0,0.0,0.0,0.0,0.0,0.0,0.0,0.0,0.0,0.0,0.0,0.0,0.0,0.0,0.0,0.0,0.0,0.0,0.0,0.0,0.0,0.0,0.0,0.0,0.0,0.0,0.0,0.0,0.0,0.0,0.0,0.0,0.0,0.0,0.0,0.0,0.0,0.0,0.0,0.0,0.0,0.0,0.0,0.0,0.0,0.0,0.0,0.0,0.0,0.0,0.0,0.0,0.0,0.0,0.0,0.0,0.0,0.0,0.0,0.0,0.0,0.0,0.0,0.0,0.0,0.0,0.0,0.0,0.0,0.0,0.0,0.0,0.0,2.9632,2.8696,3.0578,3.1555,3.0682,3.1167,3.0206,2.7181,0.0,0.0,0.0,0.0,0.0,0.0,0.0,0.0,0.0,0.0,0.0,0.0,0.0,0.0,0.0,0.0,0.0,0.0,0.0,0.0,0.0,0.0,0.0,0.0,0.0,0.0,0.0,0.0,0.0,0.0,0.0,0.0,0.0,0.0,0.0,0.0,0.0,0.0,0.0,0.0,0.0,0.0,0.0,0.0,0.0,0.0,0.0,0.0,0.0,0.0,0.0,0.0,0.0,0.0,0.0,0.0,0.0,0.0,0.0,0.0,0.0,0.0,0.0,0.0,0.0,0.0,0.0,0.0,0.0,0.0,0.0,0.0,0.0,0.0,0.0,0.0,0.0,0.0,0.0,0.0,0.0,0.0,0.0,0.0,0.0,0.0,0.0,0.0,0.0,0.0,0.0,0.0,0.0,0.0,0.0,0.0,0.0,0.0,0.0,0.0,0.0,0.0,0.0,0.0,2.968,3.1146,3.1663,3.1555,3.0682,3.1167,3.0206,2.7181,0.0,0.0,0.0,0.0,0.0,0.0,0.0,0.0,0.0,0.0,0.0,0.0,0.0,0.0,0.0,0.0,0.0,0.0,0.0,0.0,0.0,0.0,0.0,0.0,0.0,0.0,0.0,0.0,0.0,0.0,0.0,0.0,0.0,0.0,0.0,0.0,0.0,0.0,0.0,0.0,0.0,0.0,0.0,0.0,0.0,0.0,0.0,0.0,0.0,0.0,0.0,0.0,0.0,0.0,0.0,0.0,0.0,0.0,0.0,0.0,0.0,0.0,0.0,0.0,0.0,0.0,0.0,0.0,0.0,0.0,0.0,0.0,0.0,0.0,0.0,0.0,0.0,0.0,0.0,0.0,0.0,0.0,0.0,0.0,0.0,0.0,0.0,0.0,0.0,0.0,0.0,0.0,0.0,0.0,0.0,0.0,0.0,0.0,0.0,0.0,0.0,0.0,0.0,2.9815,3.1118,3.3213,3.3209,3.2738,3.1878,3.118,2.9726,2.7142,2.6381,0.0,0.0,0.0,0.0,0.0,0.0,0.0,0.0,0.0,0.0,0.0,0.0,0.0,0.0,0.0,0.0,0.0,0.0,0.0,0.0,0.0,0.0,0.0,0.0,0.0,0.0,0.0,0.0,0.0,0.0,0.0,0.0,0.0,0.0,0.0,0.0,0.0,0.0,0.0,0.0,0.0,0.0,0.0,0.0,0.0,0.0,0.0,0.0,0.0,0.0,0.0,0.0,0.0,0.0,0.0,0.0,0.0,0.0,0.0,0.0,0.0,0.0,0.0,0.0,0.0,0.0,0.0,0.0,0.0,0.0,0.0,0.0,0.0,0.0,0.0,0.0,0.0,0.0,0.0,0.0,0.0,0.0,0.0,0.0,0.0,0.0,0.0,0.0,0.0,0.0,0.0,0.0,0.0,0.0,0.0,0.0,0.0,0.0,0.0,0.0,0.0,0.0,3.1641,3.2598,3.4648,3.4297,3.3645,3.2851,3.1113,2.918,2.7148,2.6089,0.0,0.0,0.0,0.0,0.0,0.0,0.0,0.0,0.0,0.0,0.0,0.0,0.0,0.0,0.0,0.0,0.0,0.0,0.0,0.0,0.0,0.0,0.0,0.0,0.0,0.0,0.0,0.0,0.0,0.0,0.0,0.0,0.0,0.0,0.0,0.0,0.0,0.0,0.0,0.0,0.0,0.0,0.0,0.0,0.0,0.0,0.0,0.0,0.0,0.0,0.0,0.0,0.0,0.0,0.0,0.0,0.0,0.0,0.0,0.0,0.0,0.0,0.0,0.0,0.0,0.0,0.0,0.0,0.0,0.0,0.0,0.0,0.0,0.0,0.0,0.0,0.0,0.0,0.0,0.0,0.0,0.0,0.0,0.0,0.0,0.0,0.0,0.0,0.0,0.0,0.0,0.0,0.0,0.0,0.0,0.0,0.0,0.0,0.0,0.0,0.0,0.0,3.1973,3.3379,3.5156,3.4219,3.3281,3.2832,3.0869,2.8894,2.7103,2.5845,0.0,0.0,0.0,0.0,0.0,0.0,0.0,0.0,0.0,0.0,0.0,0.0,0.0,0.0,0.0,0.0,0.0,0.0,0.0,0.0,0.0,0.0,0.0,0.0,0.0,0.0,0.0,0.0,0.0,0.0,0.0,0.0,0.0,0.0,0.0,0.0,0.0,0.0,0.0,0.0,0.0,0.0,0.0,0.0,0.0,0.0,0.0,0.0,0.0,0.0,0.0,0.0,0.0,0.0,0.0,0.0,0.0,0.0,0.0,0.0,0.0,0.0,0.0,0.0,0.0,0.0,0.0,0.0,0.0,0.0,0.0,0.0,0.0,0.0,0.0,0.0,0.0,0.0,0.0,0.0,0.0,0.0,0.0,0.0,0.0,0.0,0.0,0.0,0.0,0.0,0.0,0.0,0.0,0.0,0.0,0.0,0.0,0.0,0.0,0.0,0.0,0.0,3.1777,3.3,3.4414,3.3652,3.2871,3.2472,3.041,2.8672,2.7526,0.0,0.0,0.0,0.0,0.0,0.0,0.0,0.0,0.0,0.0,0.0,0.0,0.0,0.0,0.0,0.0,0.0,0.0,0.0,0.0,0.0,0.0,0.0,0.0,0.0,0.0,0.0,0.0,0.0,0.0,0.0,0.0,0.0,0.0,0.0,0.0,0.0,0.0,0.0,0.0,0.0,0.0,0.0,0.0,0.0,0.0,0.0,0.0,0.0,0.0,0.0,0.0,0.0,0.0,0.0,0.0,0.0,0.0,0.0,0.0,0.0,0.0,0.0,0.0,0.0,0.0,0.0,0.0,0.0,0.0,0.0,0.0,0.0,0.0,0.0,0.0,0.0,0.0,0.0,0.0,0.0,0.0,0.0,0.0,0.0,0.0,0.0,0.0,0.0,0.0,0.0,0.0,0.0,0.0,0.0,0.0,0.0,0.0,0.0,0.0,0.0,0.0,3.0625,3.167,3.2628,3.375,3.3105,3.2394,3.1846,2.9648,2.8066,2.7526,0.0,0.0,0.0,0.0,0.0,0.0,0.0,0.0,0.0,0.0,0.0,0.0,0.0,0.0,0.0,0.0,0.0,0.0,0.0,0.0,0.0,0.0,0.0,0.0,0.0,0.0,0.0,0.0,0.0,0.0,0.0,0.0,0.0,0.0,0.0,0.0,0.0,0.0,0.0,0.0,0.0,0.0,0.0,0.0,0.0,0.0,0.0,0.0,0.0,0.0,0.0,0.0,0.0,0.0,0.0,0.0,0.0,0.0,0.0,0.0,0.0,0.0,0.0,0.0,0.0,0.0,0.0,0.0,0.0,0.0,0.0,0.0,0.0,0.0,0.0,0.0,0.0,0.0,0.0,0.0,0.0,0.0,0.0,0.0,0.0,0.0,0.0,0.0,0.0,0.0,0.0,0.0,0.0,0.0,0.0,0.0,0.0,0.0,0.0,0.0,0.0,0.0,3.0664,3.167,3.2531,3.3289,3.2676,3.1846,3.0957,2.8516,2.7031,0.0,0.0,0.0,0.0,0.0,0.0,0.0,0.0,0.0,0.0,0.0,0.0,0.0,0.0,0.0,0.0,0.0,0.0,0.0,0.0,0.0,0.0,0.0,0.0,0.0,0.0,0.0,0.0,0.0,0.0,0.0,0.0,0.0,0.0,0.0,0.0,0.0,0.0,0.0,0.0,0.0,0.0,0.0,0.0,0.0,0.0,0.0,0.0,0.0,0.0,0.0,0.0,0.0,0.0,0.0,0.0,0.0,0.0,0.0,0.0,0.0,0.0,0.0,0.0,0.0,0.0,0.0,0.0,0.0,0.0,0.0,0.0,0.0,0.0,0.0,0.0,0.0,0.0,0.0,0.0,0.0,0.0,0.0,0.0,0.0,0.0,0.0,0.0,0.0,0.0,0.0,0.0,0.0,0.0,0.0,0.0,0.0,0.0,0.0,0.0,0.0,0.0,0.0,3.1074,3.1846,3.2531,3.3289,3.2676,3.1846,3.0957,2.8816,2.7506,2.7506,0.0,0.0,0.0,0.0,0.0,0.0,0.0,0.0,0.0,0.0,0.0,0.0,0.0,0.0,0.0,0.0,0.0,0.0,0.0,0.0,0.0,0.0,0.0,0.0,0.0,0.0,0.0,0.0,0.0,0.0,0.0,0.0,0.0,0.0,0.0,0.0,0.0,0.0,0.0,0.0,0.0,0.0,0.0,0.0,0.0,0.0,0.0,0.0,0.0,0.0,0.0,0.0,0.0,0.0,0.0,0.0,0.0,0.0,0.0,0.0,0.0,0.0,0.0,0.0,0.0,0.0,0.0,0.0,0.0,0.0,0.0,0.0,0.0,0.0,0.0,0.0,0.0,0.0,0.0,0.0,0.0,0.0,0.0,0.0,0.0,0.0,0.0,0.0,0.0,0.0,0.0,0.0,0.0,0.0,0.0,0.0,0.0,0.0,0.0,0.0,0.0,0.0,3.1289,3.2051,3.2617,3.3125,3.2559,3.171,3.0497,2.8555,2.737,2.7194,0.0,0.0,0.0,0.0,0.0,0.0,0.0,0.0,0.0,0.0,0.0,0.0,0.0,0.0,0.0,0.0,0.0,0.0,0.0,0.0,0.0,0.0,0.0,0.0,0.0,0.0,0.0,0.0,0.0,0.0,0.0,0.0,0.0,0.0,0.0,0.0,0.0,0.0,0.0,0.0,0.0,0.0,0.0,0.0,0.0,0.0,0.0,0.0,0.0,0.0,0.0,0.0,0.0,0.0,0.0,0.0,0.0,0.0,0.0,0.0,0.0,0.0,0.0,0.0,0.0,0.0,0.0,0.0,0.0,0.0,0.0,0.0,0.0,0.0,0.0,0.0,0.0,0.0,0.0,0.0,0.0,0.0,0.0,0.0,0.0,0.0,0.0,0.0,0.0,0.0,0.0,0.0,0.0,0.0,0.0,0.0,0.0,0.0,0.0,0.0,0.0,0.0,3.1406,3.2285,3.2812,3.2851,3.2472,3.1494,2.9755,2.8027,2.6875,2.6426,0.0,0.0,0.0,0.0,0.0,0.0,0.0,0.0,0.0,0.0,0.0,0.0,0.0,0.0,0.0,0.0,0.0,0.0,0.0,0.0,0.0,0.0,0.0,0.0,0.0,0.0,0.0,0.0,0.0,0.0,0.0,0.0,0.0,0.0,0.0,0.0,0.0,0.0,0.0,0.0,0.0,0.0,0.0,0.0,0.0,0.0,0.0,0.0,0.0,0.0,0.0,0.0,0.0,0.0,0.0,0.0,0.0,0.0,0.0,0.0,2.6707,2.6328,0.0,0.0,0.0,0.0,0.0,0.0,0.0,0.0,0.0,0.0,0.0,0.0,0.0,0.0,0.0,0.0,0.0,0.0,0.0,0.0,0.0,0.0,0.0,0.0,0.0,0.0,0.0,0.0,0.0,0.0,0.0,0.0,0.0,0.0,0.0,0.0,0.0,0.0,0.0,0.0,3.1846,3.248,3.293,3.3242,3.2617,3.1494,2.9755,2.8347,2.7233,2.647,2.5156,0.0,0.0,0.0,0.0,0.0,0.0,0.0,0.0,0.0,0.0,0.0,0.0,0.0,0.0,0.0,0.0,0.0,0.0,0.0,0.0,0.0,0.0,0.0,0.0,0.0,0.0,0.0,0.0,0.0,0.0,0.0,0.0,0.0,0.0,0.0,0.0,0.0,0.0,0.0,0.0,0.0,0.0,0.0,0.0,0.0,0.0,0.0,0.0,0.0,0.0,0.0,0.0,0.0,0.0,0.0,0.0,0.0,0.0,0.0,2.7969,2.7129,0.0,0.0,0.0,0.0,0.0,0.0,0.0,0.0,0.0,0.0,0.0,0.0,0.0,0.0,0.0,0.0,0.0,0.0,0.0,0.0,0.0,0.0,0.0,0.0,0.0,0.0,0.0,0.0,0.0,0.0,0.0,0.0,0.0,0.0,0.0,0.0,0.0,0.0,0.0,0.0,3.2022,3.2715,3.3105,3.3125,3.2559,3.1494,2.9755,2.8621,2.7545,2.6465,2.5523,0.0,0.0,0.0,0.0,0.0,0.0,0.0,0.0,0.0,0.0,0.0,0.0,0.0,0.0,0.0,0.0,0.0,0.0,0.0,0.0,0.0,0.0,0.0,0.0,0.0,0.0,0.0,0.0,0.0,0.0,0.0,0.0,0.0,0.0,0.0,0.0,0.0,0.0,0.0,0.0,0.0,0.0,0.0,0.0,0.0,0.0,0.0,0.0,0.0,0.0,0.0,0.0,0.0,3.7986,3.6831,3.5854,3.5226,3.3936,3.2117,3.073,2.9191,2.7695,2.778,0.0,0.0,0.0,0.0,0.0,0.0,0.0,0.0,0.0,0.0,0.0,0.0,0.0,0.0,0.0,0.0,0.0,0.0,0.0,0.0,0.0,0.0,2.7735,2.9664,3.1106,3.1473,2.9436,0.0,0.0,0.0,0.0,0.0,0.0,0.0,0.0,0.0,0.0,0.0,3.2003,3.2851,3.3262,3.2832,3.2452,3.1514,2.9852,2.8914,2.7891,2.668,2.6251,2.6379,0.0,0.0,0.0,0.0,0.0,0.0,0.0,0.0,0.0,0.0,0.0,0.0,0.0,0.0,0.0,0.0,0.0,0.0,0.0,0.0,0.0,0.0,0.0,0.0,0.0,0.0,0.0,0.0,0.0,0.0,0.0,0.0,3.5481,3.4477,0.0,0.0,0.0,0.0,0.0,0.0,0.0,0.0,0.0,0.0,0.0,0.0,0.0,4.0666,4.0499,4.1389,4.1188,3.9897,4.0349,4.0342,3.981,3.8751,3.7899,3.7243,3.5718,0.0,3.0273,2.8809,0.0,0.0,0.0,0.0,0.0,0.0,0.0,0.0,0.0,0.0,0.0,0.0,0.0,0.0,0.0,0.0,0.0,0.0,0.0,0.0,0.0,0.0,2.8832,3.1553,3.2672,3.3251,3.3878,3.3428,3.2816,3.255,3.2015,3.18,0.0,0.0,0.0,0.0,0.0,0.0,3.1582,3.2645,3.3262,3.2832,3.2452,3.1651,3.0234,2.9336,2.8457,2.7585,2.7411,2.7556,2.8013,2.8577,0.0,0.0,0.0,0.0,0.0,0.0,0.0,0.0,0.0,0.0,0.0,0.0,0.0,0.0,0.0,0.0,0.0,0.0,0.0,0.0,0.0,0.0,0.0,0.0,0.0,0.0,0.0,0.0,0.0,3.5403,3.6207,3.4474,3.5807,3.6008,0.0,0.0,0.0,0.0,0.0,0.0,0.0,0.0,0.0,4.0877,4.271,4.3633,4.3505,4.459,4.5208,4.5403,4.5455,4.5191,4.4648,4.2694,4.1346,4.0385,3.8062,3.6825,3.619,3.3339,3.1876,3.1312,0.0,0.0,0.0,0.0,3.0092,3.0135,3.0467,3.0378,3.007,2.9978,0.0,0.0,0.0,0.0,0.0,0.0,0.0,3.0034,3.099,3.2017,3.3259,3.51,3.648,3.7497,3.7748,3.7776,3.6975,3.4295,3.4799,3.5233,3.3867,3.3527,0.0,0.0,0.0,3.2904,3.2329,3.3144,3.3437,3.257,3.2316,3.1573,3.0009,2.9492,2.8855,2.7761,2.8384,2.9055,2.9674,3.0899,3.2131,0.0,0.0,0.0,0.0,0.0,0.0,0.0,0.0,0.0,0.0,0.0,0.0,0.0,0.0,0.0,0.0,0.0,0.0,0.0,0.0,0.0,0.0,0.0,0.0,0.0,0.0,0.0,0.0,3.6457,3.7512,3.4851,3.7337,3.809,0.0,0.0,0.0,0.0,0.0,0.0,4.0676,4.2836,4.4292,4.4819,4.6376,4.7305,4.7581,4.841,4.9407,5.0645,5.0092,4.9595,4.9102,4.6703,4.5025,4.388,4.1197,4.0746,4.1516,3.7445,3.5372,3.4681,3.4446,3.4467,3.4623,3.4263,3.4126,3.4198,3.466,3.4429,3.3899,3.3597,3.3138,3.2589,3.2042,0.0,0.0,0.0,0.0,3.356,3.4432,3.5691,3.7082,3.8566,4.0042,4.1046,4.1175,4.1561,4.0713,3.6617,3.7472,3.821,3.6033,3.6072,0.0,3.4257,3.4424,3.4304,3.297,3.3567,3.3606,3.2335,3.2198,3.1592,3.0067,2.9735,2.9353,2.8741,2.9615,3.0594,3.151,3.2984,3.3862,3.4101,0.0,0.0,0.0,0.0,0.0,0.0,0.0,0.0,0.0,0.0,0.0,0.0,0.0,0.0,0.0,0.0,0.0,0.0,0.0,0.0,0.0,0.0,0.0,0.0,0.0,0.0,0.0,0.0,0.0,3.6732,4.01,0.0,0.0,0.0,0.0,4.1658,4.2361,4.2989,4.3564,4.5668,4.7124,4.7682,5.0343,5.2251,5.3281,5.3331,5.3406,5.3482,5.2945,5.2685,5.2573,5.0607,4.9451,4.8837,4.6822,4.5546,4.4509,3.9476,3.7823,3.8403,3.7137,3.6324,3.5904,3.5858,3.5858,3.5885,3.5931,3.5584,3.5165,3.554,3.5282,3.4782,3.4357,3.449,0.0,0.0,3.5727,3.6072,3.8107,3.8225,3.8537,4.1389,4.215,4.2621,4.4058,4.4009,4.2955,4.0643,3.9494,3.9169,4.0016,0.0,3.7203,3.6606,3.6062,3.5036,3.3049,3.3567,3.3606,3.2335,3.2198,3.1827,3.0898,3.0087,3.0123,3.1337,3.141,3.2008,3.3314,3.3707,3.4131,3.4653,3.3646,0.0,0.0,0.0,0.0,0.0,0.0,0.0,0.0,0.0,0.0,0.0,0.0,0.0,0.0,0.0,0.0,0.0,0.0,0.0,0.0,0.0,0.0,0.0,0.0,0.0,0.0,0.0,0.0,4.2286,4.4543,0.0,4.2233,4.2183,4.2735,4.3664,4.492,4.6527,4.851,5.0368,5.195,5.3206,5.4235,5.4938,5.5315,5.4963,5.4787,5.4762,5.3858,5.3432,5.3337,5.1038,4.9901,4.964,4.7382,4.6897,4.7504,4.5446,4.397,4.3012,4.2552,4.2286,4.2115,4.2115,4.2115,4.2115,4.2115,4.172,4.1107,4.0227,3.9296,3.8441,3.7959,3.8151,3.8473,3.8032,3.8885,4.0087,4.0835,4.159,4.2564,4.4013,4.4349,4.4596,4.5504,4.5547,4.5171,4.4392,4.276,4.1783,4.2509,4.1748,4.0475,3.8881,3.8393,3.7081,3.4033,3.4121,3.3887,3.2374,3.2198,3.2098,3.1888,3.1242,3.1377,3.2551,3.3085,3.3425,3.3505,3.4414,3.4703,3.4176,3.3467,3.3266,0.0,0.0,0.0,0.0,0.0,0.0,0.0,0.0,0.0,0.0,0.0,0.0,0.0,0.0,0.0,0.0,0.0,0.0,0.0,0.0,0.0,0.0,0.0,0.0,0.0,4.2788,4.5422,4.5974,4.8159,4.878,4.6747,4.6753,4.7179,4.7933,4.9188,5.0795,5.2829,5.4135,5.534,5.6408,5.6671,5.6771,5.6771,5.6219,5.5942,5.5942,5.4813,5.426,5.42,5.2171,5.1265,5.1146,4.9357,4.9262,5.0347,4.9883,4.8907,4.7605,4.7078,4.6652,4.6301,4.6301,4.6301,4.625,4.5899,4.5522,4.4916,4.3463,4.2484,4.1804,4.148,4.1605,4.1831,4.148,4.2462,4.3668,4.4044,4.492,4.5794,4.62,4.6301,4.6401,4.6778,4.6853,4.6853,4.6853,4.5372,4.4217,4.4593,4.4342,4.3267,4.0777,4.0213,3.8918,3.5743,3.483,3.411,3.3075,3.2805,3.2606,3.233,3.2502,3.2879,3.3503,3.4083,3.4246,3.3929,3.4745,3.4904,3.4198,3.3467,3.3266,3.3621,0.0,0.0,0.0,0.0,0.0,0.0,0.0,0.0,0.0,0.0,0.0,0.0,0.0,0.0,0.0,0.0,0.0,0.0,0.0,0.0,0.0,0.0,0.0,4.0876,4.5924,4.9113,4.7626,5.0737,5.2368,5.0795,5.2067,5.3507,5.4647,5.5225,5.5742,5.6319,5.6809,5.7111,5.7136,5.77,5.8001,5.7976,5.7361,5.706,5.7035,5.5968,5.544,5.539,5.426,5.3733,5.3683,5.3146,5.292,5.2845,5.2352,5.2126,5.195,5.0293,4.8987,4.8008,4.7983,4.7958,4.7782,4.6753,4.6351,4.615,4.5041,4.469,4.4665,4.469,4.469,4.4916,4.605,4.6351,4.6602,4.7631,4.7908,4.7908,4.7908,4.7908,4.7908,4.7933,4.7958,4.7958,4.7958,4.7129,4.6426,4.6401,4.6376,4.5349,4.2373,4.1582,0.0,3.8141,3.5771,3.4344,3.458,3.413,3.3442,3.2469,3.3742,3.453,3.4285,3.4362,3.4485,3.4683,3.4678,3.4678,3.4653,3.3668,3.3115,3.309,0.0,0.0,0.0,0.0,0.0,0.0,0.0,0.0,0.0,0.0,0.0,0.0,0.0,0.0,0.0,0.0,0.0,0.0,0.0,0.0,0.0,4.4116,4.7851,4.7676,4.9841,5.2302,5.4662,5.5128,5.544,5.5817,5.5831,5.6369,5.7511,5.77,5.8202,5.9131,5.9294,5.9608,6.0035,6.0186,6.0085,5.9659,5.9106,5.8629,5.8215,5.7085,5.6369,5.5968,5.5239,5.4486,5.3683,5.3557,5.3281,5.2895,5.2719,5.2477,5.2026,5.1147,5.0619,5.0293,4.9866,4.9213,4.8517,4.8215,4.7581,4.6898,4.6948,4.6722,4.6496,4.6873,4.7004,4.7079,4.738,4.7481,4.7531,4.7832,4.7908,4.7908,4.7908,4.7908,4.8033,4.8466,4.8862,4.9138,4.9138,4.9213,4.9038,4.8265,4.7757,4.6767,4.4694,4.3974,4.257,3.956,3.8591,3.781,3.6854,3.6618,3.6401,3.6075,3.5686,3.5571,3.5789,3.5045,3.4464,3.4126,3.4123,3.3947,3.3567,3.3621,3.347,0.0,0.0,0.0,0.0,0.0,0.0,0.0,0.0,0.0,0.0,0.0,0.0,0.0,0.0,0.0,0.0,0.0,0.0,0.0,0.0,0.0,0.0,4.836,5.2729,5.4336,5.4737,5.5867,5.8579,5.8328,5.8278,5.9182,5.8981,5.9031,5.9722,5.9734,6.0035,6.0638,6.0688,6.0839,6.1165,6.119,6.1014,6.0688,6.0111,5.9684,5.9382,5.824,5.7537,5.7223,5.6194,5.5365,5.4712,5.4009,5.3532,5.3231,5.297,5.2694,5.2402,0.0,0.0,0.0,0.0,5.0218,4.9439,4.9188,4.8535,4.7832,4.7883,4.7707,4.7475,4.7807,4.7908,4.7958,4.8209,4.8259,4.8385,4.8837,4.8786,4.8736,4.9213,4.9138,4.9113,4.9723,5.01,5.0293,5.0293,5.0368,0.0,4.9565,4.8987,4.794,4.5925,4.5246,4.397,4.1314,4.0035,3.91,3.8304,3.8044,3.7683,3.721,3.7139,0.0,0.0,0.0,3.4703,3.3922,3.4123,0.0,0.0,0.0,3.3972,3.3442,3.4299,0.0,0.0,3.4377,3.4751,0.0,0.0,0.0,0.0,0.0,0.0,0.0,0.0,0.0,0.0,0.0,0.0,0.0,0.0,0.0,0.0,5.2587,5.647,6.0085,5.9834,5.9583,6.0373,6.0462,6.0638,6.1215,6.1266,6.1291,6.1366,6.1366,6.1366,6.1366,6.1366,0.0,0.0,0.0,6.1341,6.1266,6.0763,6.0437,6.0311,5.9357,5.8792,5.8641,5.7173,5.642,5.6219,5.4662,5.3959,5.3833,5.3256,5.2945,5.2845,5.2402,5.185,5.1406,5.1406,5.1021,5.0444,4.9967,0.0,0.0,4.836,4.8159,4.8109,4.8109,4.8134,4.8284,4.8843,4.9044,4.9321,5.0268,5.0142,5.0042,5.1046,5.0896,5.067,5.1172,5.1356,5.1348,5.1331,5.0921,5.0536,5.0411,4.9967,4.8849,4.6575,4.5909,4.4999,4.3133,4.0996,3.9571,3.9451,3.9015,0.0,3.7144,3.8183,3.7964,3.5757,3.5483,3.4979,3.4022,3.4427,3.4477,3.3997,3.4452,3.4452,3.3997,3.46,3.513,3.5583,3.5583,3.5931,0.0,0.0,0.0,0.0,0.0,0.0,0.0,0.0,0.0,0.0,0.0,0.0,0.0,0.0,0.0,5.0971,5.5817,5.9935,6.2004,6.2571,6.2471,6.1768,6.1291,6.124,6.1793,6.1843,6.2019,6.2471,6.2496,6.2496,6.2496,6.2496,6.2496,6.2496,6.2496,6.2295,6.1843,6.1743,6.1215,6.0311,6.0111,0.0,5.8666,5.834,5.7688,5.6784,5.6068,5.5465,5.4988,5.3959,5.3306,5.2895,5.277,5.2427,5.195,5.195,5.1599,5.1096,5.0996,5.0569,5.0067,4.9967,4.9615,4.9264,4.9264,4.9565,0.0,5.0067,5.0444,5.0845,5.1046,5.1046,5.1054,5.1255,5.1197,5.1147,5.1247,5.1624,5.1825,5.1373,5.1548,5.1498,5.0536,4.9967,4.911,4.7737,4.7489,4.6637,4.4521,4.3815,4.3045,4.172,4.1527,4.0803,3.9234,3.8992,3.814,3.6331,3.5378,3.4753,3.4552,3.4653,3.4653,3.4552,3.4653,3.4653,3.4552,3.5554,3.613,3.623,3.623,3.6532,0.0,0.0,0.0,0.0,0.0,0.0,0.0,0.0,0.0,0.0,0.0,4.3476,4.4817,0.0,5.2151,5.4963,5.8842,6.1969,6.3099,6.3726,6.3776,6.2948,6.2596,6.2446,6.2421,6.2421,6.248,6.2756,6.3099,6.3249,6.3249,6.35,6.3525,6.3274,6.3249,6.2998,6.2421,6.2144,6.1718,6.1165,6.0889,6.0462,5.9935,5.9357,5.8805,5.8177,5.6821,5.6068,5.5691,5.4285,5.3557,5.3246,5.2995,5.2719,5.2528,5.2528,5.2176,5.1699,5.1699,5.1322,5.0845,5.0845,5.067,5.0444,5.0444,5.0619,5.0845,5.0845,5.1046,5.1348,5.1624,5.1498,5.1423,5.1975,5.19,5.1774,5.2051,5.2327,5.2427,5.2151,5.2101,5.1925,5.1373,5.0569,4.9615,4.851,4.8083,4.723,4.5296,4.4765,4.389,4.1957,4.1756,4.1178,3.9823,3.8919,3.7989,3.6859,3.6029,3.5554,3.5554,3.5255,3.5255,3.5531,3.5554,3.568,3.5956,3.6784,3.721,3.721,3.7512,3.7788,0.0,0.0,0.0,0.0,0.0,0.0,0.0,4.2135,4.3066,4.5581,4.7265,4.8826,5.0554,5.303,5.5817,5.8855,6.1452,6.335,6.3927,6.4454,6.458,6.4053,6.3902,6.3651,6.3199,6.3149,6.3149,6.3149,6.3576,6.3852,6.3852,6.4295,6.432,6.3852,6.3751,6.3475,6.2957,6.2446,6.2119,6.1994,6.1542,6.1291,6.114,6.0236,5.9759,5.9533,5.7449,5.642,5.6093,5.4637,5.3909,5.3658,5.3231,5.297,5.2895,5.2895,5.2619,5.2277,5.2277,5.19,5.1481,5.1481,5.1373,5.1306,5.1306,5.1348,5.1481,5.1481,5.1523,5.1699,5.2151,5.1925,5.1825,5.2669,5.2544,5.2377,5.2795,5.2895,5.2895,5.2895,5.2578,5.2226,5.2126,5.1348,5.0343,4.9113,4.8435,4.7481,4.5849,4.5146,4.3962,4.1854,4.1428,4.0876,3.9798,3.8768,3.799,3.7562,3.7009,3.6708,3.6708,3.6234,3.6208,3.6709,3.6708,3.6909,3.7337,3.8015,3.8341,3.8341,3.9044,3.9245,4.1354,4.0949,4.2018,4.4094,4.4484,4.5515,0.0,4.9687,4.9329,5.1656,5.2214,5.2943,5.5074,5.7323,5.9458,6.1341,6.3124,6.4521,6.5032,6.5584,6.5735,6.5183,6.4722,6.4396,6.432,6.432,6.432,6.432,6.4396,6.4421,6.4421,6.4471,6.4471,6.4421,6.3927,6.3651,6.3601,6.3023,6.2496,6.1994,6.1943,6.1667,6.1205,6.1079,6.0713,6.0136,5.8453,5.7148,5.6168,5.5465,5.4612,5.3683,5.3632,5.3331,5.2895,5.2895,5.2845,5.2795,5.2795,5.2477,5.2026,5.2026,5.1674,5.1306,5.1306,5.1624,5.2026,5.2026,5.2377,5.2719,5.2795,5.2744,5.2744,5.287,5.2845,5.282,5.287,5.2895,5.2895,5.2895,5.2845,5.2644,5.2176,5.2,5.1373,4.9741,4.9069,4.8115,4.6426,4.5723,4.4719,4.3014,4.1904,4.0876,3.9798,3.9145,3.8768,3.8718,3.814,3.7814,3.7814,3.7764,3.7764,3.7839,3.7814,3.7839,3.7914,3.8994,3.9496,3.9521,4.0549,4.0524,4.5624,4.5658,4.6072,4.741,4.921,5.125,5.3641,5.3917,5.446,5.7282,5.8296,5.8914,5.9474,6.0864,6.237,6.3701,6.4756,6.5634,6.6187,6.6463,6.6413,6.5835,6.5559,6.5308,6.5024,6.4999,6.5124,6.5409,6.5434,6.5434,6.5434,6.5434,6.5283,6.4999,6.4731,6.4479,6.4195,6.3601,6.3224,6.2998,6.2647,6.237,6.2119,6.1818,6.0989,5.9784,5.8805,5.7725,5.6609,5.6093,5.5214,5.4195,5.3833,5.3381,5.2895,5.2895,5.2895,5.2895,5.2895,5.2744,5.2578,5.2578,5.2427,5.2226,5.2226,5.2402,5.2578,5.2578,5.2719,5.2895,5.2895,5.2895,5.2895,5.2895,5.2895,5.2895,5.2895,5.2895,5.2895,5.2895,5.2895,5.282,5.2594,5.2327,5.1749,5.072,4.9816,4.8661,4.6973,4.6301,4.5196,4.3215,4.1706,4.065,4.0199,3.9672,3.9371,3.9371,3.8843,3.8642,3.8969,3.8341,3.8316,3.8969,3.8668,3.8818,3.9471,3.9948,4.035,4.0625,4.1102,4.1227,4.79,4.9007,4.9961,5.1557,5.46,5.7529,5.8733,5.935,6.0322,6.2598,6.3392,6.3532,6.3012,6.3576,6.4479,6.5584,6.6212,6.6714,6.7141,6.7216,6.694,6.6187,6.5986,6.5785,6.5534,6.566,6.5986,6.6538,6.6589,6.6589,6.6589,6.6589,6.6312,6.576,6.5609,6.5258,6.4748,6.4028,6.3701,6.3676,6.3099,6.2781,6.2781,6.2245,6.1266,5.9935,5.9232,5.8265,5.7186,5.6671,5.5792,5.4773,5.416,5.3607,5.3096,5.2945,5.2895,5.2895,5.2895,5.2895,5.2895,5.2895,5.2895,5.2895,5.2895,5.2895,5.2895,5.2895,5.2895,5.2895,5.2895,5.2895,5.2895,5.2895,5.2895,5.2895,5.2895,5.2895,5.2895,5.2895,5.2895,5.2895,5.2895,5.2569,5.2151,5.1599,5.067,4.9464,4.7776,4.6828,4.5447,4.324,4.1907,4.1078,4.075,4.0249,3.9923,3.9923,3.9421,3.9296,3.9672,3.9044,3.9094,3.9898,3.9672,4.0023,4.0978,4.0978,4.1329,4.198,4.198,4.2308,4.5672,4.8297,5.1498,5.6563,6.0809,6.4396,6.7028,6.7715,6.7689,6.7515,6.6534,6.5605,6.5277,6.5208,6.5609,6.6739,6.7392,6.7744,6.7769,6.7769,6.7367,6.6237,6.5634,6.5509,6.6036,6.6589,6.7166,6.7719,6.7744,6.7744,6.7744,6.7744,6.7493,6.6984,6.6388,6.5835,6.5283,6.4228,6.3701,6.3676,6.3099,6.2781,6.2781,6.2245,6.1692,6.1065,5.996,5.8855,5.7826,5.7211,5.6369,5.5315,5.4798,5.422,5.3607,5.3071,5.2895,5.2895,5.2895,5.2895,5.2895,5.2895,5.2895,5.2895,5.2895,5.2895,5.2895,5.2895,5.2895,5.2895,5.2895,5.2895,5.2895,5.2895,5.2895,5.2895,5.2895,5.2895,5.2895,5.2895,5.2895,5.2895,5.2895,5.287,5.2669,5.2176,5.1599,5.0652,4.8969,4.7305,4.5447,4.324,4.2964,4.2484,4.1378,4.0775,4.0474,4.0474,3.9973,3.9672,3.9697,4.0174,4.0424,4.0474,4.0976,4.1555,4.2162,4.2162,4.2688,4.3714,4.3714,4.4016,4.8304,5.2432,5.7094,6.1044,6.4695,6.7777,6.9512,6.9948,6.9564,6.8133,6.6212,6.422,6.232,6.2295,6.3048,6.4555,6.6488,6.7919,6.8296,6.8628,6.807,6.5835,6.5735,6.5609,6.5082,6.586,6.694,6.8246,6.7995,6.797,6.8321,6.7995,6.7719,6.7518,6.6965,6.6589,6.6413,6.4999,6.4245,6.4245,6.3274,6.2781,6.2781,6.2245,6.1692,6.114,6.0362,5.9433,5.8403,5.7851,5.6947,5.5892,5.534,5.4798,5.4245,5.3658,5.3432,5.3381,5.302,5.2895,5.2895,5.2895,5.2895,5.2895,5.2895,5.2895,5.2895,5.2895,5.2895,5.2895,5.2895,5.2895,5.2895,5.2895,5.2895,5.2895,5.2895,5.2895,5.2895,5.2895,5.2895,5.2895,5.2895,5.2895,5.2628,5.1699,5.077,4.969,4.836,4.7104,4.5723,4.4242,4.3413,4.2713,4.1959,4.1352,4.1026,4.1026,4.0851,4.075,4.075,4.0926,4.1229,4.1632,4.1808,4.2361,4.3237,4.3237,4.3639,4.4342,4.5376,4.5933,5.312,5.7397,6.1762,6.5533,6.8615,7.1038,7.2086,7.2517,7.2089,7.0055,6.746,6.4765,6.2304,6.1133,6.1042,6.2709,6.4199,6.581,6.7769,6.7668,6.7091,6.6287,6.5961,6.5609,6.5107,6.5685,6.6739,6.8221,6.8371,6.8622,6.9175,6.9049,6.8798,6.8396,6.7844,6.7367,6.7009,6.5552,6.4622,6.4178,6.3274,6.2781,6.2781,6.2446,6.1994,6.1441,6.0864,6.001,5.893,5.8202,5.7349,5.6383,5.5691,5.5164,5.4823,5.4245,5.3884,5.3632,5.3071,5.2895,5.2895,5.2895,5.2895,5.2895,5.2895,5.302,5.3146,5.2945,5.3171,5.3457,5.3256,5.3356,5.3507,5.3507,5.3507,5.3457,5.3256,5.3206,5.3121,5.292,5.2895,5.2895,5.2895,5.2895,5.2594,5.1699,5.0795,4.9715,4.8385,4.7431,4.6451,4.5317,4.4418,4.3668,4.3115,4.2534,4.2105,4.1904,4.1904,4.1804,4.163,4.198,4.2384,4.2763,4.3165,4.3718,4.4392,4.4392,4.4958,4.6017,4.6789,4.7576,5.9491,6.281,6.5473,6.9931,7.2535,7.4151,7.4813,7.5467,7.5268,7.2901,6.9866,6.6907,6.4579,6.1416,5.9751,6.1402,6.1095,6.2195,6.6513,6.5383,6.5032,6.7543,6.6463,6.5685,6.6162,6.6212,6.6714,6.7844,6.8804,6.9677,7.0325,7.0853,7.0581,6.9481,6.8904,6.8145,6.7059,6.586,6.4756,6.3676,6.3149,6.2807,6.2781,6.2781,6.2521,6.1969,6.1416,6.0563,5.9458,5.8378,5.7625,5.6985,5.5917,5.5491,5.544,5.4873,5.4321,5.3758,5.3171,5.2945,5.2895,5.2895,5.292,5.2945,5.2945,5.3331,5.3632,5.3121,5.3758,5.4471,5.3884,5.4195,5.4597,5.4597,5.4597,5.4446,5.3858,5.3758,5.3582,5.3046,5.292,5.2895,5.2895,5.2895,5.2694,5.2176,5.1624,5.0695,4.9069,4.8284,4.7506,4.6396,4.5824,4.5246,4.464,4.4141,4.3614,4.3115,4.309,4.2864,4.2336,4.3341,4.389,4.394,4.502,4.5632,4.5746,4.5746,4.677,4.8697,4.8285,4.9105,6.2421,6.649,7.041,7.2595,7.427,7.5437,7.5617,7.6125,7.5001,6.9505,6.6787,6.3883,5.8907,5.7998,5.8689,6.076,6.3801,6.6589,6.8503,6.9401,6.9476,6.8522,6.8352,6.8076,6.7442,6.7744,6.8447,6.9597,6.9125,6.9426,7.0807,7.1008,7.0757,7.0079,6.9526,6.8653,6.7593,6.6061,6.4756,6.3701,6.355,6.3249,6.2781,6.2781,6.2521,6.1969,6.1416,6.0763,6.0035,5.8956,5.8428,5.8139,5.701,5.6872,5.7097,5.5691,5.534,5.544,5.4486,5.3607,5.2895,5.2895,5.3181,5.3507,5.3507,5.3909,5.4346,5.422,5.4396,5.4572,5.4421,5.4496,5.4597,5.4597,5.4597,5.4572,5.4421,5.4371,5.422,5.3607,5.3146,5.2895,5.2895,5.2895,5.2694,5.2176,5.1624,5.0853,4.954,4.851,4.7506,4.6396,4.5824,4.5246,4.464,4.4464,4.4342,4.4217,4.4192,4.4141,4.3991,4.4669,4.5246,4.5673,4.6321,4.7485,4.908,4.908,4.9961,5.1666,5.2603,5.3325,6.7148,7.05,7.3522,7.4839,7.5976,7.6275,7.454,7.442,7.292,6.6864,6.4046,6.1406,5.7481,5.6761,5.7477,5.9711,6.2354,6.5308,6.8578,6.9451,6.9828,7.0029,7.0284,7.0179,6.9325,6.9727,7.0531,7.1636,7.048,7.033,7.1736,7.1811,7.1873,7.2103,7.0599,6.9049,6.7442,6.6011,6.5335,6.5329,6.4231,6.3842,6.4083,6.3204,6.2647,6.2345,6.1793,6.1366,6.0964,5.9608,5.9056,5.8956,5.7851,5.76,5.775,5.6545,5.6143,5.6093,5.5214,5.4361,5.3658,5.3658,5.3833,5.4084,5.4084,5.4522,5.4924,5.4672,5.5125,5.5541,5.5074,5.529,5.5591,5.534,5.529,5.5214,5.5024,5.4773,5.4371,5.3507,5.3096,5.2895,5.2895,5.2895,5.2795,5.2528,5.2,5.1423,5.077,4.9289,4.8058,4.7456,4.6878,4.6426,4.61,4.5819,4.5593,4.5342,4.5342,4.5342,4.5342,4.5899,4.6451,4.7004,4.7556,4.8667,5.0307,5.0571,5.1706,5.3697,5.4819,5.5679,7.2325,7.433,7.5647,7.6659,7.7442,7.6874,7.2804,7.1757,7.0081,6.4605,6.1613,5.9488,5.7876,5.6652,5.6768,5.9468,6.0313,6.2887,6.9217,6.9004,6.9448,7.2787,7.2635,7.2318,7.2481,7.2357,7.2807,7.422,7.288,7.226,7.2791,7.3024,7.3694,7.4836,7.2436,7.0083,6.7994,6.6925,6.6966,6.8026,6.5696,6.5209,6.6262,6.4148,6.3204,6.3139,6.2366,6.1994,6.1893,6.0337,5.9734,5.9633,5.8604,5.8227,5.8152,5.7462,5.691,5.6445,5.5817,5.529,5.4898,5.4672,5.4697,5.4823,5.4823,5.5214,5.5616,5.5175,5.6043,5.6885,5.5867,5.6319,5.686,5.6344,5.6219,5.6068,5.5591,5.5049,5.4295,5.3196,5.2945,5.2895,5.2895,5.2895,5.2895,5.2895,5.2452,5.2101,5.2101,5.0218,4.8919,4.8919,4.8284,4.7908,4.7908,4.745,4.6998,4.6552,4.6527,4.6527,4.6527,4.7023,4.7649,4.8325,4.8907,4.9925,5.1282,5.179,5.3301,5.5741,5.6319,5.7273,7.4899,7.6724,7.8041,7.7711,7.813,7.7442,7.2924,7.1101,6.8526,6.2091,5.9967,5.8381,5.5393,5.5968,5.8512,6.3645,6.5813,6.9454,7.6877,7.5988,7.5883,7.9568,7.6425,7.5533,7.9461,7.628,7.5109,7.7786,7.7267,7.5813,7.3539,7.4836,7.6136,7.7264,7.5957,7.4534,7.3063,7.2396,7.1671,7.0893,6.9927,6.9366,6.9006,6.6447,6.528,6.5174,6.2959,6.1994,6.1943,6.119,6.0889,6.0839,6.0161,5.991,5.9784,5.8755,5.8353,5.8127,5.706,5.6659,5.6333,5.5049,5.5189,5.5917,5.5917,5.6646,5.7449,5.7349,5.7524,5.76,5.6885,5.686,5.686,5.6344,5.6219,5.6194,5.6093,5.5265,5.4396,5.3708,5.3196,5.2895,5.2895,5.2895,5.2895,5.2895,5.2452,5.2101,5.2101,5.0544,4.9464,4.9464,4.8535,4.7908,4.7908,4.7832,4.7732,4.7631,4.7631,4.7631,4.7631,4.8184,4.9175,5.0621,5.1171,5.3093,5.642,5.6533,5.7772,6.0025,6.0144,6.0315,7.7143,7.834,7.9238,7.8938,7.8579,7.6694,7.0709,6.8345,6.5323,5.7992,5.6795,5.6376,5.4102,5.5548,5.8191,6.1494,6.4145,6.8157,7.476,7.5792,7.7258,8.1146,8.0051,7.9813,8.1928,8.0267,7.9662,8.1064,8.0661,7.9021,7.6013,7.8039,7.8917,7.792,7.7977,7.6851,7.4301,7.3774,7.3375,7.3216,7.1833,7.1297,7.1314,6.8973,6.7097,6.5804,6.5631,6.5005,6.3993,6.4505,6.4114,6.322,6.3688,6.3028,6.1723,6.0948,6.1077,6.1384,5.9549,5.8936,5.8989,5.9202,5.8083,5.6659,5.6997,5.7474,5.7901,5.7901,5.8102,5.8202,5.7625,5.7474,5.7311,5.6734,5.642,5.6118,5.5842,5.5175,5.4421,5.3808,5.3281,5.2895,5.2895,5.2895,5.2895,5.2895,5.2669,5.2528,5.2528,5.1574,5.067,5.0092,4.9289,4.8786,4.8786,4.851,4.8485,4.8761,4.851,4.8611,4.9188,5.0365,5.1481,5.2526,5.3666,5.5557,5.8205,5.8205,5.9216,6.1106,6.1463,6.1613,7.8998,7.9836,8.0375,8.0105,7.8908,7.5916,6.8645,6.5742,6.248,5.494,5.4251,5.461,5.3438,5.511,5.7254,5.8921,6.1707,6.5829,7.2176,7.4842,7.7858,8.2471,8.3188,8.3547,8.4173,8.3661,8.3533,8.403,8.359,8.2073,7.9405,8.1375,8.1646,7.9421,8.0202,7.9084,7.5734,7.5267,7.5265,7.5534,7.3833,7.3282,7.3647,7.1445,6.9223,6.7149,6.8397,6.798,6.657,6.7699,6.7271,6.5952,6.7126,6.6208,6.4188,6.382,6.4219,6.4666,6.2489,6.179,6.2158,6.3546,6.1265,5.8081,5.8665,5.8919,5.8945,5.8517,5.873,5.8905,5.8252,5.8077,5.7901,5.7161,5.6584,5.6068,5.5516,5.5074,5.4572,5.3833,5.3381,5.302,5.292,5.2895,5.2895,5.2895,5.2895,5.2895,5.2895,5.2452,5.1774,5.087,5.0293,4.9967,4.9967,4.9597,4.9522,4.9941,4.9572,4.9884,5.1075,5.2436,5.3702,5.4822,5.6154,5.769,5.9423,5.9423,6.0146,6.1553,6.2061,6.2301,8.0255,8.1542,8.2238,8.1003,7.9238,7.5916,6.8645,6.5054,6.1551,5.5388,5.4221,5.4072,5.3348,5.4396,5.6564,6.0287,6.2614,6.7067,7.5975,7.7595,8.0408,8.7254,8.5231,8.5014,8.9416,8.5883,8.421,8.6496,8.6053,8.5078,8.3705,8.3856,8.4029,8.409,8.4176,8.2933,8.0207,8.0155,7.9545,7.8416,7.761,7.6956,7.6342,7.3712,7.2068,7.125,6.9598,6.8775,6.8624,6.8757,6.8692,6.8541,6.8674,6.826,6.756,6.7505,6.7276,6.6731,6.5454,6.5363,6.5822,6.5376,6.3343,6.1206,6.1811,6.2325,6.233,6.0566,6.0097,5.9935,5.8905,5.8654,5.834,5.7261,5.6584,5.6068,5.5516,5.534,5.4988,5.3909,5.3658,5.3482,5.297,5.2895,5.2895,5.2895,5.2895,5.2895,5.2895,5.2452,5.2076,5.195,5.1448,5.1122,5.1122,5.1105,5.1105,5.1155,5.1105,5.1805,5.3433,5.3657,5.5142,5.8197,5.8373,5.9568,6.1773,6.1773,6.2187,6.2928,6.2988,6.3018,8.0614,8.2649,8.3517,8.1811,7.8699,7.436,6.7867,6.3438,5.9219,5.4072,5.3324,5.3528,5.3258,5.3952,5.5388,5.7752,5.9099,6.1972,6.8076,7.0729,7.4846,8.2446,8.3466,8.5386,9.0132,8.8853,8.8112,8.9095,8.859,8.7823,8.6951,8.6538,8.5809,8.4735,8.4714,8.3636,8.1422,8.1003,8.0345,7.9387,7.8729,7.7861,7.6743,7.5709,7.3982,7.1927,7.2314,7.1812,7.0777,7.2028,7.1812,7.0813,7.2028,7.1374,6.9768,6.9804,7.0149,7.0321,6.8323,6.8059,6.8696,6.9169,6.8101,6.6302,6.4124,6.3638,6.3366,6.1379,6.0839,6.0663,5.9885,5.9168,5.8491,5.775,5.7399,5.7072,5.6495,5.6118,5.5641,5.4863,5.416,5.3632,5.3432,5.3096,5.2895,5.2895,5.2895,5.2895,5.2895,5.2694,5.2569,5.2569,5.18,5.1306,5.1306,5.1306,5.1872,5.3184,5.3275,5.4196,5.6251,5.7294,5.8464,5.9761,6.0823,6.1815,6.2718,6.2718,6.2838,6.3108,6.3108,6.3108,7.9836,8.2619,8.4055,8.2469,7.8346,7.3073,6.7328,6.2421,5.7782,5.3144,5.2875,5.3438,5.3228,5.3892,5.467,5.5234,5.6342,5.8351,6.2002,6.5533,7.026,7.7233,8.0188,8.3478,8.8114,8.9789,9.0507,9.0369,9.01,8.9501,8.8454,8.8155,8.7077,8.5073,8.4803,8.3876,8.2118,8.1212,8.0464,7.977,7.9118,7.819,7.7078,7.7078,7.5632,7.3168,7.4585,7.4263,7.2911,7.4293,7.4085,7.2946,7.4357,7.3754,7.2099,7.2134,7.2734,7.3204,7.121,7.0973,7.1653,7.2287,7.2057,7.0911,6.7516,6.5915,6.49,6.2856,6.1655,6.0788,6.0211,5.9408,5.8591,5.8227,5.8027,5.775,5.7111,5.6684,5.6244,5.5516,5.4737,5.411,5.3758,5.3406,5.3071,5.292,5.2895,5.2895,5.2895,5.2895,5.3076,5.3572,5.2986,5.2501,5.2501,5.2501,5.3424,5.5467,5.5623,5.6554,5.8669,5.9872,6.075,6.1258,6.2497,6.3108,6.3108,6.3108,6.3108,6.3108,6.3287,6.3468,7.7741,8.1242,8.3538,8.2956,7.8316,7.2505,6.7208,6.2421,5.7782,5.3144,5.3264,5.3982,5.3318,5.4281,5.476,5.3438,5.5388,5.8052,6.0745,6.4515,6.8734,7.3402,7.5672,7.8693,8.3329,8.7905,9.0369,8.9752,9.0279,8.973,8.7826,8.8334,8.7766,8.5731,8.5043,8.4085,8.2806,8.1452,8.0464,7.977,7.9118,7.846,7.7801,7.7801,7.7078,7.5851,7.5886,7.5497,7.4869,7.4869,7.4869,7.4869,7.4869,7.4869,7.4869,7.4869,7.4869,7.4783,7.4091,7.43,7.4749,7.4091,7.433,7.4465,7.2456,6.9995,6.7465,6.5486,6.2702,6.0211,5.9633,5.9106,5.8691,5.8666,5.8303,5.775,5.7111,5.6985,5.6659,5.5591,5.539,5.5013,5.3884,5.3708,5.3507,5.297,5.2895,5.2895,5.2895,5.2895,5.3563,5.5214,5.5386,5.5386,5.5386,5.5386,5.6114,5.785,5.7945,5.87,6.0389,6.048,6.1318,6.305,6.3079,6.3108,6.3108,6.3108,6.3108,6.3108,6.3707,6.4366,6.9782,7.3133,7.5048,7.2595,6.9542,6.6101,6.2181,5.877,5.5748,5.3354,5.3228,5.3593,5.3832,5.4221,5.497,5.6346,5.6855,5.7723,5.9488,6.3917,6.8704,7.3343,8.1212,8.6798,8.8264,8.973,9.0507,9.0339,8.9681,8.9023,8.8424,8.7706,8.6808,8.5731,8.5043,8.4085,8.2806,8.1452,8.0464,7.977,7.9118,7.846,7.7801,7.7801,7.7352,7.6479,7.6096,7.5766,7.5557,7.5113,7.4903,7.4903,7.4903,7.4903,7.4903,7.4903,7.4903,7.4813,7.4121,7.433,7.4813,7.4121,7.433,7.48,7.4154,7.1424,6.7897,6.4452,6.2516,6.1341,6.0788,6.0236,5.9709,5.9332,5.9106,5.873,5.7826,5.859,5.9118,5.8021,5.8496,5.8586,5.6998,5.7433,5.7525,5.611,5.697,5.7608,5.7139,5.7085,5.7254,5.7808,5.7873,5.7677,5.7236,5.7181,5.7882,5.9598,5.9718,6.0478,6.2204,6.2292,6.2555,6.3079,6.3108,6.3108,6.3108,6.3498,6.3947,6.4396,6.4575,6.4785,6.3767,6.7537,6.9542,6.7508,6.4934,6.2241,5.9697,5.6885,5.4491,5.3438,5.3198,5.3408,5.4072,5.4221,5.4705,5.635,5.6705,5.7393,5.9219,6.3588,6.8704,7.433,8.2671,8.8084,8.8324,8.9531,9.016,8.992,8.9142,8.8454,8.7945,8.7377,8.6748,8.609,8.5192,8.4325,8.3517,8.1691,8.0584,8.0165,7.9238,7.8579,7.819,7.819,7.7831,7.7173,7.6784,7.6335,0.0,7.5437,7.5108,7.4903,7.4903,7.4903,7.4903,7.4903,7.4903,7.4843,7.442,7.4574,7.4843,7.439,7.454,7.4628,7.3117,7.0878,6.8029,6.3706,6.227,6.1893,6.1316,6.0738,6.0236,5.9885,5.9633,5.9257,5.8403,5.9481,6.0335,5.9395,6.0239,6.066,5.9359,5.9751,5.9852,5.8535,5.9276,5.9857,5.9404,5.9377,5.9634,6.0241,6.0304,6.0416,6.0641,5.9829,5.9944,6.1407,6.1496,6.1969,6.3079,6.3108,6.3227,6.3467,6.3467,6.3558,6.3827,6.4455,6.4964,6.5383,6.5383,6.5503,0.0,6.3498,6.5981,6.5832,6.3199,6.0296,5.8979,5.6406,0.0,5.3408,5.3288,5.3443,5.4102,5.4221,5.4251,5.4401,5.5508,5.733,5.9997,6.4186,6.9602,7.6599,8.1415,8.4346,8.4803,8.7826,8.9512,8.8813,8.8723,8.8155,8.6938,8.7347,8.7347,8.6728,8.5402,8.4684,8.4654,8.208,8.0764,8.0704,7.9417,7.8789,7.8789,7.8789,7.846,7.7861,7.7831,7.7143,7.6036,7.5946,7.5527,7.4993,7.4933,7.4903,7.4903,7.4903,7.4903,7.4903,7.4903,7.4903,7.4903,7.4903,7.4903,7.4154,7.0264,6.9,6.7947,6.3348,6.2069,6.1918,6.1341,6.0788,6.0362,6.0286,5.9976,5.9563,5.9021,6.0035,6.0899,6.0288,6.1233,6.1936,6.1286,6.1247,6.1118,6.0524,6.0482,6.0491,6.0491,6.0491,6.1103,6.2647,6.2832,6.3509,6.4994,6.305,6.2165,6.3171,6.3257,6.3257,6.3257,6.3257,6.3498,6.4066,6.4126,6.4515,6.5203,6.5862,6.6191,6.6221,6.6221,6.652,5.087,0.0,5.6047,5.4526,5.4974,5.5598,0.0,5.476,5.476,5.4102,5.3952,5.4012,5.4192,5.4221,5.47,5.6166,5.7543,5.9518,6.263,7.0859,7.831,8.3038,8.6768,8.8234,8.6389,8.8753,9.013,8.9512,8.9003,8.8544,8.8245,8.7407,8.6838,8.6728,8.5402,8.4474,8.3927,8.1871,8.0554,8.0045,7.9208,7.8789,7.8789,7.8789,7.8699,7.8519,7.8041,7.7652,7.7293,7.6305,7.5826,7.5617,7.5113,7.4903,7.4903,7.4903,7.4903,7.4903,7.4903,7.4903,7.4903,7.4903,7.4903,7.4426,7.1956,7.0116,6.8029,6.3809,6.2581,6.2395,6.1441,6.109,6.0763,5.9885,6.0724,6.1547,6.0973,6.3338,6.5425,6.4865,6.6124,6.6788,6.5253,6.5728,6.597,6.4966,6.5121,6.5354,6.5354,6.5354,6.5509,6.5879,6.6415,6.6659,6.6549,6.5082,6.4278,6.4545,6.4545,6.4545,6.4545,6.4545,6.4605,6.4755,6.5293,6.6101,6.7329,6.7449,6.7777,6.8286,6.8286,6.8106,4.7369,4.9553,5.1535,5.0465,5.1535,5.2815,5.2755,5.3294,5.3803,5.3743,5.3503,5.3473,5.4102,5.4221,5.485,5.6765,5.9009,6.2271,6.7388,7.3821,7.9806,8.4654,8.6838,8.7945,8.8075,8.8813,8.9142,8.8783,8.8155,8.7766,8.7766,8.7077,8.6728,8.6728,8.5402,8.4534,8.4136,8.223,8.1063,8.0704,7.9716,7.9267,7.9238,7.8938,7.8789,7.8759,7.84,7.81,7.7741,7.6724,7.6155,7.5826,7.5138,7.4903,7.4903,7.4903,7.4903,7.4903,7.4903,7.4903,7.4903,7.4903,7.4903,7.453,7.2492,7.1169,6.9635,6.6468,6.491,6.4263,6.4638,6.4542,6.4095,6.3136,6.3575,6.3963,6.3316,6.523,6.7017,6.6734,6.7942,6.8689,6.7704,6.8076,6.8272,6.7613,6.7749,6.7926,6.7926,6.7926,6.7926,6.7926,6.8226,6.8315,6.7956,6.7268,6.631,6.5084,6.5293,6.5443,6.5443,6.5772,6.6071,6.637,6.7029,6.7717,6.8466,6.8766,6.8975,6.9004,6.9303,6.9093,4.6659,4.8514,5.0428,5.0159,5.0637,5.1355,5.2067,5.2187,5.2366,5.2929,5.2665,5.2755,5.4102,5.4521,5.5329,5.7363,6.1014,6.5981,7.2864,7.5886,7.9267,8.4265,8.5222,8.6449,8.9003,8.8394,8.7856,8.7856,8.7227,8.6838,8.6838,8.6788,8.6728,8.6728,8.5402,8.4714,8.4714,8.2769,8.1721,8.1631,8.0405,7.9776,7.9656,7.9058,7.8789,7.8789,7.8789,7.846,7.7891,7.7108,7.6479,7.5976,7.5198,7.4903,7.4903,7.4903,7.4903,7.4903,7.4903,7.4903,7.4903,7.4903,7.4903,7.4564,7.2876,7.2142,7.1604,7.019,6.8132,6.6674,6.8325,6.84,6.782,6.7184,6.6904,6.6628,6.5953,6.685,6.7794,6.7678,6.8546,6.9303,6.9303,6.9213,6.9183,6.9273,6.9123,6.9034,6.9123,6.9153,6.9153,6.9153,6.9243,6.9243,6.9153,6.9153,6.8136,6.5742,6.6131,6.646,6.646,6.6999,6.7597,6.8287,6.8944,6.9303,6.9303,6.9961,6.9931,6.9303,6.9871,6.9782,4.7399,4.9912,5.1498,4.9845,5.0331,5.1355,5.2067,5.2187,5.2217,5.2336,5.2725,5.3468,5.479,5.5927,5.7483,6.0086,6.6041,7.2143,7.7173,8.1512,8.4534,8.5432,8.7526,8.8494,8.7297,8.7975,8.8544,8.8544,8.7915,8.7556,8.7556,8.6988,8.6728,8.6728,8.5402,8.4714,8.4714,8.2769,8.1512,8.0943,8.0195,7.9507,7.8938,7.8849,7.8789,7.8789,7.8789,7.8729,7.8549,7.7287,7.6749,7.6539,7.5347,7.4903,7.4903,7.4903,7.4903,7.4903,7.4903,7.4903,7.4903,7.4903,7.4903,7.4834,7.453,7.3258,7.2207,7.3603,7.1314,6.8401,6.8187,6.8068,6.7857,6.7285,6.8355,6.9324,6.8658,6.9888,7.0974,7.0439,7.0455,7.062,7.062,7.0171,7.0021,7.053,6.9692,6.9213,6.9752,6.9842,6.9842,6.9842,7.029,7.041,6.9871,6.9842,6.9423,6.8465,6.8495,6.8555,6.8555,6.8645,6.9004,6.9694,7.029,7.062,7.062,7.1278,7.1248,7.062,7.0709,7.044,4.6322,4.8327,5.0301,5.1193,5.3174,5.4914,5.485,5.485,5.476,5.4426,5.4875,5.5598,5.6585,5.8979,6.263,6.8196,7.2143,7.5672,7.8908,8.0853,8.2619,8.4414,8.5402,8.6309,8.7137,8.7467,8.7626,8.7626,8.7317,8.7137,8.7137,8.6878,8.6509,8.615,8.5222,8.4534,8.4136,8.2948,8.2208,8.1841,8.1183,8.0704,8.0375,7.9656,7.9357,7.9327,7.8938,7.8789,7.8699,7.7382,7.6779,7.6659,7.5377,7.4903,7.4903,7.4903,7.4903,7.4903,7.4903,7.4903,7.4903,7.4903,7.4903,7.4903,7.4903,7.4258,7.3707,7.4633,7.277,7.072,7.151,7.1708,7.1564,7.0963,7.151,7.1978,7.1296,7.1819,7.2355,7.2056,7.1996,7.1996,7.1996,7.1757,7.1667,7.1936,7.1487,7.1218,7.1517,7.1577,7.1577,7.1577,7.1816,7.1876,7.1577,7.1577,7.1128,7.0081,7.0021,7.0201,7.053,7.0919,7.1068,7.1009,7.1667,7.1996,7.1996,7.2295,7.2295,7.1966,7.1607,7.1278,4.6117,4.783,5.0162,5.3392,5.5291,5.6684,5.7775,5.7513,5.7161,5.7712,5.8318,5.886,5.9398,6.2989,6.8076,7.4809,7.7322,7.9112,8.1153,8.1242,8.205,8.4594,8.4325,8.5022,8.7676,8.7167,8.6788,8.6898,8.6818,8.6728,8.6728,8.6728,8.6449,8.594,8.5132,8.4474,8.3927,8.3158,8.2717,8.2567,8.2058,8.1729,8.1512,8.0345,7.977,7.974,7.9088,7.8789,7.8699,7.7382,7.6868,7.6898,7.5617,7.5108,7.5142,7.4963,7.4903,7.4903,7.4903,7.4903,7.4903,7.4903,7.4903,7.4903,7.4903,7.4903,7.4903,7.4903,7.3777,7.2946,7.4495,7.4903,7.4783,7.424,7.4121,7.3941,7.3283,7.3133,7.3103,7.2954,7.2924,7.2924,7.2924,7.2924,7.2924,7.2924,7.2924,7.2924,7.2924,7.2924,7.2924,7.2924,7.2924,7.2924,7.2924,7.2924,7.2535,7.1667,7.1457,7.1607,7.2116,7.2624,7.2654,7.2146,7.2804,7.3073,7.2924,7.3073,7.3073,7.2894,7.2385,7.2116,4.8552,5.1005,5.3321,5.6343,5.421,5.2978,5.9372,5.8685,5.7859,6.1806,6.3079,6.3528,6.3558,6.7806,7.2322,7.5407,8.0009,8.3897,8.591,8.7227,8.8065,8.8304,8.7736,8.7676,8.8514,8.7437,8.6928,8.7586,8.7048,8.6728,8.6728,8.6728,8.6698,8.6638,8.5372,8.4684,8.4654,8.3435,8.2507,8.1841,8.1811,8.1452,8.0853,8.0135,7.977,7.974,7.9088,7.8789,7.8699,7.7382,7.7167,7.7622,7.6335,7.5826,7.5766,7.5108,7.4903,7.4903,7.4903,7.4903,7.4903,7.4903,7.4903,7.4903,7.4903,7.4903,7.4903,7.4903,7.48,7.4731,7.4869,7.4903,7.4903,7.4843,7.4843,7.4629,7.3971,7.3821,7.3642,7.3043,7.2924,7.2924,7.2924,7.2924,7.2924,7.2924,7.2924,7.2924,7.2924,7.2924,7.2924,7.2924,7.2924,7.2924,7.2924,7.2924,7.3133,7.3642,7.3103,7.2804,7.2834,7.286,7.2894,7.2834,7.3492,7.3522,7.2924,7.3522,7.3522,7.2924,7.2864,7.2834,4.7379,5.0232,5.3246,5.554,5.5592,5.6662,6.2591,6.3418,6.3761,6.6793,6.8196,6.9034,6.9453,7.2864,7.6335,7.8579,8.3038,8.6599,8.7766,8.8364,8.8693,8.8693,8.7736,8.7167,8.7447,8.7028,8.6818,8.7048,8.6808,8.6728,8.6728,8.6728,8.6339,8.5492,8.4983,8.4325,8.3555,8.3046,8.2477,8.1818,8.2238,8.2088,8.1392,8.0734,8.0195,7.974,7.9088,7.8549,7.81,7.7167,7.6928,7.7108,7.6629,7.6245,7.5886,7.5617,7.5258,7.4903,7.4903,7.4903,7.4903,7.4903,7.4903,7.4903,7.4903,7.4903,7.4903,7.4903,7.4903,7.4903,7.4903,7.4903,7.4903,7.4903,7.4903,7.4843,7.4604,7.451,7.442,7.418,7.4121,7.4121,7.4121,7.4121,7.4121,7.4121,7.4121,7.4121,7.4121,7.4121,7.4121,7.4121,7.4121,7.4121,7.4121,7.4121,7.424,7.4514,7.3881,7.3522,7.3522,7.3911,7.3941,7.3522,7.418,7.439,7.4121,7.439,7.436,7.4121,7.3702,7.3522,4.8136,5.0713,5.3629,5.5676,5.7516,6.0244,6.5701,6.6954,6.8019,7.1718,7.2834,7.3343,7.4031,7.6335,7.8759,8.0794,8.5013,8.8245,8.8903,8.8813,8.8604,8.8394,8.7377,8.6728,8.6728,8.6728,8.6728,8.6728,8.6728,8.6728,8.6728,8.6519,8.594,8.5043,8.4624,8.3965,8.3068,8.2687,8.2268,8.1818,8.2058,8.1938,8.1452,8.1003,8.0434,7.974,7.9088,7.843,7.7771,7.7078,7.6689,7.6509,7.6719,7.642,7.5916,7.5916,7.5467,7.4933,7.5138,7.5083,7.4933,7.5172,7.5048,7.4903,7.4903,7.4903,7.4903,7.4903,7.4903,7.4903,7.4903,7.4903,7.4903,7.4903,7.4903,7.4903,7.4903,7.4903,7.4903,7.4903,7.4903,7.4903,7.4903,7.4903,7.4903,7.4903,7.4903,7.4903,7.4903,7.4903,7.4903,7.4903,7.4903,7.4903,7.4903,7.4903,7.4903,7.4903,7.445,7.421,7.421,7.4663,7.4659,7.421,7.4693,7.4903,7.4903,7.4903,7.4903,7.4903,7.442,7.421,5.1634,5.3082,5.4929,5.7478,5.967,6.2737,6.8336,6.859,6.958,7.6429,7.6844,7.6155,7.6719,7.7951,7.9477,8.1519,8.5671,8.8903,8.9602,8.9123,8.8424,8.7796,8.7107,8.6728,8.6728,8.6728,8.6728,8.6728,8.6728,8.6728,8.6698,8.606,8.5701,8.5671,8.4414,8.3688,8.3688,8.2439,8.1818,8.1751,8.1093,8.0794,8.0794,8.0794,8.0434,7.974,7.9088,7.84,7.7741,7.7048,7.642,7.5976,7.6569,7.642,7.5916,7.5916,7.5467,7.4958,7.5647,7.5437,7.5023,7.5677,7.5437,7.4903,7.4903,7.4903,7.4903,7.4903,7.4903,7.4903,7.4903,7.4903,7.4903,7.4903,7.4903,7.4903,7.4903,7.4903,7.4903,7.4903,7.4903,7.4903,7.4903,7.4903,7.4903,7.4903,7.4903,7.4903,7.4903,7.4903,7.4903,7.4903,7.4903,7.4903,7.4903,7.4903,7.4903,7.4903,7.4903,7.4903,7.4903,7.4903,7.4903,7.4903,7.4903,7.4903,7.4903,7.4903,7.4903,7.4903,7.4903,7.4903,5.0563,5.3227,5.6563,5.8178,6.1972,6.6412,7.0708,7.1415,7.2939,7.9281,8.0674,8.0375,7.9148,8.1123,8.2858,8.2567,8.5581,8.8215,8.8873,8.8424,8.7915,8.7736,8.7107,8.6728,8.6728,8.6728,8.6728,8.6728,8.6728,8.6479,8.6,8.5791,8.5282,8.4316,8.3897,8.3269,8.238,8.1991,8.1332,8.0405,8.0674,8.0554,8.0105,8.0105,7.9746,7.9058,7.84,7.7741,7.7048,7.639,7.6066,7.6006,7.7083,7.6844,7.5946,7.6395,7.5826,7.4933,7.5142,7.5083,7.4933,7.5108,7.5048,7.4903,7.4903,7.4903,7.4903,7.4903,7.4903,7.4903,7.4903,7.4903,7.4903,7.4903,7.4903,7.4903,7.4903,7.4903,7.4903,7.4903,7.4903,7.4903,7.4903,7.4903,7.4903,7.4903,7.4903,7.4903,7.4903,7.4903,7.4903,7.4903,7.4903,7.4903,7.4903,7.4903,7.4903,7.4903,7.4903,7.4903,7.4903,7.4903,7.4903,7.4903,7.4903,7.4903,7.4903,7.4903,7.4903,7.4903,7.4903,7.4903,5.3023,5.5977,5.9475,6.1122,6.5207,6.9999,7.4466,7.6078,7.7936,8.241,8.3457,8.3247,8.232,8.3756,8.4923,8.4453,8.6449,8.8155,8.8274,8.7945,8.7616,8.7317,8.6928,8.6608,8.6299,8.6549,8.6608,8.6299,8.6578,8.6389,8.5731,8.5462,8.4833,8.3718,8.3217,8.2589,8.1781,8.1272,8.0614,7.977,7.9956,7.9806,7.9417,7.9686,7.9447,7.8729,7.7831,7.7053,7.639,7.5766,7.5497,7.5617,7.6904,7.6814,7.6006,7.6904,7.6544,7.5677,7.5946,7.5707,7.5318,7.5587,7.5288,7.4903,7.4903,7.4903,7.4903,7.4903,7.4903,7.4903,7.4903,7.4903,7.4903,7.4903,7.4903,7.4903,7.4903,7.4903,7.4903,7.4903,7.4903,7.4903,7.4903,7.4903,7.4903,7.4903,7.5142,7.5288,7.5288,7.5288,7.5288,7.5288,7.5083,7.4903,7.4903,7.4903,7.4903,7.4903,7.4903,7.4903,7.4903,7.4903,7.4903,7.4903,7.4903,7.4903,7.4903,7.4903,7.4903,7.4903,7.4903,7.4903,5.7588,6.0304,6.3077,6.5588,6.9389,7.3879,7.9011,8.1661,8.3585,8.5342,8.5372,8.5252,8.5851,8.606,8.6299,8.6818,8.7945,8.8514,8.7796,8.7706,8.7437,8.6788,8.6668,8.6359,8.5851,8.621,8.627,8.5731,8.621,8.621,8.5551,8.4953,8.4256,8.3538,8.2409,8.1759,8.1601,8.0405,7.9776,7.9716,7.9088,7.8789,7.8819,7.9447,7.9327,7.8549,7.7352,7.639,7.5766,7.5138,7.4903,7.5053,7.6305,7.642,7.6066,7.7322,7.7382,7.6868,7.7442,7.6874,7.5976,7.6485,7.5826,7.4903,7.4903,7.4903,7.4903,7.4903,7.4903,7.4903,7.4903,7.4903,7.4903,7.4903,7.4903,7.4903,7.4903,7.4903,7.4903,7.4903,7.4903,7.4903,7.4903,7.4903,7.4933,7.4993,7.5557,7.5976,7.5976,7.5946,7.5916,7.5916,7.5288,7.4903,7.4903,7.4903,7.4933,7.4993,7.4993,7.4993,7.4993,7.4993,7.4963,7.4903,7.4963,7.4963,7.4903,7.4963,7.4993,7.4993,7.5053,7.5083,5.8556,6.1635,6.5687,6.9341,7.4982,8.0164,8.2357,8.4025,8.5192,8.5611,8.6838,8.7885,8.8005,8.8873,8.9292,8.8394,8.8973,8.9093,8.7856,8.7706,8.7437,8.6788,8.621,8.606,8.6459,8.5671,8.5282,8.5671,8.5342,8.4863,8.4166,8.3987,8.3397,8.223,8.1931,8.1272,8.0255,7.9919,7.9537,7.8998,7.8849,7.8789,7.8789,7.8938,7.837,7.7197,7.6928,7.6185,7.5113,7.4963,7.4903,7.5053,7.6305,7.642,7.6066,7.7322,7.7382,7.6749,7.6425,7.6125,7.5826,7.5437,7.5108,7.4903,7.4903,7.4903,7.4903,7.4903,7.4903,7.4903,7.4903,7.4903,7.4903,7.4903,7.4903,7.4903,7.4903,7.4903,7.4903,7.4903,7.4903,7.4903,7.4903,7.4903,7.5083,7.5617,7.6215,7.6599,7.6599,7.6215,7.5916,7.5916,7.5288,7.4903,7.4903,7.4903,7.5108,7.5647,7.5677,7.5677,7.5677,7.5677,7.5437,7.4933,7.5407,7.5407,7.4903,7.5437,7.5677,7.5707,7.6185,7.6395,6.0799,6.4208,6.832,7.4062,7.8924,8.2589,8.3906,8.4983,8.5881,8.6539,8.7736,8.8574,8.8274,8.9292,8.9741,8.8424,8.8514,8.8364,8.7347,8.6928,8.6599,8.624,8.5611,8.5222,8.5252,8.4923,8.4714,8.4743,8.4743,8.4406,8.3748,8.3427,8.2798,8.1811,8.1183,8.0524,7.9799,7.9477,7.9148,7.8789,7.8789,7.8789,7.8789,7.846,7.7771,7.6779,7.6479,7.5826,7.4903,7.4903,7.4903,7.5053,7.6305,7.6599,7.6455,7.7442,7.7592,7.7167,7.6539,7.6155,7.5856,7.5497,7.5138,7.4903,7.4903,7.4903,7.4903,7.4903,7.4903,7.4903,7.4903,7.4903,7.4903,7.4903,7.4903,7.4903,7.4903,7.4903,7.4958,7.5318,7.5377,7.5467,7.5766,7.5796,7.5946,7.6305,7.6868,7.7293,7.7293,7.7023,7.6814,7.6814,7.5946,7.5377,7.5377,7.5377,7.5527,7.5886,7.6185,7.6335,7.6335,7.6664,7.6365,7.5377,7.6006,7.6036,7.5377,7.6036,7.6185,7.5916,7.6509,7.6779,6.2412,6.6496,7.1039,7.8036,8.1392,8.3247,8.4444,8.5222,8.603,8.7257,8.8065,8.8394,8.7945,8.8753,8.9153,8.7915,8.7796,8.7556,8.6629,8.615,8.5791,8.5551,8.4953,8.4346,8.3897,8.4205,8.4145,8.3568,8.3965,8.3906,8.3239,8.2709,8.2148,8.1452,8.0375,7.971,7.9656,7.9088,7.8789,7.8789,7.8789,7.8729,7.8579,7.7951,7.7317,7.6749,7.6185,7.5527,7.4903,7.4903,7.4903,7.5053,7.6305,7.6779,7.6868,7.7562,7.7801,7.7711,7.6898,7.6335,7.5886,7.5766,7.5347,7.4903,7.4903,7.4903,7.4903,7.4903,7.4903,7.4903,7.4903,7.4903,7.4903,7.4903,7.4993,7.5053,7.4933,7.4993,7.5228,7.5796,7.5976,7.6215,7.6689,7.6898,7.6958,7.6958,7.7562,7.7981,7.7981,7.7891,7.7801,7.7801,7.6664,7.5946,7.6066,7.5976,7.6006,7.6215,7.6724,7.6958,7.6958,7.7622,7.7442,7.6245,7.6724,7.6659,7.6066,7.6659,7.6724,7.6245,7.6838,7.7137,6.0182,6.6538,7.3956,7.8632,8.1721,8.3748,8.4534,8.5222,8.591,8.6698,8.7347,8.7975,8.8454,8.8693,8.8574,8.7826,8.8185,8.7915,8.609,8.624,8.612,8.4983,8.4226,8.4017,8.4495,8.3636,8.3016,8.2926,8.2439,8.1871,8.1212,8.1123,8.0764,8.0105,7.9896,7.9537,7.8938,7.8819,7.8789,7.8789,7.8789,7.8489,7.7921,7.7227,7.6868,7.6749,7.6185,7.5527,7.4903,7.4903,7.4903,7.5053,7.6305,7.6779,7.6868,7.7562,7.7801,7.7652,7.6425,7.5976,7.5796,7.5198,7.4993,7.4903,7.4903,7.4903,7.4903,7.4903,7.4903,7.4903,7.4903,7.4903,7.4903,7.4903,7.5318,7.5617,7.5053,7.5347,7.5796,7.5886,7.63,7.6689,7.6779,7.7257,7.7682,7.7682,7.825,7.8669,7.8669,7.816,7.7801,7.7801,7.6664,7.6125,7.6629,7.6215,7.6365,7.7502,7.7622,7.7682,7.7682,7.831,7.831,7.7562,7.7652,7.7352,7.6659,7.7352,7.7652,7.7562,7.822,7.8519,6.3906,6.887,7.3859,7.9047,8.2013,8.3777,8.4047,8.5252,8.621,8.615,8.6359,8.6778,8.7437,8.7885,8.7915,8.7227,8.7048,8.6689,8.5821,8.5312,8.4803,8.4196,8.3576,8.3158,8.3068,8.2559,8.2088,8.1691,8.1392,8.1093,8.0823,8.0464,8.0105,7.9799,7.9447,7.9088,7.8789,7.8789,7.8789,7.8789,7.843,7.81,7.7771,7.6784,7.6305,7.6275,7.5617,7.5168,7.4903,7.4903,7.4903,7.4993,7.5946,7.6305,7.636,7.7023,7.7227,7.7108,7.6215,7.5916,7.5796,7.5108,7.4903,7.4903,7.4903,7.4903,7.4903,7.4903,7.4903,7.4903,7.4903,7.4903,7.4958,7.5347,7.5677,7.5916,7.5946,7.6215,7.6544,7.6904,7.7502,7.7921,7.7921,7.816,7.837,7.837,7.8609,7.8789,7.8789,7.8519,7.837,7.837,7.7532,7.7083,7.7352,7.7143,7.7203,7.7771,7.816,7.837,7.837,7.8639,7.8639,7.837,7.837,7.8041,7.7347,7.8041,7.816,7.7831,7.8489,7.8789,6.5094,6.8351,7.1006,7.7034,8.0405,8.2461,8.3478,8.4863,8.594,8.594,8.5671,8.5641,8.6299,8.6838,8.6958,8.6299,8.591,8.5521,8.5013,8.4235,8.3508,8.3,8.2709,8.2297,8.1601,8.1542,8.1272,8.0614,8.0554,8.0464,8.0315,7.9836,7.9567,7.9567,7.9058,7.8789,7.8789,7.8789,7.8789,7.8789,7.813,7.7711,7.7532,7.6425,7.5826,7.5617,7.5108,7.4903,7.4903,7.4903,7.4903,7.4993,7.5647,7.5916,7.5946,7.6425,7.6569,7.6479,7.5856,7.5647,7.5557,7.5048,7.4903,7.4903,7.4903,7.4903,7.4903,7.4903,7.5023,7.5138,7.5138,7.5258,7.5497,7.6006,7.6275,7.6514,7.6958,7.7048,7.7227,7.7921,7.846,7.8789,7.8789,7.8789,7.8789,7.8789,7.8789,7.8789,7.8789,7.8789,7.8789,7.8789,7.819,7.7891,7.8041,7.7921,7.7891,7.8041,7.8519,7.8789,7.8789,7.8789,7.8789,7.8789,7.8789,7.8549,7.8071,7.8549,7.8519,7.8071,7.8549,7.8789,5.9428,6.2002,6.4598,7.0819,7.5258,7.9088,8.285,8.3777,8.4414,8.624,8.5641,8.4983,8.5611,8.5791,8.5581,8.4923,8.5312,8.5043,8.3226,8.3397,8.3,8.1183,8.1482,8.1572,8.0913,8.0853,8.0584,7.9926,7.9829,7.9567,7.8938,7.8849,7.8849,7.8849,7.8819,7.8789,7.8789,7.8789,7.8789,7.8789,7.813,7.7472,7.6808,7.6215,7.5557,7.4963,7.4933,7.4903,7.4903,7.4903,7.4903,7.4993,7.5647,7.5916,7.5916,7.5946,7.5946,7.5856,7.5168,7.4963,7.4963,7.4933,7.4903,7.4903,7.4903,7.4903,7.4903,7.4903,7.5347,7.5856,7.5856,7.6275,7.6689,7.6719,7.7227,7.7711,7.7741,7.7771,7.7951,7.8609,7.8759,7.8789,7.8789,7.8789,7.8789,7.8789,7.8789,7.8789,7.8789,7.8789,7.8789,7.8789,7.819,7.8071,7.8699,7.816,7.8071,7.8699,7.8759,7.8789,7.8789,7.8789,7.8789,7.8789,7.8789,7.8759,7.8729,7.8759,7.8759,7.8729,7.8759,7.8789,5.8919,6.0084,6.1343,6.821,7.2651,7.5974,7.8586,8.1533,8.3777,8.4154,8.4115,8.4106,8.4346,8.4773,8.4983,8.4743,8.4205,8.3615,8.2896,8.223,8.1601,8.0883,8.1003,8.0883,8.0225,8.0165,7.9896,7.9208,7.9148,7.9058,7.8789,7.8789,7.8789,7.8789,7.8789,7.8789,7.8789,7.8789,7.8579,7.816,7.7502,7.6808,7.6215,7.5557,7.5142,7.4903,7.4903,7.4903,7.4903,7.4903,7.4903,7.4933,7.5138,7.5258,7.5288,7.5736,7.5916,7.5886,7.5617,7.5527,7.5467,7.5053,7.4903,7.4903,7.4903,7.4903,7.4993,7.5407,7.5707,7.6006,7.6395,7.6629,7.6898,7.7352,7.7951,7.843,7.843,7.843,7.8519,7.8729,7.8789,7.8789,7.8789,7.9148,7.9297,7.8849,7.9178,7.9297,7.8849,7.8789,7.8789,7.8789,7.8579,7.8519,7.8759,7.8579,7.8549,7.8759,7.8789,7.8789,7.8789,7.8789,7.8789,7.8789,7.8789,7.8789,7.8789,7.8789,7.8789,7.8789,7.8789,7.8789,5.6421,5.7448,5.8954,6.5624,6.9061,7.2001,7.6446,7.9188,8.1153,8.2537,8.2918,8.3179,8.3628,8.3688,8.3816,8.4025,8.3375,8.2627,8.2208,8.1362,8.0644,8.0165,8.0345,8.0195,7.9537,7.9477,7.9297,7.8819,7.8789,7.9046,7.9658,7.9663,7.9663,7.9663,7.8662,7.825,7.846,7.846,7.8421,7.8295,7.7837,7.7605,7.7478,7.6837,7.6233,7.5695,7.5695,7.5388,7.4903,7.4903,7.4903,7.4903,7.4903,7.4903,7.4963,7.5377,7.5557,7.5557,7.5557,7.5557,7.5497,7.5053,7.4903,7.4963,7.5172,7.5228,7.5347,7.6036,7.6365,7.6634,7.7018,7.7287,7.7592,7.8041,7.846,7.8849,7.9088,7.8938,7.8849,7.9088,7.9148,7.9148,7.9148,7.9507,7.9597,7.8878,7.9178,7.9297,7.8849,7.8789,7.8789,7.8789,7.8789,7.8789,7.8789,7.8789,7.8789,7.8789,7.8789,7.8789,7.8789,7.8789,7.8789,7.8789,7.8789,7.8789,7.8789,7.8789,7.8789,7.8789,7.9028,7.9148,0.0,0.0,0.0,6.2685,6.4313,6.7005,7.6379,7.6541,7.6195,8.1459,8.2058,8.202,8.3389,8.2619,8.1998,8.2657,8.2747,8.2268,8.0943,8.0764,8.0255,7.8938,7.9387,7.9537,7.8921,7.8897,7.8897,7.8969,7.8939,7.9663,8.1377,8.1449,8.1449,8.1449,7.8499,7.7254,7.7883,7.7913,7.8434,7.9335,7.9366,7.9816,8.0638,8.0061,7.8909,7.729,7.729,7.6401,7.4903,7.4903,7.4903,7.4903,7.4903,7.4903,7.4903,7.4903,7.4903,7.4903,7.4903,7.4903,7.4903,7.4933,7.4933,7.5018,7.5707,7.5946,7.6066,7.6659,7.7287,7.7801,7.7831,7.831,7.8789,7.8819,7.8819,7.8998,7.9686,7.9327,7.9058,7.9716,7.9836,7.9836,7.9836,7.9836,7.9627,7.8938,7.8819,7.8819,7.8789,7.8789,7.8789,7.8789,7.8789,7.8789,7.8789,7.8789,7.8789,7.8789,7.8789,7.8789,7.8789,7.8789,7.8789,7.8789,7.8789,7.8789,7.8789,7.8789,7.8789,7.8819,7.9477,7.9776,5.3145,0.0,0.0,0.0,0.0,0.0,6.6236,6.8805,7.1555,7.5554,7.6574,7.7957,8.1631,8.1631,8.1302,8.1968,8.1242,8.0494,8.0135,7.9656,7.9208,7.8819,7.8968,7.9508,8.0579,8.0652,8.1207,8.246,8.2023,8.2158,8.3219,8.2743,8.2394,8.2394,8.1086,8.0417,8.0637,8.114,8.1055,8.0333,8.0904,8.0775,8.0029,7.9867,7.8878,7.729,7.729,7.6401,7.4903,7.4903,7.4903,7.4903,7.4903,7.4903,7.4903,7.4903,7.4903,7.4903,7.4903,7.4903,7.4993,7.5467,7.5617,7.5736,7.633,7.6539,7.6689,7.7352,7.7682,7.7921,7.84,7.8639,7.8908,7.9417,7.9537,7.9716,8.0375,8.0375,8.0315,8.0494,8.0524,8.0524,8.0524,8.0524,8.0315,7.9627,7.9537,7.9357,7.8849,7.8789,7.8789,7.8789,7.8789,7.8789,7.8789,7.8789,7.8789,7.8789,7.8789,7.8789,7.8789,7.8789,7.8789,7.8789,7.8789,7.8789,7.8789,7.8789,7.8789,7.8789,7.8998,7.9088,0.0,0.0,0.0,5.75,0.0,0.0,6.4511,6.6093,6.8318,7.4478,7.6048,7.7415,8.0963,8.1054,8.0591,8.0552,7.9656,7.9141,7.9746,7.9238,7.9046,7.9804,7.9875,8.0456,8.1853,8.1987,8.2289,8.3004,8.262,8.2839,8.4038,8.3712,8.3452,8.3454,8.1809,8.1022,8.1278,8.1693,8.1714,8.1319,8.2094,8.2227,8.1795,8.1121,7.9923,7.8313,7.7612,7.6401,7.4903,7.4903,7.4903,7.4903,7.4903,7.4903,7.4903,7.4903,7.4903,7.4903,7.4903,7.4903,7.5023,7.5677,7.5916,7.6066,7.6963,7.7233,7.7347,7.8041,7.822,7.831,7.8699,7.8789,7.8878,7.9297,7.9627,7.9949,8.0674,8.1003,8.1212,8.1212,8.1212,8.1212,8.1212,8.1212,8.0973,8.0315,8.0225,8.0075,7.9686,7.9387,7.9238,7.9238,7.8968,7.8789,7.8789,7.8789,7.8908,7.9208,7.9238,7.9357,7.9627,7.9357,7.9238,7.9238,7.8938,7.8789,7.8789,7.8789,7.8938,7.9208,7.8938,7.8938,0.0,0.0,0.0,0.0,5.8593,0.0,6.6448,6.5526,6.5602,7.4531,7.6357,7.7101,7.9523,7.9557,7.8932,7.8026,7.7876,7.8358,7.9773,7.9473,7.9734,8.148,8.159,8.1982,8.3002,8.3,8.2774,8.2287,8.2286,8.2928,8.4386,8.4532,8.4532,8.4473,8.1774,8.0606,8.1126,8.1223,8.1685,8.2458,8.3156,8.3898,8.4526,8.2942,8.1326,7.971,7.8028,7.6401,7.4903,7.4903,7.4903,7.4903,7.4903,7.4903,7.4903,7.4903,7.4903,7.4933,7.4993,7.4963,7.5053,7.5856,7.6066,7.6245,7.7532,7.7921,7.8041,7.8639,7.8789,7.8789,7.8789,7.8789,7.8819,7.8878,7.9387,8.0016,8.0764,8.1362,8.1811,8.1908,8.1938,8.1938,8.1938,8.1878,8.1572,8.0883,8.0794,8.0764,8.0704,8.0255,7.9859,7.9799,7.9267,7.8878,7.8789,7.8849,7.9178,7.974,7.9859,8.0195,8.0764,8.0225,7.9896,7.977,7.9208,7.8878,7.8789,7.8938,7.9297,7.977,7.9178,7.9267,0.0,0.0,0.0,0.0,5.9828,0.0,5.8021,5.8655,6.0645,6.3619,6.4212,6.5758,7.0785,7.2147,7.2403,7.2181,7.5583,7.8937,8.0819,8.0986,8.1548,8.3283,8.2906,8.3162,8.4767,8.4361,8.4533,8.5771,8.5884,8.5762,8.5523,8.5517,8.5517,8.549,8.4308,8.3708,8.3847,8.4478,8.4576,8.4143,8.4917,8.5053,8.4526,8.2942,8.1326,7.971,7.8028,7.6401,7.4903,7.4903,7.4903,7.4903,7.4903,7.4903,7.4903,7.4903,7.4903,7.4993,7.5527,7.5347,7.5202,7.6874,7.7048,7.6868,7.819,7.8579,7.8639,7.8759,7.8789,7.8789,7.8789,7.8789,7.8938,7.9477,7.9716,8.0135,8.1332,8.1691,8.1968,8.2507,8.2597,8.2597,8.2597,8.2178,8.1572,8.0883,8.0794,8.0614,8.0075,8.0345,8.0405,7.9829,7.9686,7.9387,7.8849,7.9297,7.9686,7.977,8.0315,8.0674,8.0794,8.0674,8.0345,7.9799,7.9686,7.9357,7.8789,7.9866,8.0195,7.977,7.9686,7.9986,0.0,0.0,0.0,5.9404,0.0,0.0,0.0,5.7666,5.8097,6.255,6.2676,6.3318,6.7734,6.8872,6.9215,6.9468,7.3286,7.676,7.8224,8.0555,8.2712,8.4489,8.3995,8.4078,8.5487,8.5262,8.5237,8.5709,8.6129,8.6027,8.5249,8.5587,8.5621,8.5215,8.4817,8.4614,8.4614,8.5012,8.5012,8.4614,8.5012,8.4986,8.45,8.2083,8.0587,7.968,7.7191,7.5628,7.4903,7.4903,7.4903,7.4903,7.4903,7.4903,7.4963,7.5258,7.5377,7.5497,7.6125,7.6125,7.6066,7.7382,7.7592,7.7502,7.8489,7.8789,7.8789,7.8789,7.8789,7.8789,7.8789,7.8789,7.8968,7.9656,8.0075,8.0584,8.1572,8.2088,8.2507,8.3128,8.3016,8.2806,8.2806,8.2537,8.2088,8.1392,8.1302,8.1063,8.0405,8.0315,8.0315,8.0315,8.0016,7.9806,7.9806,8.0105,8.0434,8.0764,8.1093,8.1452,8.1751,8.1452,8.0973,8.0315,8.0644,8.0464,7.9806,8.1123,8.0913,7.9327,7.9986,8.0315,0.0,0.0,0.0,0.0,0.0,5.8219,0.0,0.0,0.0,6.3076,6.2927,6.2608,6.5312,6.5933,6.6162,6.6616,7.0059,7.2973,7.3844,7.7883,8.1647,8.3945,8.4288,8.4569,8.5108,8.4633,8.437,8.458,8.4403,8.437,8.458,8.5215,8.5283,8.4614,8.4614,8.4614,8.4614,8.4614,8.4614,8.4614,8.4614,8.4614,8.4473,8.1271,7.9803,7.9619,7.6332,7.4903,7.4903,7.4903,7.4903,7.4903,7.4903,7.4903,7.4993,7.5647,7.5916,7.6006,7.6719,7.6898,7.6928,7.7741,7.7981,7.81,7.8639,7.8789,7.8789,7.8789,7.8789,7.8789,7.8789,7.8789,7.8968,7.9656,8.0225,8.0823,8.1601,8.2238,8.2836,8.3538,8.3217,8.2836,8.2956,8.2896,8.2567,8.1908,8.1818,8.1572,8.1063,8.0524,8.0405,8.0943,8.0524,8.0345,8.0764,8.0913,8.1212,8.1789,8.1938,8.2238,8.2776,8.2178,8.1542,8.1003,8.1512,8.1452,8.0794,8.2148,8.1639,7.9387,8.0494,8.0764,0.0,0.0,0.0,0.0,6.3635,6.4522,5.7193,0.0,5.8728,5.7563,0.0,5.7377,5.8753,0.0,0.0,6.0072,6.4334,6.7878,6.8626,7.1543,7.5118,7.9323,8.2653,8.4089,8.2889,8.0412,8.0479,8.4309,8.1054,8.0547,8.4411,8.4681,8.4681,8.4614,8.4614,8.4614,8.4614,8.4614,8.4614,8.4614,8.4614,8.4614,8.4473,8.1271,7.9803,7.962,7.6332,7.4903,7.4903,7.4903,7.4903,7.4903,7.4903,7.4903,7.4993,7.5647,7.5916,7.6066,7.7293,7.7287,7.6988,7.828,7.8669,7.8699,7.8759,7.8789,7.8789,7.8789,7.8789,7.8789,7.8789,7.8789,7.8968,7.9656,7.9829,8.0285,8.1512,8.1878,8.226,8.3448,8.3217,8.2986,8.3517,8.3128,8.2567,8.1908,8.1818,8.1751,8.1691,8.1601,8.1572,8.1661,8.1601,8.1362,8.0853,8.1332,8.1691,8.1818,8.2357,8.2717,8.2806,8.2178,8.1751,8.1661,8.1751,8.1452,8.0794,8.2148,8.2357,8.1452,8.1601,8.1968,0.0,0.0,6.7686,6.3897,6.4303,6.4216,5.8731,5.6791,5.6116,5.6185,0.0,0.0,0.0,0.0,0.0,0.0,6.1189,6.3507,6.3124,6.7157,7.1546,7.5401,7.6487,7.7647,7.9634,7.872,7.9464,8.3058,8.0006,7.9566,8.3126,8.414,8.4614,8.4614,8.4614,8.4614,8.4614,8.4614,8.4614,8.4614,8.4614,8.4614,8.4473,8.1268,7.9802,7.9619,7.6332,7.4903,7.4903,7.4903,7.4903,7.4963,7.5318,7.5467,7.5587,7.6634,7.7023,7.7143,7.8071,7.819,7.8041,7.8609,7.8789,7.8789,7.8789,7.8789,7.8789,7.8789,7.8789,7.8789,7.8789,7.8789,7.9058,8.0135,8.0375,8.0764,8.2088,8.2387,8.2619,8.3508,8.3217,8.3016,8.3598,8.3187,8.2567,8.1908,8.1818,8.1631,8.1272,8.1212,8.1362,8.1751,8.1818,8.1848,8.1968,8.2238,8.2387,8.2387,8.2948,8.3158,8.2806,8.2858,8.2739,8.2387,8.2387,8.2238,8.1968,8.2537,8.2657,8.2387,8.2387,8.2327,6.8301,6.8944,6.9825,6.5262,6.4303,6.3466,5.9544,5.7306,5.6183,5.6859,5.6801,0.0,0.0,0.0,5.6544,5.7678,0.0,6.017,5.9523,6.281,6.6589,7.0061,7.0601,7.2225,7.6082,7.5361,7.6284,8.0276,7.7232,7.7232,8.1866,8.3118,8.3971,8.458,8.4614,8.4614,8.4614,8.4614,8.4614,8.4614,8.4614,8.4614,8.4473,8.1268,7.9802,7.9619,7.6332,7.4903,7.4933,7.5113,7.5168,7.5258,7.6096,7.6425,7.6544,7.7472,7.7801,7.7921,7.8549,7.8789,7.8789,7.8789,7.8789,7.8789,7.8789,7.8789,7.8789,7.8789,7.8789,7.8789,7.8789,7.8789,7.9118,8.0494,8.0794,8.1153,8.2507,8.2806,8.2986,8.3568,8.3217,8.3016,8.3598,8.3187,8.2627,8.2148,8.1938,8.1661,8.1392,8.1183,8.1332,8.2028,8.2088,8.2268,8.2747,8.2806,8.2806,8.2806,8.3367,8.3427,8.2806,8.3397,8.3427,8.2806,8.2806,8.2806,8.2806,8.2806,8.2806,8.2806,8.2806,8.2537,7.465,7.4322,7.348,6.505,6.4324,6.4024,5.7714,5.9329,6.1525,5.9329,6.1206,6.2544,6.0385,5.9366,0.0,0.0,5.8417,0.0,0.0,5.7962,5.8555,6.2313,6.6542,7.006,7.236,6.8661,6.8808,7.5405,7.1142,7.2056,8.0877,8.1384,8.2374,8.4512,8.4614,8.4614,8.4614,8.4614,8.4614,8.4614,8.4614,8.4614,8.4473,8.1271,7.9803,7.962,7.6332,7.4903,7.4963,7.5587,7.5886,7.6006,7.7263,7.7741,7.7741,7.7801,7.7801,7.7921,7.8549,7.8789,7.8789,7.8789,7.8789,7.8789,7.8789,7.8789,7.8789,7.8789,7.8789,7.8789,7.8789,7.8789,7.9118,8.0494,8.0794,8.1153,8.2507,8.2806,8.2986,8.3568,8.3217,8.3016,8.3598,8.3187,8.2776,8.2776,8.2238,8.2028,8.2657,8.2178,8.2028,8.2687,8.2776,8.2776,8.2806,8.2806,8.2806,8.2806,8.3367,8.3427,8.2806,8.3397,8.3427,8.2806,8.2806,8.2806,8.2806,8.2806,8.2806,8.2806,8.2806,8.2776,7.7705,7.9735,8.0268,7.1409,7.0389,6.9465,6.1427,6.1032,6.1738,5.9453,6.1414,6.2801,6.052,5.9309,0.0,0.0,0.0,5.6277,0.0,5.4882,5.5372,5.8349,6.3091,6.6406,6.7184,6.7658,6.9688,7.3916,7.2157,7.3274,7.8813,8.0953,8.2374,8.3126,8.4072,8.4614,8.4614,8.4614,8.4614,8.4614,8.4614,8.4062,8.2942,8.0766,7.9189,7.8028,7.5829,7.4903,7.4963,7.5617,7.5916,7.6036,7.7322,7.7801,7.7861,7.831,7.846,7.8489,7.8699,7.8789,7.8789,7.8789,7.8789,7.8789,7.8789,7.8789,7.8789,7.8789,7.8789,7.8789,7.8789,7.8789,7.9028,7.9926,8.0494,8.1033,8.1931,8.2148,8.2357,8.2978,8.2597,8.2357,8.2978,8.2956,8.2806,8.2806,8.2627,8.2537,8.2776,8.2597,8.2567,8.2776,8.2806,8.2806,8.2806,8.2806,8.2806,8.2806,8.3367,8.3427,8.2806,8.3397,8.3427,8.2806,8.2806,8.2806,8.2806,8.2806,8.2806,8.2806,8.2806,8.2806,8.0581,8.2577,8.3287,7.6149,7.4897,7.3443,6.5797,6.485,6.4783,6.1975,6.2922,6.4005,6.3057,6.1025,0.0,0.0,0.0,0.0,0.0,5.3871,5.4103,5.6167,5.9525,6.2327,6.4032,6.4749,6.6677,7.0454,6.9789,7.1109,7.5371,7.8923,8.119,8.1968,8.3667,8.4749,8.5046,8.4749,8.4749,8.5019,8.4169,8.3332,8.2478,8.0021,7.8439,7.7564,7.5715,7.5053,7.5288,7.5946,7.6365,7.6694,7.7741,7.816,7.822,7.8639,7.8789,7.8789,7.8789,7.8789,7.8789,7.8789,7.8789,7.8789,7.8789,7.8789,7.8878,7.9357,7.9148,7.8908,7.9387,7.9148,7.8968,7.9656,8.0315,8.0913,8.1332,8.1811,8.2208,8.2417,8.2297,8.2297,8.2717,8.2806,8.2806,8.2806,8.2806,8.2806,8.2806,8.2806,8.2806,8.2806,8.2806,8.2806,8.2806,8.2806,8.2806,8.2806,8.3606,8.3786,8.3128,8.3726,8.3995,8.3854,8.3166,8.3016,8.3495,8.3016,8.2806,8.2806,8.2806,8.2806]}]]